Wetterdaten: Freitag, 30.06.2017
Datum Zeit Temp. A. Pool Temp. Feuchte A. Luftdruck Regen Wind Richtung Richtung Sonnenschein ET UV Solar Taupunkt Windchill Windben Empfang
30.06.2017 00:00 15,9 C 24,4 C 79 % 1003,9 hPa 0,0 l/m 12,1 km/h (2 Bft) SW 220 0 min 0,000 mm 0,0 UV-I 0 W/m 12,3 C 13,3 C 16,1 km/h (3 Bft) 96,00 %
30.06.2017 00:02 15,8 C 24,4 C 80 % 1003,8 hPa 0,0 l/m 12,3 km/h (3 Bft) SW 220 0 min 0,000 mm 0,0 UV-I 0 W/m 12,4 C 13,1 C 22,5 km/h (4 Bft) 92,11 %
30.06.2017 00:04 15,8 C 24,4 C 80 % 1003,8 hPa 0,0 l/m 14,2 km/h (3 Bft) S-SW 195 0 min 0,000 mm 0,0 UV-I 0 W/m 12,4 C 12,4 C 20,9 km/h (4 Bft) 93,62 %
30.06.2017 00:06 15,7 C 24,4 C 80 % 1003,8 hPa 0,0 l/m 13,9 km/h (3 Bft) S-SW 196 0 min 0,000 mm 0,0 UV-I 0 W/m 12,3 C 12,4 C 22,5 km/h (4 Bft) 96,00 %
30.06.2017 00:08 15,7 C 24,4 C 80 % 1003,9 hPa 0,0 l/m 10,0 km/h (2 Bft) S-SW 210 0 min 0,000 mm 0,0 UV-I 0 W/m 12,3 C 13,9 C 16,1 km/h (3 Bft) 95,12 %
30.06.2017 00:10 15,6 C 24,4 C 81 % 1003,9 hPa 0,0 l/m 15,5 km/h (3 Bft) W-SW 246 0 min 0,000 mm 0,0 UV-I 0 W/m 12,3 C 11,8 C 27,4 km/h (4 Bft) 97,73 %
30.06.2017 00:12 15,5 C 24,4 C 80 % 1004,0 hPa 0,0 l/m 16,4 km/h (3 Bft) S-SW 202 0 min 0,000 mm 0,0 UV-I 0 W/m 12,1 C 11,4 C 24,1 km/h (4 Bft) 98,00 %
30.06.2017 00:14 15,4 C 24,4 C 80 % 1004,0 hPa 0,0 l/m 16,4 km/h (3 Bft) SW 234 0 min 0,000 mm 0,0 UV-I 0 W/m 12,0 C 11,2 C 22,5 km/h (4 Bft) 94,34 %
30.06.2017 00:16 15,4 C 24,4 C 81 % 1004,0 hPa 0,0 l/m 14,8 km/h (3 Bft) SW 219 0 min 0,000 mm 0,0 UV-I 0 W/m 12,2 C 11,7 C 22,5 km/h (4 Bft) 100,00 %
30.06.2017 00:18 15,3 C 24,4 C 82 % 1004,0 hPa 0,0 l/m 14,7 km/h (3 Bft) SW 215 0 min 0,000 mm 0,0 UV-I 0 W/m 12,2 C 11,7 C 20,9 km/h (4 Bft) 100,00 %
30.06.2017 00:20 15,2 C 24,4 C 82 % 1004,0 hPa 0,0 l/m 16,5 km/h (3 Bft) W-SW 246 0 min 0,000 mm 0,0 UV-I 0 W/m 12,1 C 11,0 C 20,9 km/h (4 Bft) 98,53 %
30.06.2017 00:22 15,1 C 24,4 C 82 % 1003,9 hPa 0,0 l/m 15,4 km/h (3 Bft) SW 232 0 min 0,000 mm 0,0 UV-I 0 W/m 12,0 C 11,2 C 24,1 km/h (4 Bft) 98,15 %
30.06.2017 00:24 15,0 C 24,4 C 83 % 1003,9 hPa 0,2 l/m 15,7 km/h (3 Bft) SW 216 0 min 0,000 mm 0,0 UV-I 0 W/m 12,1 C 11,0 C 20,9 km/h (4 Bft) 100,00 %
30.06.2017 00:26 14,9 C 24,4 C 84 % 1004,0 hPa 0,0 l/m 11,5 km/h (2 Bft) S-SW 206 0 min 0,000 mm 0,0 UV-I 0 W/m 12,2 C 12,4 C 16,1 km/h (3 Bft) 97,87 %
30.06.2017 00:28 14,8 C 24,4 C 84 % 1004,0 hPa 0,0 l/m 10,4 km/h (2 Bft) S-SW 204 0 min 0,000 mm 0,0 UV-I 0 W/m 12,1 C 12,7 C 16,1 km/h (3 Bft) 100,00 %
30.06.2017 00:30 14,8 C 24,4 C 85 % 1004,0 hPa 0,0 l/m 10,1 km/h (2 Bft) SW 215 0 min 0,000 mm 0,0 UV-I 0 W/m 12,3 C 12,9 C 16,1 km/h (3 Bft) 96,00 %
30.06.2017 00:32 14,7 C 24,4 C 85 % 1004,0 hPa 0,0 l/m 11,3 km/h (2 Bft) S-SW 213 0 min 0,000 mm 0,0 UV-I 0 W/m 12,2 C 12,2 C 14,5 km/h (3 Bft) 95,45 %
30.06.2017 00:34 14,6 C 24,4 C 86 % 1004,1 hPa 0,0 l/m 13,0 km/h (3 Bft) S 181 0 min 0,000 mm 0,0 UV-I 0 W/m 12,3 C 11,4 C 17,7 km/h (3 Bft) 100,00 %
30.06.2017 00:36 14,6 C 24,4 C 86 % 1004,0 hPa 0,0 l/m 11,4 km/h (2 Bft) S-SW 212 0 min 0,000 mm 0,0 UV-I 0 W/m 12,3 C 12,1 C 19,3 km/h (3 Bft) 95,24 %
30.06.2017 00:38 14,5 C 24,4 C 86 % 1004,1 hPa 0,0 l/m 8,4 km/h (2 Bft) SW 221 0 min 0,000 mm 0,0 UV-I 0 W/m 12,2 C 13,4 C 12,9 km/h (3 Bft) 96,00 %
30.06.2017 00:40 14,4 C 24,4 C 86 % 1004,1 hPa 0,0 l/m 11,8 km/h (2 Bft) SW 234 0 min 0,000 mm 0,0 UV-I 0 W/m 12,1 C 11,7 C 17,7 km/h (3 Bft) 94,55 %
30.06.2017 00:42 14,4 C 24,4 C 86 % 1004,2 hPa 0,0 l/m 14,1 km/h (3 Bft) W-SW 242 0 min 0,000 mm 0,0 UV-I 0 W/m 12,1 C 10,8 C 20,9 km/h (4 Bft) 97,62 %
30.06.2017 00:44 14,4 C 24,4 C 86 % 1004,1 hPa 0,0 l/m 11,6 km/h (2 Bft) W-SW 246 0 min 0,000 mm 0,0 UV-I 0 W/m 12,1 C 11,7 C 20,9 km/h (4 Bft) 94,00 %
30.06.2017 00:46 14,4 C 24,4 C 86 % 1004,1 hPa 0,0 l/m 11,7 km/h (2 Bft) SW 234 0 min 0,000 mm 0,0 UV-I 0 W/m 12,1 C 11,7 C 17,7 km/h (3 Bft) 100,00 %
30.06.2017 00:48 14,4 C 24,4 C 86 % 1004,1 hPa 0,0 l/m 15,4 km/h (3 Bft) S-SW 201 0 min 0,000 mm 0,0 UV-I 0 W/m 12,1 C 10,3 C 27,4 km/h (4 Bft) 92,21 %
30.06.2017 00:50 14,4 C 24,4 C 87 % 1004,2 hPa 0,0 l/m 12,7 km/h (3 Bft) SW 219 0 min 0,000 mm 0,0 UV-I 0 W/m 12,3 C 11,3 C 17,7 km/h (3 Bft) 96,23 %
30.06.2017 00:52 14,4 C 24,4 C 87 % 1004,2 hPa 0,0 l/m 17,4 km/h (3 Bft) W-SW 243 0 min 0,000 mm 0,0 UV-I 0 W/m 12,3 C 9,7 C 22,5 km/h (4 Bft) 97,37 %
30.06.2017 00:54 14,4 C 24,4 C 87 % 1004,3 hPa 0,2 l/m 11,0 km/h (2 Bft) SW 225 0 min 0,000 mm 0,0 UV-I 0 W/m 12,3 C 12,0 C 16,1 km/h (3 Bft) 95,74 %
30.06.2017 00:56 14,4 C 24,4 C 87 % 1004,3 hPa 0,0 l/m 13,8 km/h (3 Bft) W-SW 250 0 min 0,000 mm 0,0 UV-I 0 W/m 12,3 C 10,9 C 19,3 km/h (3 Bft) 96,00 %
30.06.2017 00:58 14,4 C 24,4 C 87 % 1004,3 hPa 0,0 l/m 11,1 km/h (2 Bft) W-SW 250 0 min 0,000 mm 0,0 UV-I 0 W/m 12,3 C 12,0 C 17,7 km/h (3 Bft) 98,00 %
30.06.2017 01:00 14,4 C 24,4 C 87 % 1004,3 hPa 0,0 l/m 11,6 km/h (2 Bft) W-SW 240 0 min 0,025 mm 0,0 UV-I 0 W/m 12,3 C 11,7 C 19,3 km/h (3 Bft) 95,45 %
30.06.2017 01:02 14,4 C 24,4 C 87 % 1004,4 hPa 0,0 l/m 15,4 km/h (3 Bft) W 266 0 min 0,000 mm 0,0 UV-I 0 W/m 12,3 C 10,3 C 22,5 km/h (4 Bft) 97,87 %
30.06.2017 01:04 14,4 C 24,4 C 87 % 1004,3 hPa 0,0 l/m 19,0 km/h (3 Bft) SW 228 0 min 0,000 mm 0,0 UV-I 0 W/m 12,3 C 9,2 C 29,0 km/h (5 Bft) 98,00 %
30.06.2017 01:06 14,4 C 24,4 C 86 % 1004,3 hPa 0,0 l/m 14,8 km/h (3 Bft) S 186 0 min 0,000 mm 0,0 UV-I 0 W/m 12,1 C 10,5 C 22,5 km/h (4 Bft) 97,73 %
30.06.2017 01:08 14,4 C 24,4 C 86 % 1004,4 hPa 0,0 l/m 15,7 km/h (3 Bft) SW 235 0 min 0,000 mm 0,0 UV-I 0 W/m 12,1 C 10,2 C 29,0 km/h (5 Bft) 100,00 %
30.06.2017 01:10 14,5 C 24,4 C 86 % 1004,3 hPa 0,0 l/m 17,7 km/h (3 Bft) W-SW 245 0 min 0,000 mm 0,0 UV-I 0 W/m 12,2 C 9,7 C 27,4 km/h (4 Bft) 98,31 %
30.06.2017 01:12 14,5 C 24,4 C 86 % 1004,3 hPa 0,0 l/m 18,6 km/h (3 Bft) W-SW 237 0 min 0,000 mm 0,0 UV-I 0 W/m 12,2 C 9,5 C 30,6 km/h (5 Bft) 100,00 %
30.06.2017 01:14 14,6 C 24,4 C 86 % 1004,3 hPa 0,0 l/m 16,3 km/h (3 Bft) SW 224 0 min 0,000 mm 0,0 UV-I 0 W/m 12,3 C 10,3 C 27,4 km/h (4 Bft) 98,11 %
30.06.2017 01:16 14,6 C 24,4 C 85 % 1004,3 hPa 0,0 l/m 16,4 km/h (3 Bft) W-SW 242 0 min 0,000 mm 0,0 UV-I 0 W/m 12,1 C 10,3 C 25,7 km/h (4 Bft) 100,00 %
30.06.2017 01:18 14,6 C 24,4 C 85 % 1004,4 hPa 0,0 l/m 19,7 km/h (3 Bft) SW 230 0 min 0,000 mm 0,0 UV-I 0 W/m 12,1 C 9,3 C 29,0 km/h (5 Bft) 97,73 %
30.06.2017 01:20 14,6 C 24,4 C 85 % 1004,4 hPa 0,0 l/m 15,8 km/h (3 Bft) S-SW 205 0 min 0,000 mm 0,0 UV-I 0 W/m 12,1 C 10,4 C 27,4 km/h (4 Bft) 100,00 %
30.06.2017 01:22 14,6 C 24,4 C 85 % 1004,4 hPa 0,0 l/m 18,1 km/h (3 Bft) W-SW 253 0 min 0,000 mm 0,0 UV-I 0 W/m 12,1 C 9,7 C 29,0 km/h (5 Bft) 96,15 %
30.06.2017 01:24 14,6 C 24,4 C 85 % 1004,4 hPa 0,0 l/m 21,1 km/h (4 Bft) SW 230 0 min 0,000 mm 0,0 UV-I 0 W/m 12,1 C 9,0 C 29,0 km/h (5 Bft) 95,56 %
30.06.2017 01:26 14,6 C 24,4 C 85 % 1004,4 hPa 0,0 l/m 15,4 km/h (3 Bft) W-SW 256 0 min 0,000 mm 0,0 UV-I 0 W/m 12,1 C 10,6 C 20,9 km/h (4 Bft) 100,00 %
30.06.2017 01:28 14,6 C 24,4 C 86 % 1004,3 hPa 0,0 l/m 15,4 km/h (3 Bft) W-SW 253 0 min 0,000 mm 0,0 UV-I 0 W/m 12,3 C 10,6 C 25,7 km/h (4 Bft) 97,37 %
30.06.2017 01:30 14,6 C 24,4 C 86 % 1004,3 hPa 0,0 l/m 18,2 km/h (3 Bft) SW 225 0 min 0,000 mm 0,0 UV-I 0 W/m 12,3 C 9,7 C 24,1 km/h (4 Bft) 100,00 %
30.06.2017 01:32 14,5 C 24,4 C 86 % 1004,4 hPa 0,0 l/m 19,0 km/h (3 Bft) SW 231 0 min 0,000 mm 0,0 UV-I 0 W/m 12,2 C 9,4 C 29,0 km/h (5 Bft) 97,87 %
30.06.2017 01:34 14,5 C 24,4 C 86 % 1004,3 hPa 0,0 l/m 18,2 km/h (3 Bft) SW 217 0 min 0,000 mm 0,0 UV-I 0 W/m 12,2 C 9,6 C 24,1 km/h (4 Bft) 96,23 %
30.06.2017 01:36 14,4 C 24,4 C 86 % 1004,4 hPa 0,0 l/m 15,5 km/h (3 Bft) S-SW 203 0 min 0,000 mm 0,0 UV-I 0 W/m 12,1 C 10,3 C 22,5 km/h (4 Bft) 100,00 %
30.06.2017 01:38 14,4 C 24,4 C 87 % 1004,4 hPa 0,0 l/m 18,7 km/h (3 Bft) SW 231 0 min 0,000 mm 0,0 UV-I 0 W/m 12,3 C 9,3 C 27,4 km/h (4 Bft) 98,11 %
30.06.2017 01:40 14,4 C 24,4 C 87 % 1004,3 hPa 0,0 l/m 13,5 km/h (3 Bft) SW 221 0 min 0,000 mm 0,0 UV-I 0 W/m 12,3 C 11,0 C 17,7 km/h (3 Bft) 96,15 %
30.06.2017 01:42 14,3 C 24,4 C 87 % 1004,3 hPa 0,0 l/m 15,5 km/h (3 Bft) SW 223 0 min 0,000 mm 0,0 UV-I 0 W/m 12,2 C 10,2 C 22,5 km/h (4 Bft) 98,53 %
30.06.2017 01:44 14,3 C 24,4 C 88 % 1004,3 hPa 0,0 l/m 16,7 km/h (3 Bft) W-SW 253 0 min 0,000 mm 0,0 UV-I 0 W/m 12,3 C 9,8 C 25,7 km/h (4 Bft) 100,00 %
30.06.2017 01:46 14,3 C 24,4 C 88 % 1004,3 hPa 0,0 l/m 15,8 km/h (3 Bft) SW 229 0 min 0,000 mm 0,0 UV-I 0 W/m 12,3 C 10,1 C 24,1 km/h (4 Bft) 100,00 %
30.06.2017 01:48 14,3 C 24,4 C 88 % 1004,2 hPa 0,0 l/m 16,8 km/h (3 Bft) SW 220 0 min 0,000 mm 0,0 UV-I 0 W/m 12,3 C 9,8 C 24,1 km/h (4 Bft) 100,00 %
30.06.2017 01:50 14,3 C 24,4 C 88 % 1004,2 hPa 0,0 l/m 15,6 km/h (3 Bft) W-SW 238 0 min 0,000 mm 0,0 UV-I 0 W/m 12,3 C 10,1 C 22,5 km/h (4 Bft) 97,62 %
30.06.2017 01:52 14,3 C 24,4 C 88 % 1004,2 hPa 0,0 l/m 14,7 km/h (3 Bft) W-SW 239 0 min 0,000 mm 0,0 UV-I 0 W/m 12,3 C 10,4 C 22,5 km/h (4 Bft) 98,18 %
30.06.2017 01:54 14,2 C 24,4 C 88 % 1004,3 hPa 0,0 l/m 16,6 km/h (3 Bft) W-SW 237 0 min 0,000 mm 0,0 UV-I 0 W/m 12,2 C 9,7 C 24,1 km/h (4 Bft) 97,44 %
30.06.2017 01:56 14,2 C 24,4 C 88 % 1004,3 hPa 0,0 l/m 15,3 km/h (3 Bft) SW 234 0 min 0,000 mm 0,0 UV-I 0 W/m 12,2 C 10,1 C 22,5 km/h (4 Bft) 98,08 %
30.06.2017 01:58 14,2 C 24,4 C 88 % 1004,4 hPa 0,0 l/m 13,7 km/h (3 Bft) W-SW 242 0 min 0,000 mm 0,0 UV-I 0 W/m 12,2 C 10,7 C 19,3 km/h (3 Bft) 97,78 %
30.06.2017 02:00 14,2 C 24,4 C 88 % 1004,3 hPa 0,0 l/m 14,4 km/h (3 Bft) SW 236 0 min 0,026 mm 0,0 UV-I 0 W/m 12,2 C 10,4 C 20,9 km/h (4 Bft) 97,87 %
30.06.2017 02:02 14,2 C 24,4 C 88 % 1004,4 hPa 0,0 l/m 14,0 km/h (3 Bft) SW 225 0 min 0,000 mm 0,0 UV-I 0 W/m 12,2 C 10,6 C 20,9 km/h (4 Bft) 97,56 %
30.06.2017 02:04 14,2 C 24,4 C 88 % 1004,4 hPa 0,0 l/m 13,3 km/h (3 Bft) SW 229 0 min 0,000 mm 0,0 UV-I 0 W/m 12,2 C 10,8 C 22,5 km/h (4 Bft) 96,30 %
30.06.2017 02:06 14,2 C 24,4 C 88 % 1004,4 hPa 0,0 l/m 11,7 km/h (2 Bft) SW 223 0 min 0,000 mm 0,0 UV-I 0 W/m 12,2 C 11,5 C 17,7 km/h (3 Bft) 100,00 %
30.06.2017 02:08 14,2 C 24,4 C 88 % 1004,4 hPa 0,0 l/m 9,1 km/h (2 Bft) SW 236 0 min 0,000 mm 0,0 UV-I 0 W/m 12,2 C 12,7 C 16,1 km/h (3 Bft) 98,00 %
30.06.2017 02:10 14,2 C 24,4 C 88 % 1004,5 hPa 0,0 l/m 12,8 km/h (3 Bft) SW 232 0 min 0,000 mm 0,0 UV-I 0 W/m 12,2 C 11,0 C 17,7 km/h (3 Bft) 100,00 %
30.06.2017 02:12 14,2 C 24,4 C 88 % 1004,5 hPa 0,0 l/m 9,3 km/h (2 Bft) SW 214 0 min 0,000 mm 0,0 UV-I 0 W/m 12,2 C 12,6 C 14,5 km/h (3 Bft) 98,21 %
30.06.2017 02:14 14,2 C 24,4 C 88 % 1004,5 hPa 0,0 l/m 12,3 km/h (3 Bft) S-SW 211 0 min 0,000 mm 0,0 UV-I 0 W/m 12,2 C 11,2 C 17,7 km/h (3 Bft) 95,45 %
30.06.2017 02:16 14,2 C 24,4 C 88 % 1004,5 hPa 0,0 l/m 9,7 km/h (2 Bft) S 181 0 min 0,000 mm 0,0 UV-I 0 W/m 12,2 C 12,4 C 14,5 km/h (3 Bft) 100,00 %
30.06.2017 02:18 14,3 C 24,4 C 88 % 1004,5 hPa 0,0 l/m 10,2 km/h (2 Bft) S-SW 205 0 min 0,000 mm 0,0 UV-I 0 W/m 12,3 C 12,3 C 16,1 km/h (3 Bft) 98,11 %
30.06.2017 02:20 14,3 C 24,4 C 88 % 1004,5 hPa 0,0 l/m 9,8 km/h (2 Bft) S-SW 195 0 min 0,000 mm 0,0 UV-I 0 W/m 12,3 C 12,4 C 12,9 km/h (3 Bft) 98,11 %
30.06.2017 02:22 14,3 C 24,4 C 88 % 1004,5 hPa 0,0 l/m 9,4 km/h (2 Bft) SW 220 0 min 0,000 mm 0,0 UV-I 0 W/m 12,3 C 12,6 C 14,5 km/h (3 Bft) 100,00 %
30.06.2017 02:24 14,3 C 24,4 C 88 % 1004,5 hPa 0,0 l/m 7,8 km/h (2 Bft) S 178 0 min 0,000 mm 0,0 UV-I 0 W/m 12,3 C 13,5 C 12,9 km/h (3 Bft) 98,00 %
30.06.2017 02:26 14,3 C 24,4 C 88 % 1004,5 hPa 0,0 l/m 7,4 km/h (2 Bft) S 179 0 min 0,000 mm 0,0 UV-I 0 W/m 12,3 C 13,7 C 11,3 km/h (2 Bft) 100,00 %
30.06.2017 02:28 14,3 C 24,4 C 88 % 1004,5 hPa 0,0 l/m 9,7 km/h (2 Bft) S-SW 203 0 min 0,000 mm 0,0 UV-I 0 W/m 12,3 C 12,5 C 14,5 km/h (3 Bft) 97,56 %
30.06.2017 02:30 14,3 C 24,4 C 88 % 1004,5 hPa 0,0 l/m 8,6 km/h (2 Bft) SW 222 0 min 0,000 mm 0,0 UV-I 0 W/m 12,3 C 13,0 C 14,5 km/h (3 Bft) 100,00 %
30.06.2017 02:32 14,3 C 24,4 C 88 % 1004,5 hPa 0,0 l/m 8,2 km/h (2 Bft) S-SW 206 0 min 0,000 mm 0,0 UV-I 0 W/m 12,3 C 13,3 C 11,3 km/h (2 Bft) 97,78 %
30.06.2017 02:34 14,3 C 24,4 C 88 % 1004,4 hPa 0,0 l/m 8,6 km/h (2 Bft) S-SW 209 0 min 0,000 mm 0,0 UV-I 0 W/m 12,3 C 13,0 C 12,9 km/h (3 Bft) 100,00 %
30.06.2017 02:36 14,4 C 24,4 C 87 % 1004,5 hPa 0,0 l/m 5,5 km/h (1 Bft) S-SW 193 0 min 0,000 mm 0,0 UV-I 0 W/m 12,3 C 14,4 C 8,0 km/h (2 Bft) 100,00 %
30.06.2017 02:38 14,4 C 24,4 C 88 % 1004,5 hPa 0,0 l/m 5,4 km/h (1 Bft) S-SW 211 0 min 0,000 mm 0,0 UV-I 0 W/m 12,4 C 14,4 C 8,0 km/h (2 Bft) 97,87 %
30.06.2017 02:40 14,4 C 24,4 C 87 % 1004,6 hPa 0,0 l/m 5,7 km/h (1 Bft) S-SW 207 0 min 0,000 mm 0,0 UV-I 0 W/m 12,3 C 14,4 C 9,7 km/h (2 Bft) 95,74 %
30.06.2017 02:42 14,4 C 24,4 C 87 % 1004,5 hPa 0,0 l/m 4,8 km/h (1 Bft) S-SW 198 0 min 0,000 mm 0,0 UV-I 0 W/m 12,3 C 14,4 C 8,0 km/h (2 Bft) 95,83 %
30.06.2017 02:44 14,4 C 24,4 C 87 % 1004,5 hPa 0,0 l/m 5,3 km/h (1 Bft) S-SO 160 0 min 0,000 mm 0,0 UV-I 0 W/m 12,3 C 14,4 C 8,0 km/h (2 Bft) 95,45 %
30.06.2017 02:46 14,4 C 24,4 C 87 % 1004,5 hPa 0,0 l/m 3,8 km/h (1 Bft) S-SW 197 0 min 0,000 mm 0,0 UV-I 0 W/m 12,3 C 14,4 C 6,4 km/h (2 Bft) 97,56 %
30.06.2017 02:48 14,4 C 24,4 C 88 % 1004,6 hPa 0,0 l/m 5,0 km/h (1 Bft) S 180 0 min 0,000 mm 0,0 UV-I 0 W/m 12,4 C 14,4 C 11,3 km/h (2 Bft) 96,23 %
30.06.2017 02:50 14,4 C 24,4 C 87 % 1004,6 hPa 0,0 l/m 7,9 km/h (2 Bft) S-SW 193 0 min 0,000 mm 0,0 UV-I 0 W/m 12,3 C 13,5 C 11,3 km/h (2 Bft) 97,87 %
30.06.2017 02:52 14,4 C 24,4 C 87 % 1004,6 hPa 0,0 l/m 6,4 km/h (2 Bft) SW 221 0 min 0,000 mm 0,0 UV-I 0 W/m 12,3 C 14,4 C 11,3 km/h (2 Bft) 96,00 %
30.06.2017 02:54 14,4 C 24,4 C 87 % 1004,5 hPa 0,0 l/m 7,2 km/h (2 Bft) SW 223 0 min 0,000 mm 0,0 UV-I 0 W/m 12,3 C 13,9 C 12,9 km/h (3 Bft) 97,87 %
30.06.2017 02:56 14,4 C 24,4 C 87 % 1004,5 hPa 0,0 l/m 6,5 km/h (2 Bft) SW 221 0 min 0,000 mm 0,0 UV-I 0 W/m 12,3 C 14,4 C 12,9 km/h (3 Bft) 94,00 %
30.06.2017 02:58 14,4 C 24,4 C 87 % 1004,5 hPa 0,0 l/m 6,2 km/h (2 Bft) S-SW 211 0 min 0,000 mm 0,0 UV-I 0 W/m 12,3 C 14,4 C 11,3 km/h (2 Bft) 97,56 %
30.06.2017 03:00 14,4 C 24,4 C 87 % 1004,5 hPa 0,0 l/m 8,3 km/h (2 Bft) S-SW 204 0 min 0,025 mm 0,0 UV-I 0 W/m 12,3 C 13,3 C 16,1 km/h (3 Bft) 92,45 %
30.06.2017 03:02 14,4 C 24,4 C 87 % 1004,5 hPa 0,0 l/m 8,1 km/h (2 Bft) SW 236 0 min 0,000 mm 0,0 UV-I 0 W/m 12,3 C 13,4 C 11,3 km/h (2 Bft) 90,24 %
30.06.2017 03:04 14,4 C 24,4 C 87 % 1004,5 hPa 0,0 l/m 6,5 km/h (2 Bft) S-SW 208 0 min 0,000 mm 0,0 UV-I 0 W/m 12,3 C 14,4 C 12,9 km/h (3 Bft) 96,23 %
30.06.2017 03:06 14,5 C 24,4 C 87 % 1004,5 hPa 0,0 l/m 8,2 km/h (2 Bft) SW 222 0 min 0,000 mm 0,0 UV-I 0 W/m 12,4 C 13,5 C 12,9 km/h (3 Bft) 90,24 %
30.06.2017 03:08 14,5 C 24,4 C 87 % 1004,4 hPa 0,0 l/m 10,2 km/h (2 Bft) SW 221 0 min 0,000 mm 0,0 UV-I 0 W/m 12,4 C 12,5 C 19,3 km/h (3 Bft) 92,00 %
30.06.2017 03:10 14,5 C 24,4 C 87 % 1004,5 hPa 0,0 l/m 7,7 km/h (2 Bft) S-SW 213 0 min 0,000 mm 0,0 UV-I 0 W/m 12,4 C 13,7 C 12,9 km/h (3 Bft) 95,12 %
30.06.2017 03:12 14,6 C 24,4 C 87 % 1004,5 hPa 0,0 l/m 7,3 km/h (2 Bft) SW 232 0 min 0,000 mm 0,0 UV-I 0 W/m 12,5 C 14,1 C 11,3 km/h (2 Bft) 93,62 %
30.06.2017 03:14 14,5 C 24,4 C 87 % 1004,5 hPa 0,0 l/m 8,0 km/h (2 Bft) SW 234 0 min 0,000 mm 0,0 UV-I 0 W/m 12,4 C 13,6 C 12,9 km/h (3 Bft) 92,86 %
30.06.2017 03:16 14,6 C 24,4 C 86 % 1004,5 hPa 0,0 l/m 9,2 km/h (2 Bft) SW 217 0 min 0,000 mm 0,0 UV-I 0 W/m 12,3 C 13,1 C 14,5 km/h (3 Bft) 98,11 %
30.06.2017 03:18 14,6 C 24,4 C 86 % 1004,5 hPa 0,0 l/m 8,5 km/h (2 Bft) S-SW 202 0 min 0,000 mm 0,0 UV-I 0 W/m 12,3 C 13,4 C 14,5 km/h (3 Bft) 96,15 %
30.06.2017 03:20 14,6 C 24,4 C 86 % 1004,6 hPa 0,0 l/m 7,2 km/h (2 Bft) SW 220 0 min 0,000 mm 0,0 UV-I 0 W/m 12,3 C 14,1 C 12,9 km/h (3 Bft) 97,62 %
30.06.2017 03:22 14,6 C 24,4 C 86 % 1004,6 hPa 0,0 l/m 7,5 km/h (2 Bft) SW 216 0 min 0,000 mm 0,0 UV-I 0 W/m 12,3 C 14,0 C 9,7 km/h (2 Bft) 94,00 %
30.06.2017 03:24 14,6 C 24,4 C 86 % 1004,6 hPa 0,0 l/m 7,2 km/h (2 Bft) S 189 0 min 0,000 mm 0,0 UV-I 0 W/m 12,3 C 14,1 C 11,3 km/h (2 Bft) 97,73 %
30.06.2017 03:26 14,6 C 24,4 C 85 % 1004,6 hPa 0,0 l/m 7,6 km/h (2 Bft) S-SW 211 0 min 0,000 mm 0,0 UV-I 0 W/m 12,1 C 13,9 C 14,5 km/h (3 Bft) 98,00 %
30.06.2017 03:28 14,6 C 24,4 C 85 % 1004,6 hPa 0,0 l/m 9,4 km/h (2 Bft) SW 219 0 min 0,000 mm 0,0 UV-I 0 W/m 12,1 C 13,0 C 16,1 km/h (3 Bft) 96,00 %
30.06.2017 03:30 14,7 C 24,4 C 85 % 1004,6 hPa 0,0 l/m 9,8 km/h (2 Bft) S-SW 207 0 min 0,000 mm 0,0 UV-I 0 W/m 12,2 C 12,9 C 12,9 km/h (3 Bft) 97,73 %
30.06.2017 03:32 14,7 C 24,4 C 85 % 1004,6 hPa 0,0 l/m 10,3 km/h (2 Bft) S-SW 212 0 min 0,000 mm 0,0 UV-I 0 W/m 12,2 C 12,6 C 14,5 km/h (3 Bft) 97,56 %
30.06.2017 03:34 14,7 C 24,4 C 85 % 1004,6 hPa 0,0 l/m 11,3 km/h (2 Bft) SW 234 0 min 0,000 mm 0,0 UV-I 0 W/m 12,2 C 12,2 C 16,1 km/h (3 Bft) 96,43 %
30.06.2017 03:36 14,7 C 24,4 C 85 % 1004,6 hPa 0,0 l/m 11,9 km/h (2 Bft) S 186 0 min 0,000 mm 0,0 UV-I 0 W/m 12,2 C 12,0 C 16,1 km/h (3 Bft) 95,12 %
30.06.2017 03:38 14,7 C 24,4 C 84 % 1004,6 hPa 0,0 l/m 8,5 km/h (2 Bft) SW 219 0 min 0,000 mm 0,0 UV-I 0 W/m 12,0 C 13,5 C 14,5 km/h (3 Bft) 97,73 %
30.06.2017 03:40 14,7 C 24,4 C 84 % 1004,6 hPa 0,0 l/m 10,7 km/h (2 Bft) SW 229 0 min 0,000 mm 0,0 UV-I 0 W/m 12,0 C 12,5 C 19,3 km/h (3 Bft) 96,23 %
30.06.2017 03:42 14,8 C 24,4 C 84 % 1004,6 hPa 0,0 l/m 9,9 km/h (2 Bft) SW 230 0 min 0,000 mm 0,0 UV-I 0 W/m 12,1 C 12,9 C 14,5 km/h (3 Bft) 97,56 %
30.06.2017 03:44 14,8 C 24,4 C 84 % 1004,6 hPa 0,0 l/m 9,6 km/h (2 Bft) S 180 0 min 0,000 mm 0,0 UV-I 0 W/m 12,1 C 13,1 C 14,5 km/h (3 Bft) 95,45 %
30.06.2017 03:46 14,8 C 24,4 C 84 % 1004,6 hPa 0,0 l/m 8,9 km/h (2 Bft) SW 223 0 min 0,000 mm 0,0 UV-I 0 W/m 12,1 C 13,4 C 14,5 km/h (3 Bft) 96,43 %
30.06.2017 03:48 14,8 C 24,4 C 84 % 1004,6 hPa 0,0 l/m 13,1 km/h (3 Bft) SW 226 0 min 0,000 mm 0,0 UV-I 0 W/m 12,1 C 11,6 C 22,5 km/h (4 Bft) 94,74 %
30.06.2017 03:50 14,8 C 24,4 C 84 % 1004,6 hPa 0,0 l/m 8,0 km/h (2 Bft) SW 235 0 min 0,000 mm 0,0 UV-I 0 W/m 12,1 C 13,9 C 12,9 km/h (3 Bft) 94,34 %
30.06.2017 03:52 14,8 C 24,4 C 84 % 1004,6 hPa 0,0 l/m 13,4 km/h (3 Bft) SW 214 0 min 0,000 mm 0,0 UV-I 0 W/m 12,1 C 11,5 C 22,5 km/h (4 Bft) 97,44 %
30.06.2017 03:54 14,8 C 24,4 C 84 % 1004,8 hPa 0,0 l/m 14,0 km/h (3 Bft) SW 216 0 min 0,000 mm 0,0 UV-I 0 W/m 12,1 C 11,3 C 19,3 km/h (3 Bft) 96,00 %
30.06.2017 03:56 14,8 C 24,4 C 84 % 1004,8 hPa 0,0 l/m 11,7 km/h (2 Bft) W-SW 238 0 min 0,000 mm 0,0 UV-I 0 W/m 12,1 C 12,2 C 17,7 km/h (3 Bft) 98,00 %
30.06.2017 03:58 14,8 C 24,4 C 84 % 1004,8 hPa 0,0 l/m 13,4 km/h (3 Bft) SW 234 0 min 0,000 mm 0,0 UV-I 0 W/m 12,1 C 11,5 C 16,1 km/h (3 Bft) 97,73 %
30.06.2017 04:00 14,8 C 24,4 C 84 % 1004,8 hPa 0,0 l/m 10,0 km/h (2 Bft) SW 214 0 min 0,000 mm 0,0 UV-I 0 W/m 12,1 C 12,9 C 16,1 km/h (3 Bft) 98,00 %
30.06.2017 04:02 14,8 C 24,4 C 84 % 1004,8 hPa 0,0 l/m 9,9 km/h (2 Bft) W-SW 242 0 min 0,026 mm 0,0 UV-I 0 W/m 12,1 C 12,9 C 14,5 km/h (3 Bft) 97,14 %
30.06.2017 04:04 14,8 C 24,4 C 84 % 1004,9 hPa 0,0 l/m 11,0 km/h (2 Bft) W-SW 246 0 min 0,000 mm 0,0 UV-I 0 W/m 12,1 C 12,5 C 17,7 km/h (3 Bft) 97,56 %
30.06.2017 04:06 14,8 C 24,4 C 84 % 1004,9 hPa 0,0 l/m 9,4 km/h (2 Bft) W-SW 251 0 min 0,000 mm 0,0 UV-I 0 W/m 12,1 C 13,2 C 12,9 km/h (3 Bft) 100,00 %
30.06.2017 04:08 14,8 C 24,4 C 84 % 1004,8 hPa 0,0 l/m 10,4 km/h (2 Bft) S-SW 205 0 min 0,000 mm 0,0 UV-I 0 W/m 12,1 C 12,7 C 16,1 km/h (3 Bft) 98,00 %
30.06.2017 04:10 14,8 C 24,4 C 83 % 1004,8 hPa 0,0 l/m 12,2 km/h (2 Bft) SW 236 0 min 0,000 mm 0,0 UV-I 0 W/m 11,9 C 12,0 C 20,9 km/h (4 Bft) 100,00 %
30.06.2017 04:12 14,8 C 24,4 C 83 % 1004,8 hPa 0,0 l/m 13,2 km/h (3 Bft) S-SW 204 0 min 0,000 mm 0,0 UV-I 0 W/m 11,9 C 11,6 C 19,3 km/h (3 Bft) 100,00 %
30.06.2017 04:14 14,8 C 24,4 C 83 % 1004,9 hPa 0,0 l/m 12,4 km/h (3 Bft) W-SW 247 0 min 0,000 mm 0,0 UV-I 0 W/m 11,9 C 11,9 C 19,3 km/h (3 Bft) 97,56 %
30.06.2017 04:16 14,8 C 24,4 C 83 % 1004,9 hPa 0,0 l/m 14,5 km/h (3 Bft) SW 223 0 min 0,000 mm 0,0 UV-I 0 W/m 11,9 C 11,1 C 19,3 km/h (3 Bft) 95,45 %
30.06.2017 04:18 14,8 C 24,4 C 83 % 1004,8 hPa 0,0 l/m 12,6 km/h (3 Bft) W-SW 247 0 min 0,000 mm 0,0 UV-I 0 W/m 11,9 C 11,8 C 19,3 km/h (3 Bft) 100,00 %
30.06.2017 04:20 14,8 C 24,4 C 83 % 1004,8 hPa 0,0 l/m 11,8 km/h (2 Bft) SW 229 0 min 0,000 mm 0,0 UV-I 0 W/m 11,9 C 12,1 C 17,7 km/h (3 Bft) 97,37 %
30.06.2017 04:22 14,8 C 24,4 C 83 % 1004,8 hPa 0,0 l/m 13,9 km/h (3 Bft) W-SW 240 0 min 0,000 mm 0,0 UV-I 0 W/m 11,9 C 11,3 C 20,9 km/h (4 Bft) 100,00 %
30.06.2017 04:24 14,8 C 24,4 C 83 % 1004,8 hPa 0,0 l/m 14,2 km/h (3 Bft) S 190 0 min 0,000 mm 0,0 UV-I 0 W/m 11,9 C 11,2 C 19,3 km/h (3 Bft) 94,74 %
30.06.2017 04:26 14,8 C 24,4 C 82 % 1004,9 hPa 0,0 l/m 12,5 km/h (3 Bft) S-SW 206 0 min 0,000 mm 0,0 UV-I 0 W/m 11,8 C 11,8 C 20,9 km/h (4 Bft) 96,23 %
30.06.2017 04:28 14,8 C 24,4 C 82 % 1004,8 hPa 0,0 l/m 13,2 km/h (3 Bft) W-SW 243 0 min 0,000 mm 0,0 UV-I 0 W/m 11,8 C 11,6 C 20,9 km/h (4 Bft) 97,87 %
30.06.2017 04:30 14,8 C 24,4 C 82 % 1005,0 hPa 0,0 l/m 13,3 km/h (3 Bft) SW 234 0 min 0,000 mm 0,0 UV-I 0 W/m 11,8 C 11,5 C 19,3 km/h (3 Bft) 100,00 %
30.06.2017 04:32 14,8 C 24,4 C 81 % 1004,9 hPa 0,0 l/m 12,9 km/h (3 Bft) W-SW 240 0 min 0,000 mm 0,0 UV-I 0 W/m 11,6 C 11,7 C 17,7 km/h (3 Bft) 95,24 %
30.06.2017 04:34 14,8 C 24,4 C 81 % 1004,9 hPa 0,0 l/m 13,7 km/h (3 Bft) SW 227 0 min 0,000 mm 0,0 UV-I 0 W/m 11,6 C 11,4 C 24,1 km/h (4 Bft) 100,00 %
30.06.2017 04:36 14,8 C 24,4 C 81 % 1004,9 hPa 0,0 l/m 13,1 km/h (3 Bft) S-SW 195 0 min 0,000 mm 0,0 UV-I 0 W/m 11,6 C 11,6 C 20,9 km/h (4 Bft) 100,00 %
30.06.2017 04:38 14,9 C 24,4 C 81 % 1005,0 hPa 0,0 l/m 14,5 km/h (3 Bft) W-SW 244 0 min 0,000 mm 0,0 UV-I 0 W/m 11,7 C 11,2 C 22,5 km/h (4 Bft) 100,00 %
30.06.2017 04:40 14,9 C 24,4 C 80 % 1005,0 hPa 0,0 l/m 15,5 km/h (3 Bft) W-SW 241 0 min 0,000 mm 0,0 UV-I 0 W/m 11,5 C 10,9 C 22,5 km/h (4 Bft) 100,00 %
30.06.2017 04:42 14,9 C 24,4 C 80 % 1005,0 hPa 0,0 l/m 11,2 km/h (2 Bft) SW 216 0 min 0,000 mm 0,0 UV-I 0 W/m 11,5 C 12,5 C 17,7 km/h (3 Bft) 96,00 %
30.06.2017 04:44 14,9 C 24,4 C 80 % 1005,0 hPa 0,0 l/m 16,7 km/h (3 Bft) SW 215 0 min 0,000 mm 0,0 UV-I 0 W/m 11,5 C 10,5 C 27,4 km/h (4 Bft) 97,56 %
30.06.2017 04:46 15,0 C 24,4 C 79 % 1005,1 hPa 0,0 l/m 17,6 km/h (3 Bft) W-SW 240 0 min 0,000 mm 0,0 UV-I 0 W/m 11,4 C 10,4 C 24,1 km/h (4 Bft) 95,74 %
30.06.2017 04:48 15,0 C 24,4 C 79 % 1005,1 hPa 0,0 l/m 13,1 km/h (3 Bft) W-SW 244 0 min 0,000 mm 0,0 UV-I 0 W/m 11,4 C 11,9 C 19,3 km/h (3 Bft) 94,00 %
30.06.2017 04:50 15,1 C 24,4 C 79 % 1005,1 hPa 0,0 l/m 11,0 km/h (2 Bft) SW 234 0 min 0,000 mm 0,0 UV-I 0 W/m 11,5 C 12,8 C 14,5 km/h (3 Bft) 95,45 %
30.06.2017 04:52 15,1 C 24,4 C 79 % 1005,1 hPa 0,0 l/m 11,7 km/h (2 Bft) S-SW 202 0 min 0,000 mm 0,0 UV-I 0 W/m 11,5 C 12,5 C 17,7 km/h (3 Bft) 96,23 %
30.06.2017 04:54 15,1 C 24,4 C 79 % 1005,2 hPa 0,0 l/m 10,3 km/h (2 Bft) SW 217 0 min 0,000 mm 0,0 UV-I 0 W/m 11,5 C 13,1 C 16,1 km/h (3 Bft) 94,74 %
30.06.2017 04:56 15,1 C 24,4 C 79 % 1005,3 hPa 0,0 l/m 10,5 km/h (2 Bft) SW 217 0 min 0,000 mm 0,0 UV-I 0 W/m 11,5 C 13,0 C 16,1 km/h (3 Bft) 94,92 %
30.06.2017 04:58 15,1 C 24,4 C 80 % 1005,4 hPa 0,0 l/m 12,4 km/h (3 Bft) W-SW 246 0 min 0,000 mm 0,0 UV-I 0 W/m 11,7 C 12,2 C 17,7 km/h (3 Bft) 95,12 %
30.06.2017 05:00 15,0 C 24,4 C 79 % 1005,4 hPa 0,0 l/m 10,1 km/h (2 Bft) S-SW 200 0 min 0,025 mm 0,0 UV-I 0 W/m 11,4 C 13,1 C 14,5 km/h (3 Bft) 96,30 %
30.06.2017 05:02 15,0 C 24,4 C 79 % 1005,4 hPa 0,0 l/m 12,8 km/h (3 Bft) SW 233 0 min 0,000 mm 0,0 UV-I 0 W/m 11,4 C 12,0 C 20,9 km/h (4 Bft) 95,89 %
30.06.2017 05:04 15,0 C 24,4 C 79 % 1005,4 hPa 0,0 l/m 11,4 km/h (2 Bft) SW 216 0 min 0,000 mm 0,0 UV-I 0 W/m 11,4 C 12,5 C 16,1 km/h (3 Bft) 94,29 %
30.06.2017 05:06 15,0 C 24,4 C 79 % 1005,4 hPa 0,0 l/m 11,2 km/h (2 Bft) S-SO 161 0 min 0,000 mm 0,0 UV-I 0 W/m 11,4 C 12,6 C 16,1 km/h (3 Bft) 94,34 %
30.06.2017 05:08 15,0 C 24,4 C 79 % 1005,5 hPa 0,0 l/m 8,9 km/h (2 Bft) S-SW 207 0 min 0,000 mm 0,0 UV-I 0 W/m 11,4 C 13,6 C 16,1 km/h (3 Bft) 93,62 %
30.06.2017 05:10 15,0 C 24,4 C 79 % 1005,5 hPa 0,0 l/m 10,2 km/h (2 Bft) SW 236 0 min 0,000 mm 0,0 UV-I 0 W/m 11,4 C 13,0 C 14,5 km/h (3 Bft) 97,73 %
30.06.2017 05:12 15,1 C 24,4 C 79 % 1005,5 hPa 0,0 l/m 9,6 km/h (2 Bft) S-SW 207 0 min 0,000 mm 0,0 UV-I 0 W/m 11,5 C 13,4 C 16,1 km/h (3 Bft) 96,00 %
30.06.2017 05:14 15,0 C 24,4 C 79 % 1005,6 hPa 0,0 l/m 7,9 km/h (2 Bft) W-SW 240 0 min 0,000 mm 0,0 UV-I 4 W/m 11,4 C 14,2 C 11,3 km/h (2 Bft) 96,00 %
30.06.2017 05:16 15,1 C 24,4 C 79 % 1005,6 hPa 0,0 l/m 8,8 km/h (2 Bft) SW 217 0 min 0,000 mm 0,0 UV-I 5 W/m 11,5 C 13,8 C 11,3 km/h (2 Bft) 100,00 %
30.06.2017 05:18 15,1 C 24,4 C 79 % 1005,7 hPa 0,0 l/m 7,3 km/h (2 Bft) SW 220 0 min 0,000 mm 0,0 UV-I 5 W/m 11,5 C 14,6 C 12,9 km/h (3 Bft) 96,77 %
30.06.2017 05:20 15,1 C 24,4 C 79 % 1005,7 hPa 0,0 l/m 6,9 km/h (2 Bft) SW 233 0 min 0,000 mm 0,0 UV-I 5 W/m 11,5 C 14,8 C 11,3 km/h (2 Bft) 100,00 %
30.06.2017 05:23 15,1 C 24,4 C 79 % 1005,8 hPa 0,0 l/m 8,4 km/h (2 Bft) SW 229 0 min 0,000 mm 0,0 UV-I 5 W/m 11,5 C 14,0 C 12,9 km/h (3 Bft) 94,94 %
30.06.2017 05:24 15,1 C 24,4 C 79 % 1005,8 hPa 0,0 l/m 6,9 km/h (2 Bft) W-SW 240 0 min 0,000 mm 0,0 UV-I 7 W/m 11,5 C 14,8 C 8,0 km/h (2 Bft) 100,00 %
30.06.2017 05:26 15,1 C 24,4 C 79 % 1005,8 hPa 0,0 l/m 6,7 km/h (2 Bft) W-SW 246 0 min 0,000 mm 0,0 UV-I 7 W/m 11,5 C 14,9 C 12,9 km/h (3 Bft) 98,21 %
30.06.2017 05:28 15,0 C 24,4 C 79 % 1005,7 hPa 0,0 l/m 9,2 km/h (2 Bft) SW 222 0 min 0,000 mm 0,0 UV-I 9 W/m 11,4 C 13,5 C 16,1 km/h (3 Bft) 90,91 %
30.06.2017 05:30 15,0 C 24,4 C 80 % 1005,8 hPa 0,0 l/m 5,5 km/h (1 Bft) W-SW 250 0 min 0,000 mm 0,0 UV-I 9 W/m 11,6 C 15,0 C 8,0 km/h (2 Bft) 98,00 %
30.06.2017 05:32 14,9 C 24,4 C 80 % 1005,7 hPa 0,0 l/m 4,9 km/h (1 Bft) W-SW 242 0 min 0,000 mm 0,0 UV-I 12 W/m 11,5 C 14,9 C 6,4 km/h (2 Bft) 97,14 %
30.06.2017 05:34 14,9 C 24,4 C 80 % 1005,8 hPa 0,0 l/m 6,1 km/h (2 Bft) SW 229 0 min 0,000 mm 0,0 UV-I 10 W/m 11,5 C 14,9 C 8,0 km/h (2 Bft) 96,43 %
30.06.2017 05:36 14,9 C 24,4 C 80 % 1005,8 hPa 0,0 l/m 5,6 km/h (1 Bft) SW 232 0 min 0,000 mm 0,0 UV-I 9 W/m 11,5 C 14,9 C 8,0 km/h (2 Bft) 98,00 %
30.06.2017 05:38 14,9 C 24,4 C 80 % 1005,8 hPa 0,0 l/m 5,3 km/h (1 Bft) SW 227 0 min 0,000 mm 0,0 UV-I 9 W/m 11,5 C 14,9 C 8,0 km/h (2 Bft) 100,00 %
30.06.2017 05:40 14,9 C 24,4 C 81 % 1005,8 hPa 0,0 l/m 3,3 km/h (1 Bft) SW 227 0 min 0,000 mm 0,0 UV-I 9 W/m 11,7 C 14,9 C 4,8 km/h (1 Bft) 98,44 %
30.06.2017 05:42 14,8 C 24,4 C 81 % 1005,8 hPa 0,0 l/m 3,7 km/h (1 Bft) SW 227 0 min 0,000 mm 0,0 UV-I 9 W/m 11,6 C 14,8 C 4,8 km/h (1 Bft) 100,00 %
30.06.2017 05:44 14,8 C 24,4 C 81 % 1005,9 hPa 0,0 l/m 3,5 km/h (1 Bft) W-SW 237 0 min 0,000 mm 0,0 UV-I 9 W/m 11,6 C 14,8 C 4,8 km/h (1 Bft) 98,11 %
30.06.2017 05:46 14,8 C 24,4 C 81 % 1005,9 hPa 0,0 l/m 5,3 km/h (1 Bft) SW 228 0 min 0,000 mm 0,0 UV-I 9 W/m 11,6 C 14,8 C 8,0 km/h (2 Bft) 100,00 %
30.06.2017 05:48 14,8 C 24,4 C 81 % 1005,9 hPa 0,0 l/m 4,7 km/h (1 Bft) SW 236 0 min 0,000 mm 0,0 UV-I 10 W/m 11,6 C 14,8 C 6,4 km/h (2 Bft) 96,00 %
30.06.2017 05:50 14,8 C 24,4 C 81 % 1005,9 hPa 0,0 l/m 5,0 km/h (1 Bft) W-SW 257 0 min 0,000 mm 0,0 UV-I 11 W/m 11,6 C 14,8 C 9,7 km/h (2 Bft) 97,22 %
30.06.2017 05:52 14,8 C 24,4 C 81 % 1005,9 hPa 0,0 l/m 5,0 km/h (1 Bft) W-SW 241 0 min 0,000 mm 0,0 UV-I 11 W/m 11,6 C 14,8 C 8,0 km/h (2 Bft) 100,00 %
30.06.2017 05:54 14,8 C 24,4 C 82 % 1005,9 hPa 0,0 l/m 5,1 km/h (1 Bft) W-SW 241 0 min 0,000 mm 0,0 UV-I 12 W/m 11,8 C 14,8 C 8,0 km/h (2 Bft) 89,80 %
30.06.2017 05:56 14,8 C 24,4 C 82 % 1005,9 hPa 0,0 l/m 6,5 km/h (2 Bft) SW 227 0 min 0,000 mm 0,0 UV-I 13 W/m 11,8 C 14,8 C 9,7 km/h (2 Bft) 100,00 %
30.06.2017 05:58 14,7 C 24,4 C 82 % 1005,9 hPa 0,0 l/m 9,8 km/h (2 Bft) W-SW 249 0 min 0,000 mm 0,0 UV-I 14 W/m 11,7 C 12,9 C 16,1 km/h (3 Bft) 97,37 %
30.06.2017 06:00 14,7 C 24,4 C 82 % 1005,9 hPa 0,0 l/m 9,9 km/h (2 Bft) W 267 0 min 0,025 mm 0,0 UV-I 16 W/m 11,7 C 12,8 C 16,1 km/h (3 Bft) 98,21 %
30.06.2017 06:02 14,7 C 24,4 C 81 % 1005,9 hPa 0,0 l/m 9,0 km/h (2 Bft) S-SW 205 0 min 0,000 mm 0,0 UV-I 18 W/m 11,5 C 13,3 C 14,5 km/h (3 Bft) 100,00 %
30.06.2017 06:04 14,7 C 24,4 C 81 % 1005,9 hPa 0,0 l/m 9,4 km/h (2 Bft) W-SW 242 0 min 0,000 mm 0,0 UV-I 19 W/m 11,5 C 13,1 C 14,5 km/h (3 Bft) 97,56 %
30.06.2017 06:06 14,8 C 24,4 C 81 % 1005,9 hPa 0,0 l/m 9,0 km/h (2 Bft) SW 222 0 min 0,000 mm 0,0 UV-I 22 W/m 11,6 C 13,4 C 14,5 km/h (3 Bft) 98,11 %
30.06.2017 06:08 14,8 C 24,4 C 81 % 1006,0 hPa 0,0 l/m 9,9 km/h (2 Bft) SW 225 0 min 0,000 mm 0,0 UV-I 25 W/m 11,6 C 12,9 C 14,5 km/h (3 Bft) 98,00 %
30.06.2017 06:10 14,8 C 24,4 C 81 % 1006,0 hPa 0,0 l/m 9,0 km/h (2 Bft) SW 227 0 min 0,000 mm 0,0 UV-I 25 W/m 11,6 C 13,4 C 16,1 km/h (3 Bft) 100,00 %
30.06.2017 06:13 14,8 C 24,4 C 81 % 1006,1 hPa 0,0 l/m 9,4 km/h (2 Bft) SW 231 0 min 0,000 mm 0,0 UV-I 28 W/m 11,6 C 13,2 C 14,5 km/h (3 Bft) 98,53 %
30.06.2017 06:14 14,8 C 24,4 C 81 % 1006,1 hPa 0,0 l/m 11,3 km/h (2 Bft) SW 227 0 min 0,000 mm 0,0 UV-I 30 W/m 11,6 C 12,3 C 16,1 km/h (3 Bft) 92,31 %
30.06.2017 06:16 14,8 C 24,4 C 81 % 1006,1 hPa 0,0 l/m 14,0 km/h (3 Bft) SW 220 0 min 0,000 mm 0,0 UV-I 29 W/m 11,6 C 11,3 C 17,7 km/h (3 Bft) 100,00 %
30.06.2017 06:18 14,8 C 24,4 C 81 % 1006,1 hPa 0,0 l/m 12,1 km/h (2 Bft) SW 217 0 min 0,000 mm 0,0 UV-I 26 W/m 11,6 C 12,0 C 20,9 km/h (4 Bft) 100,00 %
30.06.2017 06:20 14,8 C 24,4 C 81 % 1006,1 hPa 0,0 l/m 12,1 km/h (2 Bft) W-SW 257 0 min 0,000 mm 0,0 UV-I 27 W/m 11,6 C 12,0 C 16,1 km/h (3 Bft) 100,00 %
30.06.2017 06:22 14,8 C 24,4 C 81 % 1006,1 hPa 0,0 l/m 11,3 km/h (2 Bft) SW 219 0 min 0,000 mm 0,0 UV-I 28 W/m 11,6 C 12,3 C 14,5 km/h (3 Bft) 97,22 %
30.06.2017 06:24 14,8 C 24,4 C 81 % 1006,2 hPa 0,0 l/m 11,7 km/h (2 Bft) S-SW 211 0 min 0,000 mm 0,0 UV-I 28 W/m 11,6 C 12,2 C 16,1 km/h (3 Bft) 98,18 %
30.06.2017 06:26 14,8 C 24,4 C 82 % 1006,2 hPa 0,0 l/m 10,9 km/h (2 Bft) W 259 0 min 0,000 mm 0,0 UV-I 28 W/m 11,8 C 12,5 C 16,1 km/h (3 Bft) 100,00 %
30.06.2017 06:28 14,8 C 24,4 C 82 % 1006,1 hPa 0,0 l/m 11,5 km/h (2 Bft) SW 229 0 min 0,000 mm 0,0 UV-I 30 W/m 11,8 C 12,2 C 16,1 km/h (3 Bft) 97,44 %
30.06.2017 06:30 14,8 C 24,4 C 81 % 1006,1 hPa 0,0 l/m 11,0 km/h (2 Bft) W-SW 237 0 min 0,000 mm 0,0 UV-I 33 W/m 11,6 C 12,5 C 16,1 km/h (3 Bft) 100,00 %
30.06.2017 06:32 14,8 C 24,4 C 81 % 1006,1 hPa 0,0 l/m 9,0 km/h (2 Bft) SW 232 0 min 0,000 mm 0,0 UV-I 35 W/m 11,6 C 13,4 C 14,5 km/h (3 Bft) 96,15 %
30.06.2017 06:34 14,8 C 24,4 C 81 % 1006,1 hPa 0,0 l/m 11,4 km/h (2 Bft) SW 232 0 min 0,000 mm 0,0 UV-I 38 W/m 11,6 C 12,3 C 17,7 km/h (3 Bft) 91,67 %
30.06.2017 06:36 14,8 C 24,4 C 81 % 1006,2 hPa 0,0 l/m 8,6 km/h (2 Bft) SW 228 0 min 0,000 mm 0,0 UV-I 40 W/m 11,6 C 13,6 C 17,7 km/h (3 Bft) 94,64 %
30.06.2017 06:38 14,8 C 24,4 C 81 % 1006,2 hPa 0,0 l/m 9,2 km/h (2 Bft) W-SW 243 0 min 0,000 mm 0,0 UV-I 40 W/m 11,6 C 13,3 C 14,5 km/h (3 Bft) 92,68 %
30.06.2017 06:40 14,8 C 24,4 C 81 % 1006,2 hPa 0,0 l/m 9,5 km/h (2 Bft) W-SW 252 0 min 0,000 mm 0,0 UV-I 41 W/m 11,6 C 13,1 C 14,5 km/h (3 Bft) 94,34 %
30.06.2017 06:42 14,8 C 24,4 C 81 % 1006,2 hPa 0,0 l/m 9,5 km/h (2 Bft) S-SW 207 0 min 0,000 mm 0,0 UV-I 43 W/m 11,6 C 13,1 C 16,1 km/h (3 Bft) 96,08 %
30.06.2017 06:44 14,8 C 24,4 C 81 % 1006,2 hPa 0,0 l/m 11,1 km/h (2 Bft) W-SW 244 0 min 0,000 mm 0,0 UV-I 46 W/m 11,6 C 12,4 C 16,1 km/h (3 Bft) 97,37 %
30.06.2017 06:46 14,8 C 24,4 C 81 % 1006,2 hPa 0,0 l/m 10,6 km/h (2 Bft) S 189 0 min 0,000 mm 0,0 UV-I 48 W/m 11,6 C 12,6 C 14,5 km/h (3 Bft) 94,00 %
30.06.2017 06:48 14,8 C 24,4 C 81 % 1006,2 hPa 0,0 l/m 11,4 km/h (2 Bft) W-SW 253 0 min 0,000 mm 0,0 UV-I 51 W/m 11,6 C 12,3 C 16,1 km/h (3 Bft) 92,11 %
30.06.2017 06:50 14,9 C 24,4 C 81 % 1006,2 hPa 0,0 l/m 11,6 km/h (2 Bft) SW 223 0 min 0,000 mm 0,0 UV-I 53 W/m 11,7 C 12,3 C 19,3 km/h (3 Bft) 92,86 %
30.06.2017 06:52 14,9 C 24,4 C 80 % 1006,2 hPa 0,0 l/m 11,8 km/h (2 Bft) W-SW 248 0 min 0,000 mm 0,0 UV-I 53 W/m 11,5 C 12,2 C 19,3 km/h (3 Bft) 89,47 %
30.06.2017 06:54 14,9 C 24,4 C 80 % 1006,2 hPa 0,0 l/m 10,0 km/h (2 Bft) S-SW 212 0 min 0,000 mm 0,0 UV-I 54 W/m 11,5 C 13,0 C 14,5 km/h (3 Bft) 95,12 %
30.06.2017 06:56 14,9 C 24,4 C 80 % 1006,2 hPa 0,0 l/m 11,4 km/h (2 Bft) S-SW 204 0 min 0,000 mm 0,0 UV-I 55 W/m 11,5 C 12,4 C 16,1 km/h (3 Bft) 96,43 %
30.06.2017 06:58 14,9 C 24,4 C 80 % 1006,3 hPa 0,0 l/m 11,0 km/h (2 Bft) W-SW 242 0 min 0,000 mm 0,0 UV-I 54 W/m 11,5 C 12,6 C 16,1 km/h (3 Bft) 92,45 %
30.06.2017 07:00 14,9 C 24,4 C 80 % 1006,3 hPa 0,0 l/m 9,4 km/h (2 Bft) SW 224 0 min 0,051 mm 0,0 UV-I 47 W/m 11,5 C 13,3 C 16,1 km/h (3 Bft) 88,00 %
30.06.2017 07:02 15,0 C 24,4 C 79 % 1006,4 hPa 0,0 l/m 11,9 km/h (2 Bft) S 177 0 min 0,000 mm 0,0 UV-I 42 W/m 11,4 C 12,3 C 17,7 km/h (3 Bft) 95,83 %
30.06.2017 07:04 15,0 C 24,4 C 78 % 1006,4 hPa 0,0 l/m 10,3 km/h (2 Bft) W-SW 245 0 min 0,000 mm 0,0 UV-I 40 W/m 11,2 C 13,0 C 16,1 km/h (3 Bft) 90,00 %
30.06.2017 07:06 15,1 C 24,4 C 78 % 1006,4 hPa 0,0 l/m 12,5 km/h (3 Bft) W-SW 237 0 min 0,000 mm 0,0 UV-I 43 W/m 11,3 C 12,2 C 19,3 km/h (3 Bft) 90,24 %
30.06.2017 07:08 15,1 C 24,4 C 78 % 1006,4 hPa 0,0 l/m 11,2 km/h (2 Bft) SW 222 0 min 0,000 mm 0,0 UV-I 48 W/m 11,3 C 12,7 C 17,7 km/h (3 Bft) 95,24 %
30.06.2017 07:10 15,1 C 24,4 C 78 % 1006,5 hPa 0,0 l/m 12,9 km/h (3 Bft) W-SW 248 0 min 0,000 mm 0,0 UV-I 49 W/m 11,3 C 12,0 C 20,9 km/h (4 Bft) 94,55 %
30.06.2017 07:12 15,1 C 24,4 C 77 % 1006,4 hPa 0,0 l/m 13,0 km/h (3 Bft) SW 236 0 min 0,000 mm 0,0 UV-I 51 W/m 11,1 C 12,0 C 22,5 km/h (4 Bft) 94,87 %
30.06.2017 07:14 15,1 C 24,4 C 77 % 1006,4 hPa 0,2 l/m 14,6 km/h (3 Bft) SW 234 0 min 0,000 mm 0,0 UV-I 59 W/m 11,1 C 11,4 C 25,7 km/h (4 Bft) 94,00 %
30.06.2017 07:16 15,1 C 24,4 C 76 % 1006,4 hPa 0,0 l/m 16,2 km/h (3 Bft) S-SW 212 0 min 0,000 mm 0,0 UV-I 62 W/m 10,9 C 10,9 C 22,5 km/h (4 Bft) 94,34 %
30.06.2017 07:18 15,1 C 24,4 C 76 % 1006,5 hPa 0,0 l/m 14,4 km/h (3 Bft) SW 221 0 min 0,000 mm 0,0 UV-I 63 W/m 10,9 C 11,5 C 20,9 km/h (4 Bft) 100,00 %
30.06.2017 07:20 15,1 C 24,4 C 75 % 1006,5 hPa 0,0 l/m 12,2 km/h (2 Bft) SW 221 0 min 0,000 mm 0,0 UV-I 64 W/m 10,7 C 12,3 C 20,9 km/h (4 Bft) 95,12 %
30.06.2017 07:22 15,1 C 24,4 C 75 % 1006,7 hPa 0,0 l/m 16,6 km/h (3 Bft) S-SW 199 0 min 0,000 mm 0,0 UV-I 68 W/m 10,7 C 10,8 C 22,5 km/h (4 Bft) 93,62 %
30.06.2017 07:24 15,2 C 24,4 C 74 % 1006,7 hPa 0,0 l/m 16,3 km/h (3 Bft) W-SW 254 0 min 0,000 mm 0,0 UV-I 66 W/m 10,6 C 11,0 C 24,1 km/h (4 Bft) 92,45 %
30.06.2017 07:26 15,2 C 24,4 C 75 % 1006,8 hPa 0,0 l/m 12,8 km/h (3 Bft) SW 215 0 min 0,000 mm 0,0 UV-I 69 W/m 10,8 C 12,2 C 20,9 km/h (4 Bft) 95,74 %
30.06.2017 07:28 15,2 C 24,4 C 75 % 1006,9 hPa 0,0 l/m 12,8 km/h (3 Bft) S 184 0 min 0,000 mm 0,0 UV-I 73 W/m 10,8 C 12,2 C 20,9 km/h (4 Bft) 92,68 %
30.06.2017 07:30 15,2 C 24,4 C 75 % 1007,0 hPa 0,0 l/m 13,2 km/h (3 Bft) S-SW 205 0 min 0,000 mm 0,0 UV-I 75 W/m 10,8 C 12,1 C 22,5 km/h (4 Bft) 96,61 %
30.06.2017 07:32 15,2 C 24,4 C 75 % 1006,9 hPa 0,0 l/m 12,3 km/h (3 Bft) W-SW 248 0 min 0,000 mm 0,0 UV-I 92 W/m 10,8 C 12,4 C 24,1 km/h (4 Bft) 97,37 %
30.06.2017 07:34 15,3 C 24,4 C 74 % 1006,9 hPa 0,0 l/m 12,6 km/h (3 Bft) S-SW 194 0 min 0,000 mm 0,0 UV-I 116 W/m 10,7 C 12,4 C 19,3 km/h (3 Bft) 94,34 %
30.06.2017 07:36 15,3 C 24,4 C 75 % 1007,0 hPa 0,0 l/m 12,0 km/h (2 Bft) W-SW 246 0 min 0,000 mm 0,0 UV-I 140 W/m 10,9 C 12,6 C 19,3 km/h (3 Bft) 92,68 %
30.06.2017 07:38 15,3 C 24,4 C 75 % 1007,0 hPa 0,0 l/m 14,0 km/h (3 Bft) W-SW 244 0 min 0,000 mm 0,0 UV-I 175 W/m 10,9 C 11,9 C 19,3 km/h (3 Bft) 96,23 %
30.06.2017 07:40 15,4 C 24,4 C 76 % 1006,9 hPa 0,0 l/m 11,9 km/h (2 Bft) SW 217 2 min 0,000 mm 0,5 UV-I 207 W/m 11,2 C 12,8 C 20,9 km/h (4 Bft) 97,37 %
30.06.2017 07:42 15,4 C 24,4 C 75 % 1006,8 hPa 0,0 l/m 13,2 km/h (3 Bft) SW 227 2 min 0,000 mm 0,6 UV-I 296 W/m 11,0 C 12,3 C 19,3 km/h (3 Bft) 94,64 %
30.06.2017 07:44 15,6 C 24,4 C 74 % 1006,7 hPa 0,0 l/m 11,9 km/h (2 Bft) S-SW 207 2 min 0,000 mm 0,6 UV-I 326 W/m 11,0 C 13,0 C 17,7 km/h (3 Bft) 97,37 %
30.06.2017 07:46 15,8 C 24,4 C 73 % 1006,7 hPa 0,0 l/m 12,8 km/h (3 Bft) W-SW 238 2 min 0,000 mm 0,7 UV-I 304 W/m 11,0 C 12,9 C 19,3 km/h (3 Bft) 100,00 %
30.06.2017 07:48 15,9 C 24,4 C 73 % 1006,7 hPa 0,0 l/m 13,2 km/h (3 Bft) W-SW 253 2 min 0,000 mm 0,8 UV-I 410 W/m 11,1 C 12,9 C 20,9 km/h (4 Bft) 100,00 %
30.06.2017 07:50 16,1 C 24,4 C 72 % 1006,8 hPa 0,0 l/m 15,9 km/h (3 Bft) S-SW 196 2 min 0,000 mm 0,8 UV-I 439 W/m 11,0 C 12,3 C 22,5 km/h (4 Bft) 100,00 %
30.06.2017 07:52 16,2 C 24,4 C 72 % 1006,8 hPa 0,0 l/m 11,0 km/h (2 Bft) W-SW 254 2 min 0,000 mm 0,8 UV-I 423 W/m 11,1 C 14,0 C 17,7 km/h (3 Bft) 100,00 %
30.06.2017 07:54 16,3 C 24,4 C 72 % 1006,8 hPa 0,0 l/m 11,3 km/h (2 Bft) S 186 2 min 0,000 mm 0,9 UV-I 409 W/m 11,2 C 14,0 C 17,7 km/h (3 Bft) 100,00 %
30.06.2017 07:56 16,5 C 24,4 C 72 % 1006,8 hPa 0,0 l/m 8,2 km/h (2 Bft) SW 215 2 min 0,000 mm 0,9 UV-I 395 W/m 11,4 C 15,6 C 14,5 km/h (3 Bft) 92,86 %
30.06.2017 07:58 16,7 C 24,4 C 72 % 1006,9 hPa 0,0 l/m 6,9 km/h (2 Bft) S-SW 213 2 min 0,000 mm 0,9 UV-I 392 W/m 11,6 C 16,4 C 14,5 km/h (3 Bft) 100,00 %
30.06.2017 08:00 16,8 C 24,4 C 70 % 1007,0 hPa 0,0 l/m 11,1 km/h (2 Bft) SW 224 2 min 0,127 mm 0,8 UV-I 367 W/m 11,3 C 14,7 C 17,7 km/h (3 Bft) 100,00 %
30.06.2017 08:02 16,7 C 24,4 C 70 % 1007,0 hPa 0,0 l/m 11,9 km/h (2 Bft) SW 226 0 min 0,000 mm 0,8 UV-I 160 W/m 11,2 C 14,3 C 22,5 km/h (4 Bft) 94,00 %
30.06.2017 08:04 16,6 C 24,4 C 70 % 1007,0 hPa 0,0 l/m 7,7 km/h (2 Bft) S 175 0 min 0,000 mm 0,8 UV-I 162 W/m 11,1 C 15,9 C 14,5 km/h (3 Bft) 100,00 %
30.06.2017 08:06 16,4 C 24,4 C 70 % 1007,0 hPa 0,0 l/m 10,6 km/h (2 Bft) SW 231 0 min 0,000 mm 0,8 UV-I 166 W/m 10,9 C 14,4 C 19,3 km/h (3 Bft) 100,00 %
30.06.2017 08:08 16,4 C 24,4 C 71 % 1007,1 hPa 0,0 l/m 11,5 km/h (2 Bft) SW 232 0 min 0,000 mm 0,9 UV-I 219 W/m 11,1 C 14,1 C 19,3 km/h (3 Bft) 97,18 %
30.06.2017 08:10 16,4 C 24,4 C 70 % 1007,1 hPa 0,0 l/m 14,8 km/h (3 Bft) W-SW 245 0 min 0,000 mm 1,0 UV-I 231 W/m 10,9 C 12,9 C 19,3 km/h (3 Bft) 97,87 %
30.06.2017 08:12 16,5 C 24,4 C 70 % 1007,1 hPa 0,0 l/m 13,5 km/h (3 Bft) S 173 0 min 0,000 mm 1,0 UV-I 236 W/m 11,0 C 13,5 C 22,5 km/h (4 Bft) 93,62 %
30.06.2017 08:14 16,6 C 24,4 C 70 % 1007,1 hPa 0,0 l/m 9,3 km/h (2 Bft) S-SW 205 0 min 0,000 mm 0,9 UV-I 223 W/m 11,1 C 15,2 C 14,5 km/h (3 Bft) 97,56 %
30.06.2017 08:16 16,7 C 24,4 C 69 % 1007,1 hPa 0,0 l/m 7,8 km/h (2 Bft) S-SO 155 0 min 0,000 mm 0,9 UV-I 248 W/m 11,0 C 16,0 C 12,9 km/h (3 Bft) 100,00 %
30.06.2017 08:18 16,7 C 24,4 C 69 % 1007,1 hPa 0,0 l/m 7,1 km/h (2 Bft) S 171 2 min 0,000 mm 0,9 UV-I 260 W/m 11,0 C 16,3 C 11,3 km/h (2 Bft) 94,00 %
30.06.2017 08:20 16,8 C 24,4 C 69 % 1007,1 hPa 0,0 l/m 8,3 km/h (2 Bft) S-SO 168 2 min 0,000 mm 0,9 UV-I 269 W/m 11,1 C 15,8 C 12,9 km/h (3 Bft) 95,12 %
30.06.2017 08:22 16,9 C 24,4 C 68 % 1007,1 hPa 0,0 l/m 12,3 km/h (3 Bft) S-SW 209 2 min 0,000 mm 1,0 UV-I 295 W/m 11,0 C 14,4 C 22,5 km/h (4 Bft) 98,00 %
30.06.2017 08:24 17,0 C 24,4 C 68 % 1007,1 hPa 0,0 l/m 12,3 km/h (3 Bft) W-SW 248 2 min 0,000 mm 1,0 UV-I 285 W/m 11,0 C 14,5 C 25,7 km/h (4 Bft) 100,00 %
30.06.2017 08:26 17,1 C 24,4 C 67 % 1007,1 hPa 0,0 l/m 13,7 km/h (3 Bft) SW 217 2 min 0,000 mm 1,2 UV-I 300 W/m 10,9 C 14,1 C 20,9 km/h (4 Bft) 100,00 %
30.06.2017 08:28 17,3 C 24,4 C 67 % 1007,1 hPa 0,0 l/m 11,4 km/h (2 Bft) S 190 2 min 0,000 mm 1,3 UV-I 533 W/m 11,1 C 15,1 C 19,3 km/h (3 Bft) 94,00 %
30.06.2017 08:30 17,4 C 24,4 C 67 % 1007,1 hPa 0,0 l/m 8,6 km/h (2 Bft) S-SW 200 2 min 0,000 mm 1,3 UV-I 390 W/m 11,2 C 16,4 C 12,9 km/h (3 Bft) 98,08 %
30.06.2017 08:32 17,7 C 24,4 C 65 % 1007,3 hPa 0,0 l/m 22,4 km/h (4 Bft) SW 216 2 min 0,000 mm 1,4 UV-I 492 W/m 11,0 C 12,7 C 32,2 km/h (5 Bft) 97,73 %
30.06.2017 08:34 17,8 C 24,4 C 63 % 1007,2 hPa 0,0 l/m 16,1 km/h (3 Bft) S-SW 213 2 min 0,000 mm 1,4 UV-I 504 W/m 10,7 C 14,3 C 27,4 km/h (4 Bft) 97,87 %
30.06.2017 08:36 17,9 C 24,4 C 63 % 1007,2 hPa 0,0 l/m 15,2 km/h (3 Bft) SW 236 2 min 0,000 mm 1,4 UV-I 504 W/m 10,8 C 14,7 C 20,9 km/h (4 Bft) 100,00 %
30.06.2017 08:38 18,1 C 24,4 C 62 % 1007,2 hPa 0,0 l/m 17,7 km/h (3 Bft) S-SW 211 2 min 0,000 mm 1,5 UV-I 526 W/m 10,7 C 14,3 C 27,4 km/h (4 Bft) 98,11 %
30.06.2017 08:40 18,2 C 24,4 C 62 % 1007,2 hPa 0,0 l/m 19,9 km/h (4 Bft) W-SW 239 2 min 0,000 mm 1,5 UV-I 536 W/m 10,8 C 13,9 C 32,2 km/h (5 Bft) 97,56 %
30.06.2017 08:42 18,1 C 24,4 C 61 % 1007,1 hPa 0,0 l/m 19,0 km/h (3 Bft) S-SW 209 2 min 0,000 mm 1,5 UV-I 502 W/m 10,5 C 14,0 C 33,8 km/h (5 Bft) 97,73 %
30.06.2017 08:44 18,1 C 24,4 C 61 % 1007,1 hPa 0,0 l/m 19,8 km/h (3 Bft) S-SW 192 2 min 0,000 mm 1,6 UV-I 522 W/m 10,5 C 13,8 C 27,4 km/h (4 Bft) 98,11 %
30.06.2017 08:46 18,2 C 24,4 C 62 % 1007,1 hPa 0,0 l/m 13,4 km/h (3 Bft) SW 221 2 min 0,000 mm 1,6 UV-I 489 W/m 10,8 C 15,5 C 20,9 km/h (4 Bft) 94,00 %
30.06.2017 08:48 18,2 C 24,4 C 63 % 1007,2 hPa 0,0 l/m 16,7 km/h (3 Bft) W-SW 248 2 min 0,000 mm 1,4 UV-I 433 W/m 11,0 C 14,6 C 24,1 km/h (4 Bft) 97,56 %
30.06.2017 08:50 18,0 C 24,4 C 62 % 1007,3 hPa 0,0 l/m 16,1 km/h (3 Bft) SW 220 0 min 0,000 mm 1,3 UV-I 270 W/m 10,6 C 14,5 C 24,1 km/h (4 Bft) 96,00 %
30.06.2017 08:52 17,8 C 24,4 C 62 % 1007,4 hPa 0,0 l/m 16,9 km/h (3 Bft) SW 217 0 min 0,000 mm 1,3 UV-I 232 W/m 10,4 C 14,1 C 25,7 km/h (4 Bft) 96,00 %
30.06.2017 08:54 17,7 C 24,4 C 62 % 1007,4 hPa 0,0 l/m 21,1 km/h (4 Bft) SW 230 0 min 0,000 mm 1,4 UV-I 262 W/m 10,3 C 13,0 C 29,0 km/h (5 Bft) 97,56 %
30.06.2017 08:56 17,8 C 24,4 C 62 % 1007,4 hPa 0,0 l/m 17,0 km/h (3 Bft) SW 229 0 min 0,000 mm 1,9 UV-I 250 W/m 10,4 C 14,1 C 25,7 km/h (4 Bft) 95,45 %
30.06.2017 08:58 17,9 C 24,4 C 61 % 1007,3 hPa 0,0 l/m 16,7 km/h (3 Bft) SW 219 2 min 0,000 mm 2,0 UV-I 605 W/m 10,3 C 14,3 C 24,1 km/h (4 Bft) 98,11 %
30.06.2017 09:00 18,3 C 24,4 C 61 % 1007,3 hPa 0,0 l/m 14,4 km/h (3 Bft) SW 225 2 min 0,280 mm 2,1 UV-I 707 W/m 10,6 C 15,4 C 22,5 km/h (4 Bft) 92,00 %
30.06.2017 09:02 18,6 C 24,4 C 61 % 1007,2 hPa 0,0 l/m 13,0 km/h (3 Bft) W-SW 243 2 min 0,000 mm 2,1 UV-I 679 W/m 10,9 C 16,1 C 22,5 km/h (4 Bft) 96,30 %
30.06.2017 09:04 18,8 C 24,4 C 59 % 1007,2 hPa 0,0 l/m 15,9 km/h (3 Bft) SW 233 2 min 0,000 mm 2,0 UV-I 604 W/m 10,6 C 15,6 C 22,5 km/h (4 Bft) 96,23 %
30.06.2017 09:06 18,9 C 24,4 C 59 % 1007,2 hPa 0,0 l/m 16,0 km/h (3 Bft) S-SW 211 2 min 0,000 mm 2,1 UV-I 610 W/m 10,7 C 15,7 C 24,1 km/h (4 Bft) 94,83 %
30.06.2017 09:08 19,0 C 24,4 C 59 % 1007,3 hPa 0,0 l/m 18,7 km/h (3 Bft) SW 236 2 min 0,000 mm 2,2 UV-I 673 W/m 10,8 C 15,2 C 27,4 km/h (4 Bft) 97,73 %
30.06.2017 09:10 19,0 C 24,4 C 59 % 1007,4 hPa 0,0 l/m 18,9 km/h (3 Bft) SW 224 2 min 0,000 mm 2,4 UV-I 726 W/m 10,8 C 15,1 C 29,0 km/h (5 Bft) 96,00 %
30.06.2017 09:12 19,0 C 24,4 C 58 % 1007,4 hPa 0,0 l/m 18,3 km/h (3 Bft) SW 220 2 min 0,000 mm 2,4 UV-I 698 W/m 10,5 C 15,3 C 27,4 km/h (4 Bft) 97,44 %
30.06.2017 09:14 19,1 C 24,4 C 58 % 1007,3 hPa 0,0 l/m 18,3 km/h (3 Bft) SW 227 2 min 0,000 mm 2,2 UV-I 668 W/m 10,6 C 15,4 C 25,7 km/h (4 Bft) 98,21 %
30.06.2017 09:16 19,1 C 24,4 C 58 % 1007,3 hPa 0,0 l/m 16,3 km/h (3 Bft) W-SW 238 2 min 0,000 mm 2,3 UV-I 649 W/m 10,6 C 15,8 C 25,7 km/h (4 Bft) 95,45 %
30.06.2017 09:18 19,1 C 24,4 C 58 % 1007,4 hPa 0,0 l/m 19,1 km/h (3 Bft) W-SW 249 2 min 0,000 mm 2,1 UV-I 598 W/m 10,6 C 15,2 C 27,4 km/h (4 Bft) 100,00 %
30.06.2017 09:20 19,0 C 24,4 C 57 % 1007,4 hPa 0,0 l/m 20,2 km/h (4 Bft) SW 225 2 min 0,000 mm 2,1 UV-I 532 W/m 10,3 C 14,9 C 30,6 km/h (5 Bft) 97,73 %
30.06.2017 09:22 18,9 C 24,4 C 57 % 1007,4 hPa 0,0 l/m 20,4 km/h (4 Bft) W-SW 256 2 min 0,000 mm 1,9 UV-I 474 W/m 10,2 C 14,7 C 33,8 km/h (5 Bft) 100,00 %
30.06.2017 09:24 18,8 C 24,4 C 58 % 1007,5 hPa 0,0 l/m 18,7 km/h (3 Bft) SW 217 2 min 0,000 mm 2,5 UV-I 613 W/m 10,4 C 14,9 C 29,0 km/h (5 Bft) 98,11 %
30.06.2017 09:26 18,8 C 24,4 C 58 % 1007,4 hPa 0,0 l/m 16,4 km/h (3 Bft) W-SW 254 2 min 0,000 mm 2,5 UV-I 654 W/m 10,4 C 15,4 C 25,7 km/h (4 Bft) 100,00 %
30.06.2017 09:28 19,1 C 24,4 C 59 % 1007,4 hPa 0,0 l/m 13,8 km/h (3 Bft) W-SW 254 2 min 0,000 mm 2,6 UV-I 659 W/m 10,9 C 16,5 C 22,5 km/h (4 Bft) 100,00 %
30.06.2017 09:30 19,2 C 24,4 C 58 % 1007,4 hPa 0,0 l/m 19,7 km/h (3 Bft) W 271 2 min 0,000 mm 2,7 UV-I 682 W/m 10,7 C 15,2 C 27,4 km/h (4 Bft) 100,00 %
30.06.2017 09:32 19,3 C 24,4 C 57 % 1007,3 hPa 0,0 l/m 11,9 km/h (2 Bft) SW 229 2 min 0,000 mm 2,7 UV-I 701 W/m 10,6 C 17,3 C 20,9 km/h (4 Bft) 96,43 %
30.06.2017 09:34 19,4 C 24,4 C 56 % 1007,4 hPa 0,0 l/m 13,8 km/h (3 Bft) S-SW 213 2 min 0,000 mm 2,8 UV-I 710 W/m 10,4 C 16,8 C 20,9 km/h (4 Bft) 97,73 %
30.06.2017 09:36 19,4 C 24,4 C 55 % 1007,4 hPa 0,0 l/m 13,2 km/h (3 Bft) SW 216 2 min 0,000 mm 2,4 UV-I 670 W/m 10,1 C 17,0 C 24,1 km/h (4 Bft) 92,59 %
30.06.2017 09:38 19,3 C 24,4 C 56 % 1007,4 hPa 0,0 l/m 20,9 km/h (4 Bft) SW 225 2 min 0,000 mm 2,4 UV-I 670 W/m 10,3 C 15,1 C 27,4 km/h (4 Bft) 98,28 %
30.06.2017 09:40 19,2 C 24,4 C 56 % 1007,4 hPa 0,0 l/m 17,1 km/h (3 Bft) S-SW 200 2 min 0,000 mm 2,9 UV-I 746 W/m 10,2 C 15,8 C 27,4 km/h (4 Bft) 94,00 %
30.06.2017 09:42 19,3 C 24,4 C 56 % 1007,5 hPa 0,0 l/m 17,9 km/h (3 Bft) SW 215 2 min 0,000 mm 2,9 UV-I 877 W/m 10,3 C 15,7 C 32,2 km/h (5 Bft) 100,00 %
30.06.2017 09:44 19,5 C 24,4 C 55 % 1007,5 hPa 0,0 l/m 16,8 km/h (3 Bft) SW 216 2 min 0,000 mm 3,3 UV-I 870 W/m 10,2 C 16,2 C 25,7 km/h (4 Bft) 100,00 %
30.06.2017 09:46 19,8 C 24,4 C 57 % 1007,5 hPa 0,0 l/m 15,1 km/h (3 Bft) W 269 2 min 0,000 mm 3,5 UV-I 912 W/m 11,0 C 17,0 C 22,5 km/h (4 Bft) 95,24 %
30.06.2017 09:48 20,1 C 24,4 C 55 % 1007,6 hPa 0,0 l/m 14,1 km/h (3 Bft) W-SW 238 2 min 0,000 mm 2,9 UV-I 707 W/m 10,8 C 17,6 C 20,9 km/h (4 Bft) 98,08 %
30.06.2017 09:50 20,1 C 24,4 C 53 % 1007,5 hPa 0,0 l/m 21,2 km/h (4 Bft) W-SW 249 2 min 0,000 mm 2,9 UV-I 837 W/m 10,2 C 16,1 C 33,8 km/h (5 Bft) 97,78 %
30.06.2017 09:52 19,9 C 24,4 C 55 % 1007,4 hPa 0,0 l/m 13,5 km/h (3 Bft) SW 231 2 min 0,000 mm 2,3 UV-I 643 W/m 10,6 C 17,5 C 20,9 km/h (4 Bft) 100,00 %
30.06.2017 09:54 19,8 C 24,4 C 54 % 1007,4 hPa 0,0 l/m 13,7 km/h (3 Bft) SW 226 2 min 0,000 mm 2,2 UV-I 441 W/m 10,2 C 17,3 C 19,3 km/h (3 Bft) 100,00 %
30.06.2017 09:56 19,6 C 24,4 C 55 % 1007,2 hPa 0,0 l/m 14,0 km/h (3 Bft) W 267 2 min 0,000 mm 2,2 UV-I 436 W/m 10,3 C 17,0 C 22,5 km/h (4 Bft) 100,00 %
30.06.2017 09:58 19,4 C 24,4 C 55 % 1007,2 hPa 0,0 l/m 14,3 km/h (3 Bft) W 271 2 min 0,000 mm 2,2 UV-I 425 W/m 10,1 C 16,7 C 20,9 km/h (4 Bft) 96,55 %
30.06.2017 10:00 19,2 C 24,4 C 55 % 1007,1 hPa 0,0 l/m 14,8 km/h (3 Bft) W-SW 246 2 min 0,457 mm 2,0 UV-I 396 W/m 9,9 C 16,3 C 24,1 km/h (4 Bft) 98,11 %
30.06.2017 10:02 19,1 C 24,4 C 56 % 1007,2 hPa 0,0 l/m 13,0 km/h (3 Bft) SW 235 2 min 0,000 mm 2,1 UV-I 402 W/m 10,1 C 16,7 C 24,1 km/h (4 Bft) 100,00 %
30.06.2017 10:04 19,1 C 24,4 C 55 % 1007,0 hPa 0,0 l/m 13,6 km/h (3 Bft) SW 216 0 min 0,000 mm 1,9 UV-I 352 W/m 9,8 C 16,5 C 22,5 km/h (4 Bft) 97,56 %
30.06.2017 10:06 19,1 C 24,4 C 56 % 1007,1 hPa 0,0 l/m 20,8 km/h (4 Bft) S-SW 211 0 min 0,000 mm 1,9 UV-I 336 W/m 10,1 C 14,9 C 30,6 km/h (5 Bft) 100,00 %
30.06.2017 10:08 19,0 C 24,4 C 55 % 1007,1 hPa 0,0 l/m 13,8 km/h (3 Bft) W-SW 257 0 min 0,000 mm 1,9 UV-I 334 W/m 9,8 C 16,4 C 25,7 km/h (4 Bft) 95,12 %
30.06.2017 10:10 19,0 C 24,4 C 56 % 1007,1 hPa 0,0 l/m 11,8 km/h (2 Bft) SW 219 0 min 0,000 mm 2,0 UV-I 339 W/m 10,0 C 16,9 C 19,3 km/h (3 Bft) 96,00 %
30.06.2017 10:12 19,0 C 24,4 C 56 % 1007,2 hPa 0,0 l/m 12,5 km/h (3 Bft) W-SW 240 0 min 0,000 mm 2,1 UV-I 352 W/m 10,0 C 16,7 C 19,3 km/h (3 Bft) 98,00 %
30.06.2017 10:14 19,0 C 24,4 C 57 % 1007,1 hPa 0,0 l/m 12,4 km/h (3 Bft) W-SW 257 0 min 0,000 mm 2,2 UV-I 370 W/m 10,3 C 16,8 C 19,3 km/h (3 Bft) 100,00 %
30.06.2017 10:16 19,1 C 24,4 C 56 % 1007,2 hPa 0,0 l/m 11,1 km/h (2 Bft) W-SW 241 0 min 0,000 mm 2,4 UV-I 393 W/m 10,1 C 17,3 C 16,1 km/h (3 Bft) 98,00 %
30.06.2017 10:18 19,2 C 24,4 C 56 % 1007,2 hPa 0,0 l/m 14,9 km/h (3 Bft) W-SW 257 2 min 0,000 mm 2,9 UV-I 413 W/m 10,2 C 16,3 C 24,1 km/h (4 Bft) 92,68 %
30.06.2017 10:20 19,2 C 24,4 C 56 % 1007,2 hPa 0,0 l/m 12,5 km/h (3 Bft) S-SW 211 2 min 0,000 mm 2,5 UV-I 413 W/m 10,2 C 17,0 C 20,9 km/h (4 Bft) 96,43 %
30.06.2017 10:23 19,1 C 22,8 C 56 % 1007,1 hPa 0,0 l/m 14,3 km/h (3 Bft) W-SW 237 0 min 0,000 mm 2,3 UV-I 290 W/m 10,1 C 16,3 C 29,0 km/h (5 Bft) 95,38 %
30.06.2017 10:24 19,1 C 22,8 C 56 % 1007,2 hPa 0,0 l/m 12,4 km/h (3 Bft) W 271 0 min 0,000 mm 2,3 UV-I 256 W/m 10,1 C 16,9 C 16,1 km/h (3 Bft) 95,65 %
30.06.2017 10:26 18,9 C 23,3 C 56 % 1007,2 hPa 0,0 l/m 16,8 km/h (3 Bft) W-SW 252 0 min 0,000 mm 3,0 UV-I 253 W/m 9,9 C 15,5 C 33,8 km/h (5 Bft) 96,00 %
30.06.2017 10:28 19,1 C 23,3 C 56 % 1007,3 hPa 0,0 l/m 14,4 km/h (3 Bft) W-SW 243 0 min 0,000 mm 4,0 UV-I 253 W/m 10,1 C 16,3 C 22,5 km/h (4 Bft) 97,62 %
30.06.2017 10:30 19,3 C 23,3 C 56 % 1007,4 hPa 0,0 l/m 19,0 km/h (3 Bft) W-SW 254 0 min 0,000 mm 3,4 UV-I 253 W/m 10,3 C 15,5 C 29,0 km/h (5 Bft) 98,00 %
30.06.2017 10:32 19,4 C 23,3 C 56 % 1007,3 hPa 0,0 l/m 17,5 km/h (3 Bft) SW 235 0 min 0,000 mm 4,0 UV-I 253 W/m 10,4 C 15,9 C 25,7 km/h (4 Bft) 93,62 %
30.06.2017 10:34 19,5 C 23,3 C 54 % 1007,3 hPa 0,0 l/m 16,1 km/h (3 Bft) SW 215 0 min 0,000 mm 4,1 UV-I 320 W/m 9,9 C 16,4 C 22,5 km/h (4 Bft) 92,11 %
30.06.2017 10:36 19,7 C 23,3 C 55 % 1007,3 hPa 0,0 l/m 16,6 km/h (3 Bft) W-SW 250 2 min 0,000 mm 4,0 UV-I 925 W/m 10,4 C 16,5 C 27,4 km/h (4 Bft) 93,22 %
30.06.2017 10:38 19,8 C 22,8 C 54 % 1007,5 hPa 0,0 l/m 14,5 km/h (3 Bft) W-SW 238 2 min 0,000 mm 2,6 UV-I 918 W/m 10,2 C 17,1 C 24,1 km/h (4 Bft) 92,11 %
30.06.2017 10:40 19,6 C 22,8 C 53 % 1007,5 hPa 0,0 l/m 16,9 km/h (3 Bft) W 259 0 min 0,000 mm 2,4 UV-I 264 W/m 9,8 C 16,3 C 27,4 km/h (4 Bft) 84,00 %
30.06.2017 10:42 19,3 C 22,8 C 54 % 1007,6 hPa 0,0 l/m 9,1 km/h (2 Bft) W-SW 244 0 min 0,000 mm 2,5 UV-I 281 W/m 9,8 C 18,2 C 14,5 km/h (3 Bft) 94,74 %
30.06.2017 10:44 19,3 C 23,3 C 55 % 1007,6 hPa 0,0 l/m 14,2 km/h (3 Bft) S-SW 209 0 min 0,000 mm 3,6 UV-I 410 W/m 10,0 C 16,6 C 22,5 km/h (4 Bft) 91,53 %
30.06.2017 10:46 19,4 C 23,3 C 54 % 1007,6 hPa 0,0 l/m 15,9 km/h (3 Bft) W 259 0 min 0,000 mm 2,9 UV-I 391 W/m 9,8 C 16,3 C 24,1 km/h (4 Bft) 95,45 %
30.06.2017 10:48 19,3 C 22,8 C 55 % 1007,6 hPa 0,0 l/m 12,2 km/h (2 Bft) SW 215 0 min 0,000 mm 2,3 UV-I 231 W/m 10,0 C 17,2 C 22,5 km/h (4 Bft) 92,45 %
30.06.2017 10:50 19,3 C 23,3 C 56 % 1007,6 hPa 0,0 l/m 13,2 km/h (3 Bft) W 263 0 min 0,000 mm 2,6 UV-I 227 W/m 10,3 C 16,9 C 20,9 km/h (4 Bft) 95,45 %
30.06.2017 10:52 19,4 C 23,3 C 56 % 1007,6 hPa 0,0 l/m 16,8 km/h (3 Bft) SW 229 2 min 0,000 mm 4,6 UV-I 651 W/m 10,4 C 16,1 C 22,5 km/h (4 Bft) 93,62 %
30.06.2017 10:54 19,7 C 23,3 C 56 % 1007,6 hPa 0,0 l/m 15,2 km/h (3 Bft) S-SO 152 2 min 0,000 mm 4,8 UV-I 901 W/m 10,7 C 16,8 C 22,5 km/h (4 Bft) 91,49 %
30.06.2017 10:56 20,0 C 23,3 C 55 % 1007,6 hPa 0,0 l/m 10,9 km/h (2 Bft) S-SW 211 2 min 0,000 mm 4,9 UV-I 895 W/m 10,7 C 18,4 C 22,5 km/h (4 Bft) 92,68 %
30.06.2017 10:58 20,3 C 23,3 C 54 % 1007,6 hPa 0,0 l/m 15,0 km/h (3 Bft) S-SW 206 2 min 0,000 mm 4,1 UV-I 900 W/m 10,7 C 17,6 C 24,1 km/h (4 Bft) 92,45 %
30.06.2017 11:00 20,5 C 23,3 C 54 % 1007,6 hPa 0,0 l/m 14,6 km/h (3 Bft) W-SW 250 2 min 0,000 mm 5,0 UV-I 934 W/m 10,9 C 17,9 C 22,5 km/h (4 Bft) 86,84 %
30.06.2017 11:02 20,6 C 23,3 C 53 % 1007,6 hPa 0,0 l/m 11,9 km/h (2 Bft) SW 221 2 min 0,381 mm 4,5 UV-I 985 W/m 10,7 C 18,7 C 20,9 km/h (4 Bft) 96,23 %
30.06.2017 11:04 20,4 C 23,3 C 52 % 1007,6 hPa 0,0 l/m 17,9 km/h (3 Bft) W-SW 238 2 min 0,000 mm 3,9 UV-I 686 W/m 10,2 C 17,1 C 25,7 km/h (4 Bft) 88,10 %
30.06.2017 11:06 20,4 C 23,3 C 53 % 1007,6 hPa 0,0 l/m 14,0 km/h (3 Bft) SW 225 2 min 0,000 mm 5,2 UV-I 686 W/m 10,5 C 18,0 C 25,7 km/h (4 Bft) 96,23 %
30.06.2017 11:08 20,6 C 23,3 C 54 % 1007,6 hPa 0,0 l/m 12,8 km/h (3 Bft) SW 234 2 min 0,000 mm 5,2 UV-I 964 W/m 11,0 C 18,5 C 19,3 km/h (3 Bft) 97,37 %
30.06.2017 11:10 20,8 C 23,3 C 53 % 1007,5 hPa 0,0 l/m 10,1 km/h (2 Bft) SW 225 2 min 0,000 mm 3,8 UV-I 906 W/m 10,9 C 19,5 C 19,3 km/h (3 Bft) 96,00 %
30.06.2017 11:12 20,6 C 23,3 C 52 % 1007,7 hPa 0,0 l/m 13,0 km/h (3 Bft) W-SW 239 0 min 0,000 mm 2,3 UV-I 218 W/m 10,4 C 18,5 C 20,9 km/h (4 Bft) 94,00 %
30.06.2017 11:14 20,3 C 23,3 C 52 % 1007,6 hPa 0,0 l/m 15,7 km/h (3 Bft) W 267 0 min 0,000 mm 2,6 UV-I 217 W/m 10,1 C 17,5 C 22,5 km/h (4 Bft) 95,45 %
30.06.2017 11:16 20,1 C 23,3 C 53 % 1007,5 hPa 0,0 l/m 14,2 km/h (3 Bft) W-SW 239 0 min 0,000 mm 3,9 UV-I 218 W/m 10,2 C 17,6 C 19,3 km/h (3 Bft) 94,34 %
30.06.2017 11:18 20,2 C 23,3 C 53 % 1007,6 hPa 0,0 l/m 15,0 km/h (3 Bft) W 260 2 min 0,000 mm 5,3 UV-I 804 W/m 10,3 C 17,5 C 22,5 km/h (4 Bft) 97,56 %
30.06.2017 11:20 20,4 C 23,3 C 53 % 1007,7 hPa 0,0 l/m 8,3 km/h (2 Bft) S-SW 212 2 min 0,000 mm 5,4 UV-I 954 W/m 10,5 C 19,7 C 16,1 km/h (3 Bft) 100,00 %
30.06.2017 11:22 20,7 C 23,3 C 51 % 1007,7 hPa 0,0 l/m 17,4 km/h (3 Bft) SW 225 2 min 0,000 mm 5,2 UV-I 942 W/m 10,2 C 17,6 C 32,2 km/h (5 Bft) 100,00 %
30.06.2017 11:24 20,8 C 23,3 C 50 % 1007,7 hPa 0,0 l/m 15,8 km/h (3 Bft) W-SW 241 2 min 0,000 mm 4,2 UV-I 691 W/m 10,0 C 18,0 C 22,5 km/h (4 Bft) 92,00 %
30.06.2017 11:26 20,8 C 23,3 C 53 % 1007,8 hPa 0,0 l/m 12,2 km/h (2 Bft) W-SW 256 2 min 0,000 mm 4,2 UV-I 679 W/m 10,9 C 18,9 C 17,7 km/h (3 Bft) 96,00 %
30.06.2017 11:28 20,8 C 23,3 C 52 % 1007,7 hPa 0,0 l/m 14,0 km/h (3 Bft) W 263 2 min 0,000 mm 5,8 UV-I 935 W/m 10,6 C 18,4 C 24,1 km/h (4 Bft) 100,00 %
30.06.2017 11:30 21,1 C 23,3 C 52 % 1007,6 hPa 0,0 l/m 6,4 km/h (2 Bft) W 278 2 min 0,000 mm 5,8 UV-I 1010 W/m 10,9 C 21,1 C 12,9 km/h (3 Bft) 98,15 %
30.06.2017 11:32 21,1 C 23,3 C 51 % 1007,6 hPa 0,0 l/m 6,6 km/h (2 Bft) W-SW 241 2 min 0,000 mm 5,5 UV-I 909 W/m 10,6 C 21,0 C 12,9 km/h (3 Bft) 97,56 %
30.06.2017 11:34 21,2 C 23,3 C 50 % 1007,6 hPa 0,0 l/m 11,6 km/h (2 Bft) SW 217 2 min 0,000 mm 5,5 UV-I 896 W/m 10,4 C 19,5 C 24,1 km/h (4 Bft) 98,21 %
30.06.2017 11:36 21,2 C 23,3 C 51 % 1007,6 hPa 0,0 l/m 12,9 km/h (3 Bft) S-SO 165 2 min 0,000 mm 5,5 UV-I 936 W/m 10,7 C 19,2 C 24,1 km/h (4 Bft) 100,00 %
30.06.2017 11:38 21,3 C 23,3 C 50 % 1007,5 hPa 0,0 l/m 23,8 km/h (4 Bft) SW 222 2 min 0,000 mm 5,6 UV-I 999 W/m 10,4 C 17,3 C 33,8 km/h (5 Bft) 100,00 %
30.06.2017 11:40 21,4 C 23,3 C 49 % 1007,6 hPa 0,0 l/m 17,1 km/h (3 Bft) W-SW 245 2 min 0,000 mm 5,9 UV-I 1002 W/m 10,2 C 18,5 C 27,4 km/h (4 Bft) 97,56 %
30.06.2017 11:42 21,3 C 23,3 C 50 % 1007,5 hPa 0,0 l/m 10,7 km/h (2 Bft) SW 223 2 min 0,000 mm 5,8 UV-I 991 W/m 10,4 C 19,9 C 19,3 km/h (3 Bft) 100,00 %
30.06.2017 11:44 21,3 C 23,3 C 48 % 1007,4 hPa 0,0 l/m 8,1 km/h (2 Bft) W-SW 237 2 min 0,000 mm 5,9 UV-I 1002 W/m 9,8 C 20,7 C 11,3 km/h (2 Bft) 100,00 %
30.06.2017 11:46 21,4 C 23,3 C 49 % 1007,4 hPa 0,0 l/m 13,3 km/h (3 Bft) W 267 2 min 0,000 mm 6,0 UV-I 918 W/m 10,2 C 19,3 C 22,5 km/h (4 Bft) 97,14 %
30.06.2017 11:48 21,7 C 23,3 C 49 % 1007,5 hPa 0,0 l/m 17,8 km/h (3 Bft) W-SW 252 2 min 0,000 mm 6,1 UV-I 1038 W/m 10,5 C 18,8 C 27,4 km/h (4 Bft) 97,78 %
30.06.2017 11:50 21,7 C 23,3 C 47 % 1007,5 hPa 0,0 l/m 18,3 km/h (3 Bft) SW 221 2 min 0,000 mm 6,0 UV-I 1027 W/m 9,9 C 18,7 C 29,0 km/h (5 Bft) 97,56 %
30.06.2017 11:52 21,6 C 23,3 C 46 % 1007,5 hPa 0,0 l/m 14,3 km/h (3 Bft) W-NW 296 2 min 0,000 mm 5,9 UV-I 976 W/m 9,5 C 19,3 C 22,5 km/h (4 Bft) 98,21 %
30.06.2017 11:54 21,6 C 23,3 C 47 % 1007,4 hPa 0,0 l/m 7,4 km/h (2 Bft) W 277 2 min 0,000 mm 6,0 UV-I 971 W/m 9,8 C 21,2 C 16,1 km/h (3 Bft) 100,00 %
30.06.2017 11:56 21,5 C 23,3 C 47 % 1007,5 hPa 0,0 l/m 11,7 km/h (2 Bft) W-SW 252 2 min 0,000 mm 5,5 UV-I 1053 W/m 9,7 C 19,8 C 16,1 km/h (3 Bft) 100,00 %
30.06.2017 11:58 21,6 C 23,3 C 51 % 1007,5 hPa 0,0 l/m 9,8 km/h (2 Bft) S-SW 210 2 min 0,000 mm 3,9 UV-I 853 W/m 11,0 C 20,5 C 16,1 km/h (3 Bft) 100,00 %
30.06.2017 12:00 21,6 C 23,3 C 48 % 1007,4 hPa 0,0 l/m 9,2 km/h (2 Bft) S-SW 195 0 min 0,000 mm 3,7 UV-I 372 W/m 10,1 C 20,6 C 16,1 km/h (3 Bft) 100,00 %
30.06.2017 12:02 21,5 C 23,3 C 48 % 1007,4 hPa 0,0 l/m 13,0 km/h (3 Bft) W-SW 248 0 min 0,559 mm 3,9 UV-I 374 W/m 10,0 C 19,5 C 20,9 km/h (4 Bft) 96,23 %
30.06.2017 12:04 21,4 C 23,3 C 49 % 1007,4 hPa 0,0 l/m 11,1 km/h (2 Bft) SW 235 0 min 0,000 mm 5,4 UV-I 374 W/m 10,2 C 19,9 C 19,3 km/h (3 Bft) 100,00 %
30.06.2017 12:06 21,4 C 23,3 C 49 % 1007,3 hPa 0,0 l/m 8,6 km/h (2 Bft) W-SW 252 2 min 0,000 mm 6,2 UV-I 866 W/m 10,2 C 20,6 C 12,9 km/h (3 Bft) 97,87 %
30.06.2017 12:08 21,8 C 23,3 C 49 % 1007,3 hPa 0,0 l/m 6,3 km/h (2 Bft) W 269 2 min 0,000 mm 6,4 UV-I 968 W/m 10,6 C 21,8 C 11,3 km/h (2 Bft) 98,00 %
30.06.2017 12:10 21,9 C 23,3 C 49 % 1007,3 hPa 0,0 l/m 7,0 km/h (2 Bft) W-SW 248 2 min 0,000 mm 6,1 UV-I 1060 W/m 10,7 C 21,7 C 20,9 km/h (4 Bft) 95,74 %
30.06.2017 12:12 22,1 C 23,3 C 46 % 1007,3 hPa 0,0 l/m 14,9 km/h (3 Bft) W-SW 246 2 min 0,000 mm 5,0 UV-I 830 W/m 9,9 C 19,8 C 22,5 km/h (4 Bft) 97,37 %
30.06.2017 12:14 22,0 C 23,3 C 46 % 1007,2 hPa 0,0 l/m 12,2 km/h (2 Bft) S-SW 212 0 min 0,000 mm 3,7 UV-I 447 W/m 9,8 C 20,3 C 22,5 km/h (4 Bft) 100,00 %
30.06.2017 12:16 21,8 C 23,3 C 47 % 1007,3 hPa 0,0 l/m 16,5 km/h (3 Bft) W 267 0 min 0,000 mm 3,9 UV-I 401 W/m 10,0 C 19,1 C 24,1 km/h (4 Bft) 98,00 %
30.06.2017 12:18 21,5 C 23,3 C 46 % 1007,2 hPa 0,0 l/m 12,2 km/h (2 Bft) SW 223 2 min 0,000 mm 5,1 UV-I 598 W/m 9,4 C 19,7 C 17,7 km/h (3 Bft) 97,73 %
30.06.2017 12:20 21,6 C 23,3 C 49 % 1007,3 hPa 0,0 l/m 10,9 km/h (2 Bft) SW 215 2 min 0,000 mm 6,8 UV-I 957 W/m 10,4 C 20,2 C 19,3 km/h (3 Bft) 100,00 %
30.06.2017 12:22 21,9 C 23,3 C 48 % 1007,3 hPa 0,0 l/m 11,8 km/h (2 Bft) SW 232 2 min 0,000 mm 5,9 UV-I 1076 W/m 10,4 C 20,3 C 16,1 km/h (3 Bft) 97,22 %
30.06.2017 12:24 22,2 C 23,3 C 47 % 1007,4 hPa 0,0 l/m 15,9 km/h (3 Bft) SW 233 2 min 0,000 mm 5,3 UV-I 1042 W/m 10,3 C 19,7 C 27,4 km/h (4 Bft) 96,36 %
30.06.2017 12:26 21,9 C 23,3 C 46 % 1007,3 hPa 0,0 l/m 13,6 km/h (3 Bft) W-SW 248 2 min 0,000 mm 4,2 UV-I 854 W/m 9,7 C 19,8 C 24,1 km/h (4 Bft) 97,62 %
30.06.2017 12:28 21,6 C 23,3 C 46 % 1007,3 hPa 0,0 l/m 6,8 km/h (2 Bft) SW 223 0 min 0,000 mm 5,2 UV-I 309 W/m 9,5 C 21,5 C 17,7 km/h (3 Bft) 96,23 %
30.06.2017 12:30 21,7 C 23,3 C 46 % 1007,3 hPa 0,0 l/m 10,5 km/h (2 Bft) W 269 2 min 0,000 mm 6,5 UV-I 981 W/m 9,6 C 20,4 C 19,3 km/h (3 Bft) 97,37 %
30.06.2017 12:32 21,9 C 23,3 C 47 % 1007,3 hPa 0,0 l/m 4,3 km/h (1 Bft) SW 217 2 min 0,000 mm 6,4 UV-I 1023 W/m 10,1 C 21,9 C 8,0 km/h (2 Bft) 97,73 %
30.06.2017 12:34 22,2 C 23,3 C 46 % 1007,4 hPa 0,0 l/m 14,0 km/h (3 Bft) SW 217 2 min 0,000 mm 6,5 UV-I 995 W/m 10,0 C 20,1 C 20,9 km/h (4 Bft) 90,57 %
30.06.2017 12:36 22,4 C 23,3 C 44 % 1007,4 hPa 0,0 l/m 12,2 km/h (2 Bft) SW 217 2 min 0,000 mm 6,6 UV-I 1008 W/m 9,5 C 20,7 C 19,3 km/h (3 Bft) 98,11 %
30.06.2017 12:38 22,4 C 23,3 C 44 % 1007,4 hPa 0,0 l/m 16,0 km/h (3 Bft) W-NW 287 2 min 0,000 mm 6,4 UV-I 1060 W/m 9,5 C 20,0 C 30,6 km/h (5 Bft) 100,00 %
30.06.2017 12:40 22,4 C 23,3 C 44 % 1007,4 hPa 0,0 l/m 14,2 km/h (3 Bft) W-SW 241 2 min 0,000 mm 6,0 UV-I 1041 W/m 9,5 C 20,3 C 22,5 km/h (4 Bft) 93,15 %
30.06.2017 12:42 22,5 C 23,3 C 44 % 1007,4 hPa 0,0 l/m 14,0 km/h (3 Bft) SW 220 2 min 0,000 mm 6,7 UV-I 1028 W/m 9,6 C 20,5 C 22,5 km/h (4 Bft) 94,00 %
30.06.2017 12:44 22,4 C 23,3 C 43 % 1007,4 hPa 0,0 l/m 8,9 km/h (2 Bft) W 262 2 min 0,000 mm 6,6 UV-I 1020 W/m 9,2 C 21,6 C 14,5 km/h (3 Bft) 98,00 %
30.06.2017 12:46 22,3 C 23,3 C 43 % 1007,4 hPa 0,0 l/m 9,6 km/h (2 Bft) W-SW 238 2 min 0,000 mm 6,5 UV-I 993 W/m 9,1 C 21,3 C 17,7 km/h (3 Bft) 95,45 %
30.06.2017 12:48 22,3 C 23,3 C 44 % 1007,2 hPa 0,0 l/m 11,9 km/h (2 Bft) SW 231 2 min 0,000 mm 6,7 UV-I 1004 W/m 9,5 C 20,7 C 19,3 km/h (3 Bft) 97,73 %
30.06.2017 12:50 22,2 C 23,3 C 43 % 1007,2 hPa 0,0 l/m 9,0 km/h (2 Bft) W-SW 255 2 min 0,000 mm 6,3 UV-I 1039 W/m 9,0 C 21,4 C 14,5 km/h (3 Bft) 87,23 %
30.06.2017 12:52 22,1 C 23,3 C 44 % 1007,2 hPa 0,0 l/m 6,1 km/h (2 Bft) W 275 2 min 0,000 mm 4,3 UV-I 1051 W/m 9,3 C 22,1 C 12,9 km/h (3 Bft) 96,00 %
30.06.2017 12:54 22,1 C 23,3 C 47 % 1007,2 hPa 0,0 l/m 5,7 km/h (1 Bft) S-SW 205 2 min 0,000 mm 6,8 UV-I 1051 W/m 10,3 C 22,1 C 12,9 km/h (3 Bft) 100,00 %
30.06.2017 12:56 22,3 C 23,3 C 45 % 1007,3 hPa 0,0 l/m 9,5 km/h (2 Bft) W-SW 247 2 min 0,000 mm 6,3 UV-I 1034 W/m 9,8 C 21,3 C 17,7 km/h (3 Bft) 94,74 %
30.06.2017 12:58 22,4 C 23,3 C 42 % 1007,3 hPa 0,0 l/m 13,9 km/h (3 Bft) W 277 2 min 0,000 mm 5,3 UV-I 971 W/m 8,9 C 20,4 C 24,1 km/h (4 Bft) 100,00 %
30.06.2017 13:00 22,4 C 23,3 C 44 % 1007,2 hPa 0,0 l/m 10,6 km/h (2 Bft) W-SW 253 2 min 0,584 mm 6,6 UV-I 960 W/m 9,5 C 21,1 C 16,1 km/h (3 Bft) 97,62 %
30.06.2017 13:02 22,7 C 23,3 C 43 % 1007,2 hPa 0,0 l/m 7,2 km/h (2 Bft) W 273 2 min 0,000 mm 6,6 UV-I 955 W/m 9,5 C 22,4 C 16,1 km/h (3 Bft) 98,18 %
30.06.2017 13:04 22,8 C 23,3 C 44 % 1007,3 hPa 0,0 l/m 7,5 km/h (2 Bft) W-NW 286 2 min 0,000 mm 6,6 UV-I 958 W/m 9,9 C 22,4 C 16,1 km/h (3 Bft) 100,00 %
30.06.2017 13:06 22,8 C 23,3 C 43 % 1007,2 hPa 0,0 l/m 5,6 km/h (1 Bft) SO 134 2 min 0,000 mm 6,7 UV-I 964 W/m 9,6 C 22,8 C 9,7 km/h (2 Bft) 98,21 %
30.06.2017 13:08 22,7 C 23,3 C 43 % 1007,2 hPa 0,0 l/m 3,6 km/h (1 Bft) W-NW 292 2 min 0,000 mm 6,7 UV-I 982 W/m 9,5 C 22,7 C 8,0 km/h (2 Bft) 100,00 %
30.06.2017 13:10 22,8 C 23,9 C 44 % 1007,2 hPa 0,0 l/m 5,8 km/h (2 Bft) SW 236 2 min 0,000 mm 6,0 UV-I 1019 W/m 9,9 C 22,8 C 14,5 km/h (3 Bft) 100,00 %
30.06.2017 13:12 22,9 C 23,9 C 42 % 1007,2 hPa 0,0 l/m 8,9 km/h (2 Bft) W-NW 284 2 min 0,000 mm 6,7 UV-I 1017 W/m 9,3 C 22,1 C 17,7 km/h (3 Bft) 98,00 %
30.06.2017 13:14 23,0 C 23,9 C 43 % 1007,2 hPa 0,0 l/m 11,5 km/h (2 Bft) W 268 2 min 0,000 mm 6,8 UV-I 1024 W/m 9,7 C 21,6 C 22,5 km/h (4 Bft) 95,12 %
30.06.2017 13:16 22,9 C 23,9 C 42 % 1006,9 hPa 0,0 l/m 11,8 km/h (2 Bft) W 263 2 min 0,000 mm 4,6 UV-I 606 W/m 9,3 C 21,4 C 14,5 km/h (3 Bft) 100,00 %
30.06.2017 13:18 22,8 C 23,9 C 44 % 1006,9 hPa 0,0 l/m 17,0 km/h (3 Bft) W-SW 244 2 min 0,000 mm 6,5 UV-I 809 W/m 9,9 C 20,3 C 25,7 km/h (4 Bft) 97,14 %
30.06.2017 13:20 22,8 C 23,9 C 43 % 1006,9 hPa 0,0 l/m 14,4 km/h (3 Bft) SW 217 2 min 0,000 mm 4,8 UV-I 1022 W/m 9,6 C 20,8 C 22,5 km/h (4 Bft) 100,00 %
30.06.2017 13:22 22,6 C 23,9 C 43 % 1006,9 hPa 0,0 l/m 10,8 km/h (2 Bft) W 265 2 min 0,000 mm 4,2 UV-I 1035 W/m 9,4 C 21,3 C 20,9 km/h (4 Bft) 98,00 %
30.06.2017 13:24 22,6 C 23,9 C 44 % 1006,8 hPa 0,0 l/m 9,4 km/h (2 Bft) W-SW 255 2 min 0,000 mm 6,3 UV-I 1001 W/m 9,7 C 21,7 C 14,5 km/h (3 Bft) 100,00 %
30.06.2017 13:26 22,6 C 23,9 C 43 % 1006,9 hPa 0,0 l/m 5,7 km/h (1 Bft) S-SW 200 2 min 0,000 mm 6,6 UV-I 989 W/m 9,4 C 22,6 C 11,3 km/h (2 Bft) 100,00 %
30.06.2017 13:28 22,9 C 23,9 C 42 % 1006,9 hPa 0,0 l/m 8,7 km/h (2 Bft) NW 324 2 min 0,000 mm 6,3 UV-I 938 W/m 9,3 C 22,2 C 16,1 km/h (3 Bft) 100,00 %
30.06.2017 13:30 22,9 C 23,9 C 45 % 1006,8 hPa 0,0 l/m 8,8 km/h (2 Bft) W 261 2 min 0,000 mm 5,9 UV-I 914 W/m 10,3 C 22,2 C 16,1 km/h (3 Bft) 94,34 %
30.06.2017 13:32 23,1 C 23,9 C 43 % 1006,8 hPa 0,0 l/m 12,5 km/h (3 Bft) SW 230 2 min 0,000 mm 6,2 UV-I 912 W/m 9,8 C 21,5 C 20,9 km/h (4 Bft) 100,00 %
30.06.2017 13:34 23,2 C 23,9 C 43 % 1006,7 hPa 0,0 l/m 7,0 km/h (2 Bft) W-SW 246 2 min 0,000 mm 6,3 UV-I 903 W/m 9,9 C 23,0 C 11,3 km/h (2 Bft) 97,87 %
30.06.2017 13:36 23,1 C 23,9 C 42 % 1006,7 hPa 0,0 l/m 11,7 km/h (2 Bft) SW 228 2 min 0,000 mm 6,5 UV-I 949 W/m 9,5 C 21,7 C 17,7 km/h (3 Bft) 97,87 %
30.06.2017 13:38 23,1 C 23,9 C 44 % 1006,7 hPa 0,0 l/m 9,3 km/h (2 Bft) SW 227 2 min 0,000 mm 6,2 UV-I 980 W/m 10,2 C 22,2 C 19,3 km/h (3 Bft) 97,44 %
30.06.2017 13:40 23,2 C 23,9 C 43 % 1006,7 hPa 0,0 l/m 14,0 km/h (3 Bft) W-SW 240 2 min 0,000 mm 6,4 UV-I 1007 W/m 9,9 C 21,3 C 19,3 km/h (3 Bft) 98,08 %
30.06.2017 13:42 23,3 C 23,9 C 43 % 1006,8 hPa 0,0 l/m 9,8 km/h (2 Bft) W-SW 247 2 min 0,000 mm 5,3 UV-I 1028 W/m 10,0 C 22,3 C 12,9 km/h (3 Bft) 100,00 %
30.06.2017 13:44 23,1 C 23,9 C 42 % 1006,8 hPa 0,0 l/m 9,5 km/h (2 Bft) W 265 2 min 0,000 mm 3,6 UV-I 496 W/m 9,5 C 22,2 C 16,1 km/h (3 Bft) 98,65 %
30.06.2017 13:46 22,8 C 23,9 C 43 % 1006,7 hPa 0,0 l/m 11,1 km/h (2 Bft) W-SW 252 0 min 0,000 mm 5,5 UV-I 335 W/m 9,6 C 21,5 C 17,7 km/h (3 Bft) 100,00 %
30.06.2017 13:48 22,8 C 23,9 C 44 % 1006,6 hPa 0,0 l/m 9,4 km/h (2 Bft) W-SW 247 2 min 0,000 mm 5,8 UV-I 970 W/m 9,9 C 21,9 C 16,1 km/h (3 Bft) 95,74 %
30.06.2017 13:50 23,0 C 23,9 C 43 % 1006,6 hPa 0,0 l/m 9,8 km/h (2 Bft) W 269 2 min 0,000 mm 6,1 UV-I 942 W/m 9,7 C 22,0 C 14,5 km/h (3 Bft) 98,00 %
30.06.2017 13:52 23,2 C 23,9 C 44 % 1006,6 hPa 0,0 l/m 11,2 km/h (2 Bft) W-SW 251 2 min 0,000 mm 6,4 UV-I 943 W/m 10,3 C 21,9 C 19,3 km/h (3 Bft) 100,00 %
30.06.2017 13:54 23,4 C 23,9 C 44 % 1006,6 hPa 0,0 l/m 5,5 km/h (1 Bft) SW 219 2 min 0,000 mm 6,4 UV-I 949 W/m 10,4 C 23,4 C 11,3 km/h (2 Bft) 98,00 %
30.06.2017 13:56 23,7 C 23,9 C 41 % 1006,7 hPa 0,0 l/m 15,6 km/h (3 Bft) W-SW 244 2 min 0,000 mm 6,4 UV-I 968 W/m 9,7 C 21,6 C 22,5 km/h (4 Bft) 97,73 %
30.06.2017 13:58 23,4 C 23,9 C 40 % 1006,8 hPa 0,0 l/m 4,8 km/h (1 Bft) S-SO 158 2 min 0,000 mm 4,1 UV-I 586 W/m 9,0 C 23,4 C 12,9 km/h (3 Bft) 100,00 %
30.06.2017 14:00 23,1 C 23,9 C 42 % 1006,8 hPa 0,0 l/m 4,7 km/h (1 Bft) SW 225 2 min 0,584 mm 5,2 UV-I 520 W/m 9,5 C 23,1 C 9,7 km/h (2 Bft) 97,73 %
30.06.2017 14:02 23,2 C 23,9 C 42 % 1006,7 hPa 0,0 l/m 5,2 km/h (1 Bft) SW 222 2 min 0,000 mm 5,4 UV-I 1004 W/m 9,6 C 23,2 C 9,7 km/h (2 Bft) 98,00 %
30.06.2017 14:04 23,0 C 23,9 C 42 % 1006,7 hPa 0,0 l/m 7,7 km/h (2 Bft) W-SW 242 0 min 0,000 mm 3,4 UV-I 227 W/m 9,4 C 22,6 C 12,9 km/h (3 Bft) 100,00 %
30.06.2017 14:06 22,9 C 23,9 C 43 % 1006,5 hPa 0,0 l/m 8,0 km/h (2 Bft) W 265 0 min 0,000 mm 4,5 UV-I 227 W/m 9,6 C 22,4 C 16,1 km/h (3 Bft) 94,74 %
30.06.2017 14:08 23,1 C 23,9 C 43 % 1006,6 hPa 0,0 l/m 5,6 km/h (1 Bft) W 273 2 min 0,000 mm 6,0 UV-I 536 W/m 9,8 C 23,1 C 12,9 km/h (3 Bft) 100,00 %
30.06.2017 14:10 23,1 C 23,9 C 42 % 1006,5 hPa 0,0 l/m 5,2 km/h (1 Bft) W-SW 242 2 min 0,000 mm 6,3 UV-I 963 W/m 9,5 C 23,1 C 8,0 km/h (2 Bft) 97,73 %
30.06.2017 14:12 23,3 C 23,9 C 42 % 1006,5 hPa 0,0 l/m 3,7 km/h (1 Bft) NW 315 2 min 0,000 mm 6,2 UV-I 948 W/m 9,7 C 23,3 C 6,4 km/h (2 Bft) 100,00 %
30.06.2017 14:14 23,8 C 23,9 C 41 % 1006,5 hPa 0,0 l/m 4,2 km/h (1 Bft) SW 232 2 min 0,000 mm 6,2 UV-I 929 W/m 9,7 C 23,8 C 12,9 km/h (3 Bft) 95,45 %
30.06.2017 14:16 23,8 C 23,9 C 40 % 1006,5 hPa 0,0 l/m 7,1 km/h (2 Bft) W 262 2 min 0,000 mm 6,2 UV-I 921 W/m 9,4 C 23,6 C 11,3 km/h (2 Bft) 94,00 %
30.06.2017 14:18 23,8 C 23,9 C 41 % 1006,5 hPa 0,0 l/m 7,0 km/h (2 Bft) W 261 2 min 0,000 mm 6,1 UV-I 917 W/m 9,7 C 23,6 C 12,9 km/h (3 Bft) 93,62 %
30.06.2017 14:20 23,8 C 23,9 C 40 % 1006,5 hPa 0,0 l/m 2,3 km/h (1 Bft) N-NW 328 2 min 0,000 mm 6,1 UV-I 917 W/m 9,4 C 23,8 C 9,7 km/h (2 Bft) 94,44 %
30.06.2017 14:22 23,9 C 23,9 C 40 % 1006,5 hPa 0,0 l/m 4,6 km/h (1 Bft) W-NW 290 2 min 0,000 mm 6,1 UV-I 917 W/m 9,5 C 23,9 C 11,3 km/h (2 Bft) 96,00 %
30.06.2017 14:24 24,0 C 23,9 C 40 % 1006,5 hPa 0,0 l/m 6,3 km/h (2 Bft) W-SW 243 2 min 0,000 mm 6,0 UV-I 925 W/m 9,6 C 24,0 C 11,3 km/h (2 Bft) 94,34 %
30.06.2017 14:26 24,0 C 23,9 C 39 % 1006,4 hPa 0,0 l/m 5,3 km/h (1 Bft) SO 140 2 min 0,000 mm 6,1 UV-I 930 W/m 9,2 C 24,0 C 11,3 km/h (2 Bft) 92,68 %
30.06.2017 14:28 24,2 C 23,9 C 42 % 1006,5 hPa 0,0 l/m 8,1 km/h (2 Bft) SW 225 2 min 0,000 mm 6,0 UV-I 910 W/m 10,5 C 23,7 C 14,5 km/h (3 Bft) 92,86 %
30.06.2017 14:30 24,3 C 23,9 C 39 % 1006,5 hPa 0,0 l/m 8,6 km/h (2 Bft) W-SW 246 2 min 0,000 mm 5,9 UV-I 918 W/m 9,4 C 23,7 C 14,5 km/h (3 Bft) 92,11 %
30.06.2017 14:32 24,3 C 23,9 C 41 % 1006,5 hPa 0,0 l/m 14,5 km/h (3 Bft) SW 236 2 min 0,000 mm 6,0 UV-I 893 W/m 10,2 C 22,5 C 22,5 km/h (4 Bft) 95,74 %
30.06.2017 14:34 24,3 C 23,9 C 39 % 1006,5 hPa 0,0 l/m 13,0 km/h (3 Bft) S-SW 198 2 min 0,000 mm 5,8 UV-I 874 W/m 9,4 C 22,8 C 20,9 km/h (4 Bft) 89,36 %
30.06.2017 14:36 24,3 C 23,9 C 39 % 1006,4 hPa 0,0 l/m 15,6 km/h (3 Bft) SW 219 2 min 0,000 mm 5,2 UV-I 733 W/m 9,4 C 22,4 C 20,9 km/h (4 Bft) 95,12 %
30.06.2017 14:38 24,1 C 23,9 C 37 % 1006,5 hPa 0,0 l/m 10,5 km/h (2 Bft) S 190 2 min 0,000 mm 4,8 UV-I 645 W/m 8,5 C 23,1 C 19,3 km/h (3 Bft) 91,07 %
30.06.2017 14:40 23,7 C 23,9 C 38 % 1006,5 hPa 0,0 l/m 5,6 km/h (1 Bft) SO 134 2 min 0,000 mm 3,7 UV-I 645 W/m 8,5 C 23,7 C 12,9 km/h (3 Bft) 90,24 %
30.06.2017 14:42 23,4 C 23,9 C 40 % 1006,4 hPa 0,0 l/m 7,6 km/h (2 Bft) S 170 2 min 0,000 mm 5,4 UV-I 785 W/m 9,0 C 23,0 C 11,3 km/h (2 Bft) 96,43 %
30.06.2017 14:44 23,4 C 23,9 C 40 % 1006,3 hPa 0,0 l/m 7,6 km/h (2 Bft) S 189 2 min 0,000 mm 4,6 UV-I 682 W/m 9,0 C 23,0 C 12,9 km/h (3 Bft) 90,24 %
30.06.2017 14:46 23,6 C 23,9 C 39 % 1006,3 hPa 0,0 l/m 10,6 km/h (2 Bft) S 180 2 min 0,000 mm 5,3 UV-I 790 W/m 8,8 C 22,5 C 20,9 km/h (4 Bft) 91,49 %
30.06.2017 14:48 23,7 C 23,9 C 38 % 1006,2 hPa 0,0 l/m 7,0 km/h (2 Bft) S-SO 150 2 min 0,000 mm 5,2 UV-I 857 W/m 8,5 C 23,5 C 12,9 km/h (3 Bft) 88,68 %
30.06.2017 14:50 23,6 C 23,9 C 40 % 1006,2 hPa 0,0 l/m 6,8 km/h (2 Bft) S 187 2 min 0,000 mm 5,2 UV-I 797 W/m 9,2 C 23,5 C 12,9 km/h (3 Bft) 93,62 %
30.06.2017 14:52 23,8 C 23,9 C 39 % 1006,1 hPa 0,0 l/m 7,3 km/h (2 Bft) SO 146 2 min 0,000 mm 4,2 UV-I 781 W/m 9,0 C 23,5 C 16,1 km/h (3 Bft) 97,37 %
30.06.2017 14:54 23,9 C 23,9 C 39 % 1006,1 hPa 0,0 l/m 7,3 km/h (2 Bft) O 101 2 min 0,000 mm 5,1 UV-I 724 W/m 9,1 C 23,6 C 12,9 km/h (3 Bft) 97,87 %
30.06.2017 14:56 23,7 C 23,9 C 38 % 1006,1 hPa 0,0 l/m 1,8 km/h (1 Bft) S 182 2 min 0,000 mm 4,0 UV-I 724 W/m 8,5 C 23,7 C 4,8 km/h (1 Bft) 94,34 %
30.06.2017 14:58 23,6 C 23,9 C 40 % 1006,0 hPa 0,0 l/m 5,9 km/h (2 Bft) SW 228 2 min 0,000 mm 4,8 UV-I 768 W/m 9,2 C 23,6 C 12,9 km/h (3 Bft) 97,62 %
30.06.2017 15:00 23,7 C 23,9 C 40 % 1006,1 hPa 0,0 l/m 9,2 km/h (2 Bft) S-SO 153 2 min 0,559 mm 4,6 UV-I 718 W/m 9,3 C 22,9 C 12,9 km/h (3 Bft) 96,00 %
30.06.2017 15:02 23,9 C 23,9 C 41 % 1006,1 hPa 0,0 l/m 3,0 km/h (1 Bft) W-SW 244 2 min 0,000 mm 5,2 UV-I 735 W/m 9,8 C 23,9 C 6,4 km/h (2 Bft) 98,00 %
30.06.2017 15:04 24,2 C 23,9 C 42 % 1006,2 hPa 0,0 l/m 6,7 km/h (2 Bft) W-SW 239 2 min 0,000 mm 5,1 UV-I 913 W/m 10,5 C 24,1 C 11,3 km/h (2 Bft) 94,00 %
30.06.2017 15:06 24,5 C 23,9 C 39 % 1006,3 hPa 0,0 l/m 10,0 km/h (2 Bft) S 171 2 min 0,000 mm 5,0 UV-I 936 W/m 9,6 C 23,6 C 17,7 km/h (3 Bft) 97,37 %
30.06.2017 15:08 24,5 C 24,4 C 39 % 1006,3 hPa 0,0 l/m 9,7 km/h (2 Bft) W 259 2 min 0,000 mm 4,8 UV-I 920 W/m 9,6 C 23,7 C 14,5 km/h (3 Bft) 97,56 %
30.06.2017 15:10 24,5 C 24,4 C 38 % 1006,2 hPa 0,0 l/m 7,3 km/h (2 Bft) S 173 2 min 0,000 mm 4,5 UV-I 918 W/m 9,2 C 24,3 C 14,5 km/h (3 Bft) 92,45 %
30.06.2017 15:12 24,2 C 24,4 C 40 % 1006,2 hPa 0,0 l/m 3,7 km/h (1 Bft) S-SW 198 2 min 0,000 mm 4,1 UV-I 918 W/m 9,7 C 24,2 C 6,4 km/h (2 Bft) 94,34 %
30.06.2017 15:14 24,1 C 24,4 C 39 % 1006,2 hPa 0,0 l/m 1,6 km/h (1 Bft) S-SW 198 2 min 0,000 mm 5,6 UV-I 980 W/m 9,3 C 24,1 C 6,4 km/h (2 Bft) 97,87 %
30.06.2017 15:16 23,9 C 24,4 C 40 % 1006,2 hPa 0,0 l/m 1,4 km/h (1 Bft) W-NW 283 2 min 0,000 mm 4,6 UV-I 1042 W/m 9,5 C 23,9 C 6,4 km/h (2 Bft) 85,71 %
30.06.2017 15:18 24,0 C 24,4 C 40 % 1006,2 hPa 0,0 l/m 4,8 km/h (1 Bft) W-SW 247 2 min 0,000 mm 5,1 UV-I 952 W/m 9,6 C 24,0 C 8,0 km/h (2 Bft) 94,64 %
30.06.2017 15:20 24,2 C 24,4 C 39 % 1006,1 hPa 0,0 l/m 11,0 km/h (2 Bft) SW 217 2 min 0,000 mm 3,3 UV-I 882 W/m 9,4 C 23,1 C 16,1 km/h (3 Bft) 97,37 %
30.06.2017 15:22 24,2 C 24,4 C 39 % 1006,3 hPa 0,0 l/m 12,8 km/h (3 Bft) W-SW 252 2 min 0,000 mm 3,5 UV-I 703 W/m 9,4 C 22,7 C 19,3 km/h (3 Bft) 100,00 %
30.06.2017 15:24 23,9 C 24,4 C 39 % 1006,3 hPa 0,0 l/m 10,3 km/h (2 Bft) W-SW 250 0 min 0,000 mm 2,3 UV-I 173 W/m 9,1 C 22,9 C 17,7 km/h (3 Bft) 96,00 %
30.06.2017 15:26 23,7 C 24,4 C 40 % 1006,3 hPa 0,0 l/m 9,9 km/h (2 Bft) SW 223 0 min 0,000 mm 2,2 UV-I 200 W/m 9,3 C 22,8 C 12,9 km/h (3 Bft) 94,74 %
30.06.2017 15:28 23,4 C 24,4 C 40 % 1006,2 hPa 0,0 l/m 7,4 km/h (2 Bft) W-SW 239 0 min 0,000 mm 2,3 UV-I 212 W/m 9,0 C 23,1 C 11,3 km/h (2 Bft) 100,00 %
30.06.2017 15:30 23,3 C 24,4 C 41 % 1006,2 hPa 0,0 l/m 6,3 km/h (2 Bft) W-SW 239 0 min 0,000 mm 2,4 UV-I 241 W/m 9,3 C 23,3 C 11,3 km/h (2 Bft) 98,00 %
30.06.2017 15:32 23,2 C 24,4 C 41 % 1006,2 hPa 0,0 l/m 5,6 km/h (1 Bft) S-SW 204 0 min 0,000 mm 2,5 UV-I 262 W/m 9,2 C 23,2 C 8,0 km/h (2 Bft) 96,00 %
30.06.2017 15:34 23,1 C 24,4 C 42 % 1006,2 hPa 0,0 l/m 6,5 km/h (2 Bft) S-SW 196 0 min 0,000 mm 2,3 UV-I 223 W/m 9,5 C 23,1 C 9,7 km/h (2 Bft) 97,56 %
30.06.2017 15:36 23,1 C 24,4 C 41 % 1006,2 hPa 0,0 l/m 6,0 km/h (2 Bft) W-SW 244 0 min 0,000 mm 2,2 UV-I 211 W/m 9,1 C 23,1 C 9,7 km/h (2 Bft) 92,86 %
30.06.2017 15:38 23,1 C 24,4 C 42 % 1006,2 hPa 0,0 l/m 5,3 km/h (1 Bft) S 184 0 min 0,000 mm 2,1 UV-I 219 W/m 9,5 C 23,1 C 8,0 km/h (2 Bft) 95,74 %
30.06.2017 15:40 23,0 C 24,4 C 41 % 1006,2 hPa 0,0 l/m 5,1 km/h (1 Bft) SW 227 0 min 0,000 mm 2,1 UV-I 226 W/m 9,0 C 23,0 C 8,0 km/h (2 Bft) 100,00 %
30.06.2017 15:42 23,0 C 24,4 C 41 % 1006,1 hPa 0,0 l/m 2,5 km/h (1 Bft) S-SW 193 0 min 0,000 mm 2,1 UV-I 250 W/m 9,0 C 23,0 C 6,4 km/h (2 Bft) 100,00 %
30.06.2017 15:44 22,9 C 24,4 C 41 % 1006,1 hPa 0,0 l/m 2,1 km/h (1 Bft) S-SW 210 0 min 0,000 mm 2,1 UV-I 260 W/m 8,9 C 22,9 C 6,4 km/h (2 Bft) 100,00 %
30.06.2017 15:46 22,9 C 24,4 C 42 % 1006,1 hPa 0,0 l/m 3,3 km/h (1 Bft) S-SW 210 0 min 0,000 mm 2,3 UV-I 293 W/m 9,3 C 22,9 C 6,4 km/h (2 Bft) 96,00 %
30.06.2017 15:48 22,9 C 24,4 C 41 % 1005,9 hPa 0,0 l/m 3,1 km/h (1 Bft) S 173 0 min 0,000 mm 2,7 UV-I 390 W/m 8,9 C 22,9 C 6,4 km/h (2 Bft) 95,74 %
30.06.2017 15:50 23,0 C 24,4 C 41 % 1005,8 hPa 0,0 l/m 2,1 km/h (1 Bft) S 173 2 min 0,000 mm 3,0 UV-I 543 W/m 9,0 C 23,0 C 4,8 km/h (1 Bft) 92,11 %
30.06.2017 15:52 23,1 C 24,4 C 40 % 1005,8 hPa 0,0 l/m 3,6 km/h (1 Bft) S 169 0 min 0,000 mm 2,4 UV-I 328 W/m 8,8 C 23,1 C 6,4 km/h (2 Bft) 98,00 %
30.06.2017 15:54 23,0 C 24,4 C 41 % 1005,7 hPa 0,0 l/m 4,1 km/h (1 Bft) S-SW 209 0 min 0,000 mm 2,1 UV-I 206 W/m 9,0 C 23,0 C 9,7 km/h (2 Bft) 100,00 %
30.06.2017 15:56 23,0 C 24,4 C 42 % 1005,8 hPa 0,0 l/m 6,4 km/h (2 Bft) S-SO 163 0 min 0,000 mm 2,0 UV-I 200 W/m 9,4 C 23,0 C 8,0 km/h (2 Bft) 95,56 %
30.06.2017 15:58 22,9 C 24,4 C 40 % 1005,9 hPa 0,0 l/m 3,7 km/h (1 Bft) S-SO 158 0 min 0,000 mm 1,9 UV-I 196 W/m 8,6 C 22,9 C 8,0 km/h (2 Bft) 96,00 %
30.06.2017 16:00 22,9 C 24,4 C 41 % 1005,9 hPa 0,0 l/m 2,9 km/h (1 Bft) S-SO 153 0 min 0,000 mm 1,9 UV-I 227 W/m 8,9 C 22,9 C 6,4 km/h (2 Bft) 100,00 %
30.06.2017 16:02 22,9 C 24,4 C 41 % 1005,8 hPa 0,0 l/m 1,0 km/h (0 Bft) S-SO 154 0 min 0,330 mm 2,1 UV-I 295 W/m 8,9 C 22,9 C 3,2 km/h (1 Bft) 97,87 %
30.06.2017 16:04 22,9 C 24,4 C 44 % 1005,8 hPa 0,0 l/m 1,9 km/h (1 Bft) SO 141 0 min 0,000 mm 2,4 UV-I 309 W/m 10,0 C 22,9 C 4,8 km/h (1 Bft) 100,00 %
30.06.2017 16:06 23,0 C 24,4 C 42 % 1005,7 hPa 0,0 l/m 1,7 km/h (1 Bft) SO 141 2 min 0,000 mm 3,2 UV-I 408 W/m 9,4 C 23,0 C 4,8 km/h (1 Bft) 100,00 %
30.06.2017 16:08 23,2 C 24,4 C 42 % 1005,6 hPa 0,0 l/m 0,8 km/h (0 Bft) SO 140 2 min 0,000 mm 2,8 UV-I 442 W/m 9,6 C 23,2 C 3,2 km/h (1 Bft) 98,21 %
30.06.2017 16:10 23,5 C 24,4 C 42 % 1005,6 hPa 0,0 l/m 0,8 km/h (0 Bft) W 276 2 min 0,000 mm 3,6 UV-I 633 W/m 9,8 C 23,5 C 4,8 km/h (1 Bft) 93,18 %
30.06.2017 16:12 23,8 C 24,4 C 40 % 1005,4 hPa 0,0 l/m 4,0 km/h (1 Bft) O-NO 62 2 min 0,000 mm 2,8 UV-I 779 W/m 9,4 C 23,8 C 8,0 km/h (2 Bft) 92,59 %
30.06.2017 16:14 23,9 C 24,4 C 41 % 1005,4 hPa 0,0 l/m 4,1 km/h (1 Bft) N-NO 30 2 min 0,000 mm 2,2 UV-I 527 W/m 9,8 C 23,9 C 6,4 km/h (2 Bft) 94,03 %
30.06.2017 16:16 23,9 C 24,4 C 41 % 1005,4 hPa 0,0 l/m 3,8 km/h (1 Bft) O-NO 73 2 min 0,000 mm 2,7 UV-I 453 W/m 9,8 C 23,9 C 4,8 km/h (1 Bft) 92,00 %
30.06.2017 16:18 24,0 C 24,4 C 39 % 1005,4 hPa 0,0 l/m 3,4 km/h (1 Bft) SO 135 2 min 0,000 mm 3,1 UV-I 703 W/m 9,2 C 24,0 C 4,8 km/h (1 Bft) 97,22 %
30.06.2017 16:20 24,1 C 24,4 C 40 % 1005,4 hPa 0,0 l/m 5,5 km/h (1 Bft) S-SW 207 2 min 0,000 mm 2,9 UV-I 639 W/m 9,6 C 24,1 C 8,0 km/h (2 Bft) 97,73 %
30.06.2017 16:22 24,0 C 24,4 C 39 % 1005,3 hPa 0,0 l/m 5,9 km/h (2 Bft) W 275 2 min 0,000 mm 3,0 UV-I 429 W/m 9,2 C 24,0 C 9,7 km/h (2 Bft) 96,61 %
30.06.2017 16:24 23,9 C 24,4 C 40 % 1005,3 hPa 0,0 l/m 1,3 km/h (1 Bft) W 277 2 min 0,000 mm 2,6 UV-I 386 W/m 9,5 C 23,9 C 3,2 km/h (1 Bft) 85,37 %
30.06.2017 16:26 24,3 C 24,4 C 42 % 1005,2 hPa 0,0 l/m 6,3 km/h (2 Bft) O 99 2 min 0,000 mm 2,6 UV-I 693 W/m 10,6 C 24,3 C 12,9 km/h (3 Bft) 95,45 %
30.06.2017 16:28 24,4 C 24,4 C 40 % 1005,2 hPa 0,0 l/m 12,9 km/h (3 Bft) SO 136 2 min 0,000 mm 3,3 UV-I 694 W/m 9,9 C 22,9 C 16,1 km/h (3 Bft) 96,00 %
30.06.2017 16:30 24,5 C 24,4 C 38 % 1005,1 hPa 0,0 l/m 7,3 km/h (2 Bft) S-SO 150 2 min 0,000 mm 3,2 UV-I 692 W/m 9,2 C 24,3 C 14,5 km/h (3 Bft) 95,74 %
30.06.2017 16:32 24,3 C 24,4 C 40 % 1005,2 hPa 0,0 l/m 5,2 km/h (1 Bft) O-SO 110 2 min 0,000 mm 2,7 UV-I 700 W/m 9,8 C 24,3 C 9,7 km/h (2 Bft) 94,00 %
30.06.2017 16:34 24,2 C 24,4 C 39 % 1005,2 hPa 0,0 l/m 2,8 km/h (1 Bft) S-SO 163 2 min 0,000 mm 3,1 UV-I 698 W/m 9,4 C 24,2 C 8,0 km/h (2 Bft) 94,00 %
30.06.2017 16:36 23,9 C 24,4 C 39 % 1005,2 hPa 0,0 l/m 4,3 km/h (1 Bft) S-SO 150 2 min 0,000 mm 3,1 UV-I 662 W/m 9,1 C 23,9 C 8,0 km/h (2 Bft) 95,12 %
30.06.2017 16:38 23,9 C 24,4 C 40 % 1005,2 hPa 0,0 l/m 3,8 km/h (1 Bft) O-NO 65 2 min 0,000 mm 3,0 UV-I 639 W/m 9,5 C 23,9 C 6,4 km/h (2 Bft) 95,74 %
30.06.2017 16:40 23,9 C 24,4 C 40 % 1005,1 hPa 0,0 l/m 3,1 km/h (1 Bft) O 80 2 min 0,000 mm 3,0 UV-I 638 W/m 9,5 C 23,9 C 4,8 km/h (1 Bft) 97,87 %
30.06.2017 16:42 24,1 C 24,4 C 39 % 1005,1 hPa 0,0 l/m 4,9 km/h (1 Bft) O 84 2 min 0,000 mm 2,9 UV-I 623 W/m 9,3 C 24,1 C 9,7 km/h (2 Bft) 100,00 %
30.06.2017 16:44 24,2 C 24,4 C 41 % 1005,0 hPa 0,0 l/m 2,3 km/h (1 Bft) O-SO 114 2 min 0,000 mm 2,8 UV-I 626 W/m 10,1 C 24,2 C 9,7 km/h (2 Bft) 100,00 %
30.06.2017 16:46 24,4 C 24,4 C 38 % 1005,0 hPa 0,0 l/m 6,0 km/h (2 Bft) SO 126 2 min 0,000 mm 2,8 UV-I 622 W/m 9,2 C 24,4 C 12,9 km/h (3 Bft) 100,00 %
30.06.2017 16:48 24,5 C 24,4 C 42 % 1005,0 hPa 0,0 l/m 4,2 km/h (1 Bft) NO 53 2 min 0,000 mm 2,8 UV-I 612 W/m 10,7 C 24,5 C 8,0 km/h (2 Bft) 100,00 %
30.06.2017 16:50 24,8 C 24,4 C 40 % 1005,0 hPa 0,0 l/m 8,1 km/h (2 Bft) O 89 2 min 0,000 mm 2,6 UV-I 609 W/m 10,3 C 24,4 C 14,5 km/h (3 Bft) 100,00 %
30.06.2017 16:52 24,9 C 24,4 C 40 % 1004,9 hPa 0,0 l/m 9,3 km/h (2 Bft) N-NO 22 2 min 0,000 mm 2,6 UV-I 588 W/m 10,4 C 24,2 C 12,9 km/h (3 Bft) 96,92 %
30.06.2017 16:54 24,9 C 24,4 C 40 % 1005,0 hPa 0,0 l/m 9,0 km/h (2 Bft) NO 50 2 min 0,000 mm 2,5 UV-I 557 W/m 10,4 C 24,3 C 14,5 km/h (3 Bft) 98,08 %
30.06.2017 16:56 25,1 C 24,4 C 40 % 1005,1 hPa 0,0 l/m 9,7 km/h (2 Bft) NO 36 2 min 0,000 mm 2,4 UV-I 544 W/m 10,5 C 24,3 C 14,5 km/h (3 Bft) 100,00 %
30.06.2017 16:58 25,1 C 24,4 C 40 % 1005,1 hPa 0,0 l/m 6,9 km/h (2 Bft) N-NO 32 2 min 0,000 mm 2,5 UV-I 575 W/m 10,5 C 25,0 C 12,9 km/h (3 Bft) 98,00 %
30.06.2017 17:00 25,0 C 24,4 C 38 % 1005,1 hPa 0,0 l/m 1,7 km/h (1 Bft) N 11 2 min 0,406 mm 2,5 UV-I 636 W/m 9,7 C 25,0 C 3,2 km/h (1 Bft) 97,87 %
30.06.2017 17:02 24,9 C 24,4 C 39 % 1005,0 hPa 0,0 l/m 0,4 km/h (0 Bft) N-NO 27 2 min 0,000 mm 2,6 UV-I 631 W/m 10,0 C 24,9 C 1,6 km/h (1 Bft) 97,87 %
30.06.2017 17:04 24,8 C 24,4 C 38 % 1004,9 hPa 0,0 l/m 6,1 km/h (2 Bft) N-NO 21 2 min 0,000 mm 2,5 UV-I 594 W/m 9,5 C 24,8 C 9,7 km/h (2 Bft) 97,87 %
30.06.2017 17:06 24,7 C 24,4 C 38 % 1005,0 hPa 0,0 l/m 8,1 km/h (2 Bft) N-NO 12 2 min 0,000 mm 2,2 UV-I 511 W/m 9,4 C 24,3 C 12,9 km/h (3 Bft) 100,00 %
30.06.2017 17:08 24,6 C 24,4 C 41 % 1005,0 hPa 0,0 l/m 6,2 km/h (2 Bft) N-NO 17 2 min 0,000 mm 2,2 UV-I 520 W/m 10,5 C 24,6 C 11,3 km/h (2 Bft) 100,00 %
30.06.2017 17:10 24,7 C 24,4 C 39 % 1005,0 hPa 0,0 l/m 5,4 km/h (1 Bft) N-NO 18 2 min 0,000 mm 2,2 UV-I 533 W/m 9,8 C 24,7 C 11,3 km/h (2 Bft) 100,00 %
30.06.2017 17:12 24,6 C 24,4 C 40 % 1005,0 hPa 0,0 l/m 5,6 km/h (1 Bft) NO 36 2 min 0,000 mm 2,3 UV-I 609 W/m 10,1 C 24,6 C 9,7 km/h (2 Bft) 100,00 %
30.06.2017 17:14 24,6 C 24,4 C 40 % 1005,0 hPa 0,0 l/m 4,1 km/h (1 Bft) N-NO 17 2 min 0,000 mm 2,0 UV-I 571 W/m 10,1 C 24,6 C 8,0 km/h (2 Bft) 100,00 %
30.06.2017 17:16 24,4 C 24,4 C 40 % 1005,0 hPa 0,0 l/m 4,2 km/h (1 Bft) NO 34 2 min 0,000 mm 1,7 UV-I 380 W/m 9,9 C 24,4 C 9,7 km/h (2 Bft) 100,00 %
30.06.2017 17:18 24,3 C 24,4 C 40 % 1005,0 hPa 0,0 l/m 2,2 km/h (1 Bft) NO 38 0 min 0,000 mm 1,6 UV-I 220 W/m 9,8 C 24,3 C 8,0 km/h (2 Bft) 98,11 %
30.06.2017 17:20 24,3 C 24,4 C 40 % 1005,1 hPa 0,0 l/m 2,0 km/h (1 Bft) W-SW 244 2 min 0,000 mm 2,1 UV-I 461 W/m 9,8 C 24,3 C 6,4 km/h (2 Bft) 100,00 %
30.06.2017 17:22 24,4 C 24,4 C 40 % 1005,1 hPa 0,0 l/m 4,6 km/h (1 Bft) S 181 2 min 0,000 mm 2,1 UV-I 565 W/m 9,9 C 24,4 C 8,0 km/h (2 Bft) 100,00 %
30.06.2017 17:24 24,5 C 24,4 C 38 % 1005,1 hPa 0,0 l/m 3,3 km/h (1 Bft) S 173 2 min 0,000 mm 2,0 UV-I 559 W/m 9,2 C 24,5 C 8,0 km/h (2 Bft) 100,00 %
30.06.2017 17:26 24,5 C 24,4 C 39 % 1005,1 hPa 0,0 l/m 3,2 km/h (1 Bft) S 172 2 min 0,000 mm 2,0 UV-I 552 W/m 9,6 C 24,5 C 6,4 km/h (2 Bft) 97,87 %
30.06.2017 17:28 24,4 C 24,4 C 40 % 1005,0 hPa 0,0 l/m 4,0 km/h (1 Bft) O-SO 119 2 min 0,000 mm 2,0 UV-I 555 W/m 9,9 C 24,4 C 8,0 km/h (2 Bft) 100,00 %
30.06.2017 17:30 24,6 C 24,4 C 40 % 1005,0 hPa 0,0 l/m 9,5 km/h (2 Bft) O-SO 105 2 min 0,000 mm 1,9 UV-I 530 W/m 10,1 C 23,8 C 14,5 km/h (3 Bft) 100,00 %
30.06.2017 17:32 24,8 C 24,4 C 39 % 1005,0 hPa 0,0 l/m 3,0 km/h (1 Bft) O-NO 59 2 min 0,000 mm 1,8 UV-I 554 W/m 9,9 C 24,8 C 6,4 km/h (2 Bft) 98,11 %
30.06.2017 17:34 24,8 C 24,4 C 39 % 1005,0 hPa 0,0 l/m 4,0 km/h (1 Bft) O-NO 78 2 min 0,000 mm 1,6 UV-I 566 W/m 9,9 C 24,8 C 8,0 km/h (2 Bft) 95,24 %
30.06.2017 17:36 24,7 C 24,4 C 39 % 1005,1 hPa 0,0 l/m 3,9 km/h (1 Bft) O-NO 68 0 min 0,000 mm 1,3 UV-I 221 W/m 9,8 C 24,7 C 6,4 km/h (2 Bft) 100,00 %
30.06.2017 17:38 24,5 C 24,4 C 40 % 1005,1 hPa 0,0 l/m 6,1 km/h (2 Bft) O-NO 69 2 min 0,000 mm 1,4 UV-I 318 W/m 10,0 C 24,5 C 9,7 km/h (2 Bft) 100,00 %
30.06.2017 17:40 24,4 C 24,4 C 40 % 1005,1 hPa 0,0 l/m 8,9 km/h (2 Bft) O 79 2 min 0,000 mm 1,4 UV-I 368 W/m 9,9 C 23,7 C 12,9 km/h (3 Bft) 98,00 %
30.06.2017 17:42 24,3 C 24,4 C 39 % 1005,1 hPa 0,0 l/m 6,9 km/h (2 Bft) O-NO 66 2 min 0,000 mm 1,4 UV-I 385 W/m 9,4 C 24,2 C 14,5 km/h (3 Bft) 97,87 %
30.06.2017 17:44 24,2 C 24,4 C 41 % 1005,0 hPa 0,0 l/m 4,1 km/h (1 Bft) NO 40 2 min 0,000 mm 1,4 UV-I 382 W/m 10,1 C 24,2 C 8,0 km/h (2 Bft) 98,00 %
30.06.2017 17:46 24,2 C 24,4 C 42 % 1005,0 hPa 0,0 l/m 6,4 km/h (2 Bft) NO 51 2 min 0,000 mm 1,3 UV-I 373 W/m 10,5 C 24,2 C 11,3 km/h (2 Bft) 95,12 %
30.06.2017 17:48 24,2 C 24,4 C 41 % 1004,9 hPa 0,0 l/m 7,8 km/h (2 Bft) O-NO 70 2 min 0,000 mm 1,3 UV-I 414 W/m 10,1 C 23,8 C 12,9 km/h (3 Bft) 97,56 %
30.06.2017 17:50 24,3 C 24,4 C 41 % 1004,9 hPa 0,0 l/m 4,5 km/h (1 Bft) NO 47 2 min 0,000 mm 1,2 UV-I 318 W/m 10,2 C 24,3 C 8,0 km/h (2 Bft) 100,00 %
30.06.2017 17:52 24,2 C 24,4 C 40 % 1005,0 hPa 0,0 l/m 3,4 km/h (1 Bft) NO 47 0 min 0,000 mm 1,0 UV-I 255 W/m 9,7 C 24,2 C 4,8 km/h (1 Bft) 96,55 %
30.06.2017 17:54 24,1 C 24,4 C 41 % 1005,1 hPa 0,0 l/m 6,8 km/h (2 Bft) SO 136 0 min 0,000 mm 1,0 UV-I 226 W/m 10,0 C 24,0 C 9,7 km/h (2 Bft) 98,46 %
30.06.2017 17:56 23,8 C 24,4 C 41 % 1005,2 hPa 0,0 l/m 3,9 km/h (1 Bft) O-SO 115 0 min 0,000 mm 0,9 UV-I 205 W/m 9,7 C 23,8 C 6,4 km/h (2 Bft) 93,62 %
30.06.2017 17:58 23,7 C 24,4 C 44 % 1005,2 hPa 0,0 l/m 10,3 km/h (2 Bft) SO 127 0 min 0,000 mm 0,8 UV-I 180 W/m 10,7 C 22,7 C 17,7 km/h (3 Bft) 100,00 %
30.06.2017 18:00 23,6 C 24,4 C 44 % 1005,1 hPa 0,0 l/m 6,6 km/h (2 Bft) O-SO 115 0 min 0,305 mm 0,7 UV-I 163 W/m 10,6 C 23,5 C 11,3 km/h (2 Bft) 92,68 %
30.06.2017 18:02 23,5 C 24,4 C 44 % 1005,1 hPa 0,0 l/m 4,4 km/h (1 Bft) SO 124 0 min 0,000 mm 0,7 UV-I 164 W/m 10,5 C 23,5 C 11,3 km/h (2 Bft) 94,34 %
30.06.2017 18:04 23,4 C 24,4 C 44 % 1005,1 hPa 0,0 l/m 7,0 km/h (2 Bft) O-SO 117 0 min 0,000 mm 0,6 UV-I 161 W/m 10,4 C 23,2 C 12,9 km/h (3 Bft) 95,12 %
30.06.2017 18:06 23,3 C 24,4 C 44 % 1005,0 hPa 0,0 l/m 9,3 km/h (2 Bft) O-SO 110 0 min 0,000 mm 0,6 UV-I 158 W/m 10,4 C 22,5 C 14,5 km/h (3 Bft) 88,64 %
30.06.2017 18:08 23,3 C 24,4 C 44 % 1005,0 hPa 0,0 l/m 7,8 km/h (2 Bft) O-SO 113 0 min 0,000 mm 0,6 UV-I 160 W/m 10,4 C 22,9 C 11,3 km/h (2 Bft) 94,34 %
30.06.2017 18:10 23,2 C 24,4 C 44 % 1004,9 hPa 0,0 l/m 5,7 km/h (1 Bft) O-SO 117 0 min 0,000 mm 0,6 UV-I 158 W/m 10,3 C 23,2 C 9,7 km/h (2 Bft) 95,74 %
30.06.2017 18:12 23,2 C 24,4 C 45 % 1004,8 hPa 0,0 l/m 4,7 km/h (1 Bft) O-SO 122 0 min 0,000 mm 0,6 UV-I 165 W/m 10,6 C 23,2 C 6,4 km/h (2 Bft) 97,62 %
30.06.2017 18:14 23,1 C 24,4 C 46 % 1004,6 hPa 0,0 l/m 5,8 km/h (2 Bft) O-SO 118 0 min 0,000 mm 0,6 UV-I 165 W/m 10,8 C 23,1 C 9,7 km/h (2 Bft) 93,62 %
30.06.2017 18:16 23,2 C 24,4 C 45 % 1004,7 hPa 0,0 l/m 7,0 km/h (2 Bft) O-SO 103 0 min 0,000 mm 0,6 UV-I 160 W/m 10,6 C 23,0 C 12,9 km/h (3 Bft) 94,00 %
30.06.2017 18:18 23,1 C 24,4 C 45 % 1004,9 hPa 0,0 l/m 5,0 km/h (1 Bft) SO 144 0 min 0,000 mm 0,5 UV-I 141 W/m 10,5 C 23,1 C 8,0 km/h (2 Bft) 94,74 %
30.06.2017 18:20 23,1 C 24,4 C 46 % 1004,9 hPa 0,0 l/m 5,2 km/h (1 Bft) O-SO 120 0 min 0,000 mm 0,4 UV-I 135 W/m 10,8 C 23,1 C 9,7 km/h (2 Bft) 94,34 %
30.06.2017 18:22 22,9 C 24,4 C 46 % 1004,9 hPa 0,0 l/m 4,5 km/h (1 Bft) S-SO 148 0 min 0,000 mm 0,0 UV-I 127 W/m 10,7 C 22,9 C 9,7 km/h (2 Bft) 92,45 %
30.06.2017 18:24 22,9 C 24,4 C 46 % 1005,0 hPa 0,0 l/m 4,8 km/h (1 Bft) O-SO 123 0 min 0,000 mm 0,0 UV-I 115 W/m 10,7 C 22,9 C 8,0 km/h (2 Bft) 92,11 %
30.06.2017 18:26 22,8 C 24,4 C 46 % 1005,0 hPa 0,0 l/m 3,8 km/h (1 Bft) SO 134 0 min 0,000 mm 0,0 UV-I 110 W/m 10,6 C 22,8 C 6,4 km/h (2 Bft) 96,43 %
30.06.2017 18:28 22,8 C 24,4 C 46 % 1005,0 hPa 0,0 l/m 1,9 km/h (1 Bft) SO 134 0 min 0,000 mm 0,0 UV-I 100 W/m 10,6 C 22,8 C 4,8 km/h (1 Bft) 93,62 %
30.06.2017 18:30 22,8 C 24,4 C 46 % 1005,1 hPa 0,0 l/m 2,6 km/h (1 Bft) SO 132 0 min 0,000 mm 0,0 UV-I 89 W/m 10,6 C 22,8 C 4,8 km/h (1 Bft) 94,29 %
30.06.2017 18:32 22,8 C 24,4 C 47 % 1005,1 hPa 0,0 l/m 3,5 km/h (1 Bft) SO 132 0 min 0,000 mm 0,0 UV-I 75 W/m 10,9 C 22,8 C 4,8 km/h (1 Bft) 94,92 %
30.06.2017 18:34 22,7 C 24,4 C 46 % 1005,1 hPa 0,0 l/m 3,0 km/h (1 Bft) S-SO 151 0 min 0,000 mm 0,0 UV-I 62 W/m 10,5 C 22,7 C 6,4 km/h (2 Bft) 90,91 %
30.06.2017 18:36 22,7 C 24,4 C 47 % 1005,1 hPa 0,0 l/m 4,3 km/h (1 Bft) O-SO 123 0 min 0,000 mm 0,0 UV-I 54 W/m 10,8 C 22,7 C 6,4 km/h (2 Bft) 95,12 %
30.06.2017 18:38 22,6 C 24,4 C 47 % 1005,0 hPa 0,0 l/m 4,6 km/h (1 Bft) O-SO 104 0 min 0,000 mm 0,0 UV-I 53 W/m 10,7 C 22,6 C 6,4 km/h (2 Bft) 96,00 %
30.06.2017 18:40 22,5 C 24,4 C 47 % 1005,0 hPa 0,0 l/m 5,0 km/h (1 Bft) SO 131 0 min 0,000 mm 0,0 UV-I 49 W/m 10,6 C 22,5 C 6,4 km/h (2 Bft) 98,00 %
30.06.2017 18:42 22,4 C 24,4 C 47 % 1005,1 hPa 0,0 l/m 2,2 km/h (1 Bft) SO 131 0 min 0,000 mm 0,0 UV-I 41 W/m 10,5 C 22,4 C 4,8 km/h (1 Bft) 95,12 %
30.06.2017 18:44 22,4 C 24,4 C 48 % 1005,1 hPa 0,0 l/m 4,0 km/h (1 Bft) SO 125 0 min 0,000 mm 0,0 UV-I 36 W/m 10,8 C 22,4 C 6,4 km/h (2 Bft) 94,34 %
30.06.2017 18:46 22,3 C 24,4 C 49 % 1005,0 hPa 0,0 l/m 1,5 km/h (1 Bft) SO 125 0 min 0,000 mm 0,0 UV-I 33 W/m 11,1 C 22,3 C 3,2 km/h (1 Bft) 97,56 %
30.06.2017 18:48 22,3 C 24,4 C 47 % 1005,1 hPa 0,0 l/m 2,1 km/h (1 Bft) SO 128 0 min 0,000 mm 0,0 UV-I 32 W/m 10,4 C 22,3 C 4,8 km/h (1 Bft) 96,00 %
30.06.2017 18:50 22,2 C 24,4 C 48 % 1005,0 hPa 0,0 l/m 2,2 km/h (1 Bft) SO 128 0 min 0,000 mm 0,0 UV-I 29 W/m 10,7 C 22,2 C 4,8 km/h (1 Bft) 96,00 %
30.06.2017 18:52 22,2 C 24,4 C 48 % 1005,0 hPa 0,0 l/m 1,1 km/h (1 Bft) SO 128 0 min 0,000 mm 0,0 UV-I 28 W/m 10,7 C 22,2 C 3,2 km/h (1 Bft) 95,74 %
30.06.2017 18:54 22,2 C 24,4 C 52 % 1005,1 hPa 0,0 l/m 3,7 km/h (1 Bft) S-SO 151 0 min 0,000 mm 0,0 UV-I 26 W/m 11,9 C 22,2 C 4,8 km/h (1 Bft) 95,74 %
30.06.2017 18:56 22,1 C 24,4 C 53 % 1005,2 hPa 0,0 l/m 3,2 km/h (1 Bft) S 169 0 min 0,000 mm 0,0 UV-I 22 W/m 12,1 C 22,1 C 6,4 km/h (2 Bft) 97,44 %
30.06.2017 18:58 22,0 C 24,4 C 55 % 1005,2 hPa 0,0 l/m 3,0 km/h (1 Bft) S 169 0 min 0,000 mm 0,0 UV-I 20 W/m 12,5 C 22,0 C 6,4 km/h (2 Bft) 96,43 %
30.06.2017 19:00 21,9 C 24,4 C 58 % 1005,2 hPa 0,0 l/m 4,1 km/h (1 Bft) S-SW 201 0 min 0,102 mm 0,0 UV-I 18 W/m 13,3 C 21,9 C 6,4 km/h (2 Bft) 95,65 %
30.06.2017 19:02 21,7 C 24,4 C 58 % 1005,4 hPa 0,0 l/m 4,9 km/h (1 Bft) SW 219 0 min 0,000 mm 0,0 UV-I 16 W/m 13,1 C 21,7 C 6,4 km/h (2 Bft) 98,46 %
30.06.2017 19:04 21,5 C 24,4 C 60 % 1005,5 hPa 0,2 l/m 5,7 km/h (1 Bft) SW 221 0 min 0,000 mm 0,0 UV-I 15 W/m 13,4 C 21,5 C 8,0 km/h (2 Bft) 96,00 %
30.06.2017 19:06 21,3 C 24,4 C 62 % 1005,6 hPa 0,0 l/m 5,6 km/h (1 Bft) SW 220 0 min 0,000 mm 0,0 UV-I 13 W/m 13,7 C 21,3 C 8,0 km/h (2 Bft) 93,62 %
30.06.2017 19:08 21,0 C 24,4 C 62 % 1005,7 hPa 0,0 l/m 6,2 km/h (2 Bft) S-SW 204 0 min 0,000 mm 0,0 UV-I 12 W/m 13,4 C 21,0 C 8,0 km/h (2 Bft) 97,87 %
30.06.2017 19:10 20,7 C 24,4 C 64 % 1005,8 hPa 0,0 l/m 4,6 km/h (1 Bft) S 173 0 min 0,000 mm 0,0 UV-I 12 W/m 13,6 C 20,7 C 8,0 km/h (2 Bft) 92,68 %
30.06.2017 19:12 20,5 C 24,4 C 67 % 1005,9 hPa 0,0 l/m 4,8 km/h (1 Bft) S 186 0 min 0,000 mm 0,0 UV-I 12 W/m 14,2 C 20,5 C 8,0 km/h (2 Bft) 97,73 %
30.06.2017 19:14 20,3 C 24,4 C 66 % 1006,1 hPa 0,2 l/m 9,8 km/h (2 Bft) S-SW 192 0 min 0,000 mm 0,0 UV-I 12 W/m 13,7 C 19,0 C 22,5 km/h (4 Bft) 94,00 %
30.06.2017 19:16 20,1 C 24,4 C 67 % 1006,2 hPa 0,0 l/m 11,2 km/h (2 Bft) S 188 0 min 0,000 mm 0,0 UV-I 13 W/m 13,8 C 18,4 C 19,3 km/h (3 Bft) 95,12 %
30.06.2017 19:18 19,8 C 24,4 C 68 % 1006,2 hPa 0,0 l/m 10,8 km/h (2 Bft) S 174 0 min 0,000 mm 0,0 UV-I 14 W/m 13,7 C 18,2 C 16,1 km/h (3 Bft) 98,18 %
30.06.2017 19:20 19,5 C 24,4 C 70 % 1006,3 hPa 0,2 l/m 10,1 km/h (2 Bft) S 189 0 min 0,000 mm 0,0 UV-I 17 W/m 13,9 C 18,1 C 20,9 km/h (4 Bft) 95,45 %
30.06.2017 19:22 19,1 C 24,4 C 71 % 1006,4 hPa 0,0 l/m 14,4 km/h (3 Bft) S-SO 165 0 min 0,000 mm 0,0 UV-I 18 W/m 13,7 C 16,3 C 22,5 km/h (4 Bft) 98,11 %
30.06.2017 19:24 18,8 C 24,4 C 71 % 1006,6 hPa 0,0 l/m 12,8 km/h (3 Bft) S-SO 161 0 min 0,000 mm 0,0 UV-I 17 W/m 13,4 C 16,4 C 20,9 km/h (4 Bft) 100,00 %
30.06.2017 19:26 18,4 C 24,4 C 72 % 1006,3 hPa 0,2 l/m 14,4 km/h (3 Bft) O-NO 69 0 min 0,000 mm 0,0 UV-I 16 W/m 13,3 C 15,5 C 19,3 km/h (3 Bft) 100,00 %
30.06.2017 19:28 18,2 C 24,4 C 72 % 1005,4 hPa 0,2 l/m 22,7 km/h (4 Bft) O-NO 73 0 min 0,000 mm 0,0 UV-I 16 W/m 13,1 C 13,3 C 30,6 km/h (5 Bft) 96,15 %
30.06.2017 19:30 17,8 C 24,4 C 70 % 1005,3 hPa 0,2 l/m 25,1 km/h (4 Bft) NO 50 0 min 0,000 mm 0,0 UV-I 18 W/m 12,3 C 12,4 C 32,2 km/h (5 Bft) 100,00 %
30.06.2017 19:32 17,6 C 24,4 C 71 % 1005,2 hPa 0,0 l/m 17,9 km/h (3 Bft) NO 46 0 min 0,000 mm 0,0 UV-I 19 W/m 12,3 C 13,6 C 25,7 km/h (4 Bft) 97,62 %
30.06.2017 19:34 17,3 C 24,4 C 72 % 1005,2 hPa 0,2 l/m 27,2 km/h (4 Bft) NO 49 0 min 0,000 mm 0,0 UV-I 19 W/m 12,2 C 11,4 C 33,8 km/h (5 Bft) 97,37 %
30.06.2017 19:36 17,2 C 24,4 C 69 % 1005,2 hPa 0,0 l/m 17,8 km/h (3 Bft) N-NO 23 0 min 0,000 mm 0,0 UV-I 21 W/m 11,5 C 13,1 C 25,7 km/h (4 Bft) 98,11 %
30.06.2017 19:38 17,0 C 24,4 C 69 % 1005,5 hPa 0,0 l/m 10,0 km/h (2 Bft) NO 44 0 min 0,000 mm 0,0 UV-I 22 W/m 11,3 C 15,3 C 20,9 km/h (4 Bft) 98,21 %
30.06.2017 19:40 17,0 C 24,4 C 70 % 1005,6 hPa 0,0 l/m 11,9 km/h (2 Bft) S 181 0 min 0,000 mm 0,0 UV-I 24 W/m 11,5 C 14,6 C 22,5 km/h (4 Bft) 100,00 %
30.06.2017 19:42 17,0 C 24,4 C 72 % 1005,7 hPa 0,0 l/m 9,3 km/h (2 Bft) SW 227 0 min 0,000 mm 0,0 UV-I 26 W/m 11,9 C 15,6 C 16,1 km/h (3 Bft) 100,00 %
30.06.2017 19:44 17,0 C 24,4 C 74 % 1005,8 hPa 0,0 l/m 5,1 km/h (1 Bft) SW 214 0 min 0,000 mm 0,0 UV-I 27 W/m 12,3 C 17,0 C 8,0 km/h (2 Bft) 100,00 %
30.06.2017 19:46 16,9 C 24,4 C 72 % 1005,8 hPa 0,0 l/m 3,9 km/h (1 Bft) O-NO 77 0 min 0,000 mm 0,0 UV-I 29 W/m 11,8 C 16,9 C 6,4 km/h (2 Bft) 100,00 %
30.06.2017 19:48 16,8 C 24,4 C 73 % 1005,8 hPa 0,0 l/m 3,7 km/h (1 Bft) NO 50 0 min 0,000 mm 0,0 UV-I 32 W/m 11,9 C 16,8 C 4,8 km/h (1 Bft) 100,00 %
30.06.2017 19:50 16,8 C 24,4 C 71 % 1005,6 hPa 0,0 l/m 9,6 km/h (2 Bft) O 81 0 min 0,000 mm 0,0 UV-I 32 W/m 11,5 C 15,3 C 16,1 km/h (3 Bft) 95,74 %
30.06.2017 19:52 16,9 C 24,4 C 67 % 1005,6 hPa 0,0 l/m 11,1 km/h (2 Bft) O-NO 63 0 min 0,000 mm 0,0 UV-I 31 W/m 10,7 C 14,8 C 17,7 km/h (3 Bft) 100,00 %
30.06.2017 19:54 17,1 C 24,4 C 71 % 1005,7 hPa 0,0 l/m 3,2 km/h (1 Bft) O-NO 63 0 min 0,000 mm 0,0 UV-I 28 W/m 11,8 C 17,1 C 4,8 km/h (1 Bft) 98,00 %
30.06.2017 19:56 17,1 C 24,4 C 74 % 1005,8 hPa 0,0 l/m 4,7 km/h (1 Bft) NO 34 0 min 0,000 mm 0,0 UV-I 24 W/m 12,4 C 17,1 C 8,0 km/h (2 Bft) 100,00 %
30.06.2017 19:58 16,8 C 24,4 C 73 % 1005,8 hPa 0,0 l/m 6,1 km/h (2 Bft) O-NO 70 0 min 0,000 mm 0,0 UV-I 20 W/m 11,9 C 16,8 C 8,0 km/h (2 Bft) 98,31 %
30.06.2017 20:00 16,8 C 24,4 C 72 % 1005,8 hPa 0,0 l/m 5,3 km/h (1 Bft) O-NO 63 0 min 0,051 mm 0,0 UV-I 17 W/m 11,7 C 16,8 C 9,7 km/h (2 Bft) 92,11 %
30.06.2017 20:02 16,9 C 24,4 C 75 % 1005,8 hPa 0,0 l/m 4,4 km/h (1 Bft) O-NO 63 0 min 0,000 mm 0,0 UV-I 14 W/m 12,4 C 16,9 C 6,4 km/h (2 Bft) 92,00 %
30.06.2017 20:04 16,8 C 24,4 C 77 % 1005,8 hPa 0,0 l/m 6,8 km/h (2 Bft) O-SO 104 0 min 0,000 mm 0,0 UV-I 12 W/m 12,7 C 16,6 C 9,7 km/h (2 Bft) 96,00 %
30.06.2017 20:06 16,7 C 24,4 C 77 % 1005,8 hPa 0,0 l/m 2,4 km/h (1 Bft) O-SO 104 0 min 0,000 mm 0,0 UV-I 12 W/m 12,6 C 16,7 C 4,8 km/h (1 Bft) 98,00 %
30.06.2017 20:08 16,6 C 24,4 C 76 % 1005,9 hPa 0,0 l/m 3,8 km/h (1 Bft) SW 217 0 min 0,000 mm 0,0 UV-I 11 W/m 12,3 C 16,6 C 6,4 km/h (2 Bft) 95,74 %
30.06.2017 20:10 16,6 C 24,4 C 80 % 1006,0 hPa 0,0 l/m 5,4 km/h (1 Bft) W-SW 242 0 min 0,000 mm 0,0 UV-I 11 W/m 13,1 C 16,6 C 8,0 km/h (2 Bft) 93,62 %
30.06.2017 20:12 16,5 C 24,4 C 80 % 1006,1 hPa 0,0 l/m 11,1 km/h (2 Bft) W-SW 238 0 min 0,000 mm 0,0 UV-I 9 W/m 13,0 C 14,3 C 14,5 km/h (3 Bft) 97,62 %
30.06.2017 20:14 16,4 C 23,9 C 82 % 1006,3 hPa 0,0 l/m 13,5 km/h (3 Bft) W-SW 252 0 min 0,000 mm 0,0 UV-I 9 W/m 13,3 C 13,4 C 20,9 km/h (4 Bft) 95,12 %
30.06.2017 20:16 16,4 C 23,9 C 80 % 1006,6 hPa 0,0 l/m 21,4 km/h (4 Bft) SW 233 0 min 0,000 mm 0,0 UV-I 7 W/m 12,9 C 11,2 C 29,0 km/h (5 Bft) 96,43 %
30.06.2017 20:18 16,4 C 23,9 C 79 % 1006,7 hPa 0,0 l/m 15,7 km/h (3 Bft) SW 221 0 min 0,000 mm 0,0 UV-I 7 W/m 12,7 C 12,7 C 32,2 km/h (5 Bft) 94,74 %
30.06.2017 20:20 16,4 C 23,9 C 78 % 1006,8 hPa 0,0 l/m 16,0 km/h (3 Bft) SW 233 0 min 0,000 mm 0,0 UV-I 7 W/m 12,6 C 12,6 C 25,7 km/h (4 Bft) 95,74 %
30.06.2017 20:22 16,5 C 23,9 C 78 % 1006,9 hPa 0,0 l/m 12,5 km/h (3 Bft) S-SW 213 0 min 0,000 mm 0,0 UV-I 7 W/m 12,6 C 13,8 C 24,1 km/h (4 Bft) 94,00 %
30.06.2017 20:24 16,6 C 23,9 C 77 % 1006,9 hPa 0,0 l/m 9,9 km/h (2 Bft) SW 232 0 min 0,000 mm 0,0 UV-I 7 W/m 12,5 C 14,9 C 16,1 km/h (3 Bft) 96,23 %
30.06.2017 20:26 16,6 C 23,9 C 79 % 1007,0 hPa 0,0 l/m 17,2 km/h (3 Bft) W-NW 288 0 min 0,000 mm 0,0 UV-I 8 W/m 12,9 C 12,5 C 30,6 km/h (5 Bft) 94,74 %
30.06.2017 20:28 16,6 C 23,9 C 77 % 1007,0 hPa 0,0 l/m 20,8 km/h (4 Bft) W-SW 258 0 min 0,000 mm 0,0 UV-I 9 W/m 12,5 C 11,6 C 30,6 km/h (5 Bft) 98,11 %
30.06.2017 20:30 16,4 C 23,9 C 78 % 1007,0 hPa 0,0 l/m 21,9 km/h (4 Bft) W-SW 248 0 min 0,000 mm 0,0 UV-I 11 W/m 12,6 C 11,1 C 30,6 km/h (5 Bft) 96,55 %
30.06.2017 20:32 16,3 C 23,9 C 78 % 1007,1 hPa 0,0 l/m 20,5 km/h (4 Bft) S-SW 207 0 min 0,000 mm 0,0 UV-I 11 W/m 12,5 C 11,3 C 30,6 km/h (5 Bft) 97,06 %
30.06.2017 20:34 16,1 C 23,9 C 80 % 1007,1 hPa 0,0 l/m 19,5 km/h (3 Bft) W-SW 242 0 min 0,000 mm 0,0 UV-I 12 W/m 12,6 C 11,3 C 29,0 km/h (5 Bft) 97,37 %
30.06.2017 20:36 16,0 C 23,9 C 80 % 1007,0 hPa 0,0 l/m 16,9 km/h (3 Bft) W-SW 242 0 min 0,000 mm 0,0 UV-I 12 W/m 12,5 C 11,8 C 22,5 km/h (4 Bft) 92,45 %
30.06.2017 20:38 15,8 C 23,9 C 81 % 1007,0 hPa 0,0 l/m 15,2 km/h (3 Bft) SW 234 0 min 0,000 mm 0,0 UV-I 13 W/m 12,5 C 12,1 C 22,5 km/h (4 Bft) 100,00 %
30.06.2017 20:40 15,7 C 23,9 C 81 % 1007,0 hPa 0,0 l/m 12,9 km/h (3 Bft) SW 217 0 min 0,000 mm 0,0 UV-I 14 W/m 12,4 C 12,7 C 19,3 km/h (3 Bft) 96,00 %
30.06.2017 20:43 15,6 C 23,9 C 83 % 1006,9 hPa 0,0 l/m 15,1 km/h (3 Bft) W-SW 240 0 min 0,000 mm 0,0 UV-I 15 W/m 12,7 C 11,9 C 24,1 km/h (4 Bft) 98,53 %
30.06.2017 20:44 15,5 C 23,9 C 83 % 1006,9 hPa 0,0 l/m 13,3 km/h (3 Bft) SW 227 0 min 0,000 mm 0,0 UV-I 18 W/m 12,6 C 12,4 C 19,3 km/h (3 Bft) 96,15 %
30.06.2017 20:46 15,4 C 23,9 C 83 % 1006,9 hPa 0,0 l/m 14,4 km/h (3 Bft) SW 228 0 min 0,000 mm 0,0 UV-I 19 W/m 12,5 C 11,9 C 19,3 km/h (3 Bft) 97,56 %
30.06.2017 20:48 15,4 C 23,9 C 83 % 1006,9 hPa 0,0 l/m 14,6 km/h (3 Bft) S-SW 213 2 min 0,000 mm 0,0 UV-I 17 W/m 12,5 C 11,8 C 25,7 km/h (4 Bft) 100,00 %
30.06.2017 20:50 15,3 C 23,9 C 83 % 1007,0 hPa 0,0 l/m 19,4 km/h (3 Bft) SW 233 0 min 0,000 mm 0,0 UV-I 14 W/m 12,4 C 10,3 C 29,0 km/h (5 Bft) 97,56 %
30.06.2017 20:52 15,3 C 23,9 C 83 % 1007,1 hPa 0,0 l/m 16,4 km/h (3 Bft) W 265 2 min 0,000 mm 0,0 UV-I 12 W/m 12,4 C 11,1 C 24,1 km/h (4 Bft) 100,00 %
30.06.2017 20:54 15,3 C 23,9 C 83 % 1007,2 hPa 0,0 l/m 14,2 km/h (3 Bft) SW 225 2 min 0,000 mm 0,0 UV-I 12 W/m 12,4 C 11,8 C 22,5 km/h (4 Bft) 93,62 %
30.06.2017 20:56 15,3 C 23,9 C 84 % 1007,2 hPa 0,0 l/m 15,6 km/h (3 Bft) SW 225 0 min 0,000 mm 0,0 UV-I 13 W/m 12,6 C 11,4 C 24,1 km/h (4 Bft) 96,23 %
30.06.2017 20:58 15,3 C 23,9 C 84 % 1007,2 hPa 0,0 l/m 15,7 km/h (3 Bft) W-SW 249 0 min 0,000 mm 0,0 UV-I 14 W/m 12,6 C 11,3 C 20,9 km/h (4 Bft) 100,00 %
30.06.2017 21:00 15,3 C 23,9 C 83 % 1007,3 hPa 0,0 l/m 15,6 km/h (3 Bft) W-SW 242 0 min 0,000 mm 0,0 UV-I 14 W/m 12,4 C 11,4 C 22,5 km/h (4 Bft) 95,12 %
30.06.2017 21:02 15,3 C 23,9 C 83 % 1007,3 hPa 0,0 l/m 12,4 km/h (3 Bft) SW 221 0 min 0,050 mm 0,0 UV-I 14 W/m 12,4 C 12,5 C 17,7 km/h (3 Bft) 94,92 %
30.06.2017 21:04 15,3 C 23,9 C 83 % 1007,4 hPa 0,0 l/m 9,4 km/h (2 Bft) S-SW 200 0 min 0,000 mm 0,0 UV-I 13 W/m 12,4 C 13,7 C 12,9 km/h (3 Bft) 97,87 %
30.06.2017 21:06 15,3 C 23,9 C 83 % 1007,4 hPa 0,0 l/m 10,5 km/h (2 Bft) S-SW 209 0 min 0,000 mm 0,0 UV-I 11 W/m 12,4 C 13,2 C 16,1 km/h (3 Bft) 97,87 %
30.06.2017 21:08 15,3 C 23,9 C 83 % 1007,3 hPa 0,0 l/m 8,7 km/h (2 Bft) S-SW 198 0 min 0,000 mm 0,0 UV-I 11 W/m 12,4 C 14,1 C 12,9 km/h (3 Bft) 96,15 %
30.06.2017 21:10 15,3 C 23,9 C 82 % 1007,3 hPa 0,0 l/m 6,5 km/h (2 Bft) S 186 0 min 0,000 mm 0,0 UV-I 8 W/m 12,2 C 15,3 C 14,5 km/h (3 Bft) 97,06 %
30.06.2017 21:12 15,3 C 23,9 C 82 % 1007,3 hPa 0,0 l/m 9,2 km/h (2 Bft) S-SO 161 0 min 0,000 mm 0,0 UV-I 6 W/m 12,2 C 13,8 C 14,5 km/h (3 Bft) 97,56 %
30.06.2017 21:14 15,3 C 23,9 C 82 % 1007,2 hPa 0,0 l/m 15,8 km/h (3 Bft) S 186 0 min 0,000 mm 0,0 UV-I 5 W/m 12,2 C 11,3 C 25,7 km/h (4 Bft) 98,11 %
30.06.2017 21:16 15,3 C 23,9 C 83 % 1007,1 hPa 0,0 l/m 11,5 km/h (2 Bft) S-SO 155 0 min 0,000 mm 0,0 UV-I 5 W/m 12,4 C 12,8 C 19,3 km/h (3 Bft) 97,87 %
30.06.2017 21:18 15,2 C 23,9 C 83 % 1007,1 hPa 0,0 l/m 14,4 km/h (3 Bft) S-SW 204 0 min 0,000 mm 0,0 UV-I 0 W/m 12,3 C 11,6 C 22,5 km/h (4 Bft) 100,00 %
30.06.2017 21:20 15,1 C 23,9 C 83 % 1007,1 hPa 0,0 l/m 12,4 km/h (3 Bft) S 186 0 min 0,000 mm 0,0 UV-I 0 W/m 12,2 C 12,2 C 20,9 km/h (4 Bft) 98,11 %
30.06.2017 21:22 15,1 C 23,9 C 84 % 1007,2 hPa 0,0 l/m 12,3 km/h (3 Bft) S-SW 199 0 min 0,000 mm 0,0 UV-I 0 W/m 12,4 C 12,3 C 22,5 km/h (4 Bft) 100,00 %
30.06.2017 21:24 14,9 C 23,9 C 84 % 1007,2 hPa 0,0 l/m 15,4 km/h (3 Bft) S 172 0 min 0,000 mm 0,0 UV-I 0 W/m 12,2 C 10,9 C 30,6 km/h (5 Bft) 98,04 %
30.06.2017 21:26 14,9 C 23,9 C 83 % 1007,2 hPa 0,0 l/m 13,5 km/h (3 Bft) SW 224 0 min 0,000 mm 0,0 UV-I 0 W/m 12,0 C 11,6 C 25,7 km/h (4 Bft) 97,62 %
30.06.2017 21:28 14,9 C 23,9 C 83 % 1007,3 hPa 0,0 l/m 15,4 km/h (3 Bft) S-SW 194 0 min 0,000 mm 0,0 UV-I 0 W/m 12,0 C 10,9 C 25,7 km/h (4 Bft) 100,00 %
30.06.2017 21:30 14,8 C 23,9 C 83 % 1007,4 hPa 0,0 l/m 9,9 km/h (2 Bft) S-SW 202 0 min 0,000 mm 0,0 UV-I 0 W/m 11,9 C 12,9 C 16,1 km/h (3 Bft) 97,14 %
30.06.2017 21:32 14,9 C 23,9 C 82 % 1007,3 hPa 0,0 l/m 12,4 km/h (3 Bft) S-SW 192 0 min 0,000 mm 0,0 UV-I 0 W/m 11,9 C 12,0 C 24,1 km/h (4 Bft) 96,92 %
30.06.2017 21:34 14,9 C 23,9 C 82 % 1007,2 hPa 0,0 l/m 11,0 km/h (2 Bft) S-SW 213 0 min 0,000 mm 0,0 UV-I 0 W/m 11,9 C 12,6 C 17,7 km/h (3 Bft) 100,00 %
30.06.2017 21:36 14,9 C 23,9 C 82 % 1007,2 hPa 0,0 l/m 14,1 km/h (3 Bft) SO 140 0 min 0,000 mm 0,0 UV-I 0 W/m 11,9 C 11,4 C 24,1 km/h (4 Bft) 95,45 %
30.06.2017 21:38 14,9 C 23,9 C 81 % 1007,2 hPa 0,0 l/m 10,7 km/h (2 Bft) S-SO 163 0 min 0,000 mm 0,0 UV-I 0 W/m 11,7 C 12,7 C 17,7 km/h (3 Bft) 98,11 %
30.06.2017 21:40 14,9 C 23,9 C 80 % 1007,3 hPa 0,0 l/m 10,5 km/h (2 Bft) S-SO 159 0 min 0,000 mm 0,0 UV-I 0 W/m 11,5 C 12,8 C 19,3 km/h (3 Bft) 100,00 %
30.06.2017 21:42 14,9 C 23,9 C 80 % 1007,3 hPa 0,0 l/m 13,2 km/h (3 Bft) S-SW 196 0 min 0,000 mm 0,0 UV-I 0 W/m 11,5 C 11,7 C 24,1 km/h (4 Bft) 98,11 %
30.06.2017 21:44 15,0 C 23,9 C 79 % 1007,2 hPa 0,0 l/m 13,3 km/h (3 Bft) S 177 0 min 0,000 mm 0,0 UV-I 0 W/m 11,4 C 11,8 C 22,5 km/h (4 Bft) 100,00 %
30.06.2017 21:46 15,0 C 23,9 C 79 % 1007,1 hPa 0,0 l/m 10,7 km/h (2 Bft) S-SW 201 0 min 0,000 mm 0,0 UV-I 0 W/m 11,4 C 12,8 C 20,9 km/h (4 Bft) 98,00 %
30.06.2017 21:48 15,0 C 23,9 C 79 % 1007,0 hPa 0,0 l/m 13,1 km/h (3 Bft) S-SO 164 0 min 0,000 mm 0,0 UV-I 0 W/m 11,4 C 11,9 C 24,1 km/h (4 Bft) 100,00 %
30.06.2017 21:50 15,0 C 23,9 C 78 % 1007,0 hPa 0,0 l/m 12,2 km/h (2 Bft) S 169 0 min 0,000 mm 0,0 UV-I 0 W/m 11,2 C 12,2 C 20,9 km/h (4 Bft) 95,12 %
30.06.2017 21:52 15,0 C 23,9 C 78 % 1006,8 hPa 0,0 l/m 11,2 km/h (2 Bft) S 170 0 min 0,000 mm 0,0 UV-I 0 W/m 11,2 C 12,6 C 20,9 km/h (4 Bft) 97,87 %
30.06.2017 21:54 15,0 C 23,9 C 77 % 1006,6 hPa 0,0 l/m 9,5 km/h (2 Bft) S 175 0 min 0,000 mm 0,0 UV-I 0 W/m 11,0 C 13,3 C 16,1 km/h (3 Bft) 100,00 %
30.06.2017 21:56 15,0 C 23,9 C 76 % 1006,6 hPa 0,0 l/m 10,7 km/h (2 Bft) S-SO 150 0 min 0,000 mm 0,0 UV-I 0 W/m 10,8 C 12,8 C 19,3 km/h (3 Bft) 96,23 %
30.06.2017 21:58 15,1 C 23,9 C 75 % 1006,5 hPa 0,0 l/m 11,4 km/h (2 Bft) S 170 0 min 0,000 mm 0,0 UV-I 0 W/m 10,7 C 12,6 C 22,5 km/h (4 Bft) 100,00 %
30.06.2017 22:00 15,1 C 23,9 C 74 % 1006,5 hPa 0,0 l/m 11,6 km/h (2 Bft) S-SO 163 0 min 0,026 mm 0,0 UV-I 0 W/m 10,5 C 12,5 C 19,3 km/h (3 Bft) 94,00 %
30.06.2017 22:02 15,1 C 23,9 C 74 % 1006,4 hPa 0,0 l/m 9,9 km/h (2 Bft) S-SO 153 0 min 0,000 mm 0,0 UV-I 0 W/m 10,5 C 13,3 C 17,7 km/h (3 Bft) 97,44 %
30.06.2017 22:04 15,2 C 23,9 C 75 % 1006,4 hPa 0,0 l/m 8,4 km/h (2 Bft) SO 130 0 min 0,000 mm 0,0 UV-I 0 W/m 10,8 C 14,1 C 16,1 km/h (3 Bft) 95,08 %
30.06.2017 22:06 15,1 C 23,9 C 76 % 1006,4 hPa 0,0 l/m 9,9 km/h (2 Bft) O-SO 115 0 min 0,000 mm 0,0 UV-I 0 W/m 10,9 C 13,3 C 19,3 km/h (3 Bft) 93,33 %
30.06.2017 22:08 15,1 C 23,9 C 77 % 1006,4 hPa 0,0 l/m 13,0 km/h (3 Bft) SO 134 0 min 0,000 mm 0,0 UV-I 0 W/m 11,1 C 12,0 C 19,3 km/h (3 Bft) 92,11 %
30.06.2017 22:10 14,9 C 23,9 C 77 % 1006,3 hPa 0,0 l/m 14,8 km/h (3 Bft) O-SO 123 0 min 0,000 mm 0,0 UV-I 0 W/m 10,9 C 11,1 C 24,1 km/h (4 Bft) 96,61 %
30.06.2017 22:12 14,8 C 23,9 C 78 % 1006,3 hPa 0,0 l/m 14,9 km/h (3 Bft) O-SO 111 0 min 0,000 mm 0,0 UV-I 0 W/m 11,0 C 11,0 C 24,1 km/h (4 Bft) 93,18 %
30.06.2017 22:14 14,7 C 23,9 C 78 % 1006,3 hPa 0,0 l/m 12,6 km/h (3 Bft) S-SO 154 0 min 0,000 mm 0,0 UV-I 0 W/m 10,9 C 11,7 C 20,9 km/h (4 Bft) 96,23 %
30.06.2017 22:16 14,7 C 23,9 C 79 % 1006,3 hPa 0,0 l/m 9,8 km/h (2 Bft) S-SO 153 0 min 0,000 mm 0,0 UV-I 0 W/m 11,1 C 12,9 C 17,7 km/h (3 Bft) 92,11 %
30.06.2017 22:18 14,7 C 23,9 C 78 % 1006,4 hPa 0,0 l/m 8,7 km/h (2 Bft) SO 133 0 min 0,000 mm 0,0 UV-I 0 W/m 10,9 C 13,4 C 17,7 km/h (3 Bft) 93,62 %
30.06.2017 22:20 14,7 C 23,9 C 78 % 1006,4 hPa 0,0 l/m 8,2 km/h (2 Bft) S-SO 150 0 min 0,000 mm 0,0 UV-I 0 W/m 10,9 C 13,7 C 19,3 km/h (3 Bft) 91,49 %
30.06.2017 22:22 14,7 C 23,9 C 78 % 1006,5 hPa 0,0 l/m 6,2 km/h (2 Bft) S-SO 153 0 min 0,000 mm 0,0 UV-I 0 W/m 10,9 C 14,7 C 14,5 km/h (3 Bft) 92,00 %
30.06.2017 22:24 14,7 C 23,9 C 78 % 1006,6 hPa 0,0 l/m 6,5 km/h (2 Bft) S 180 0 min 0,000 mm 0,0 UV-I 0 W/m 10,9 C 14,7 C 14,5 km/h (3 Bft) 92,68 %
30.06.2017 22:26 14,7 C 23,9 C 78 % 1006,7 hPa 0,0 l/m 6,9 km/h (2 Bft) S-SO 166 0 min 0,000 mm 0,0 UV-I 0 W/m 10,9 C 14,4 C 11,3 km/h (2 Bft) 90,57 %
30.06.2017 22:28 14,8 C 23,9 C 77 % 1006,7 hPa 0,0 l/m 4,0 km/h (1 Bft) S-SO 163 0 min 0,000 mm 0,0 UV-I 0 W/m 10,8 C 14,8 C 9,7 km/h (2 Bft) 97,73 %
30.06.2017 22:30 14,8 C 23,9 C 77 % 1006,7 hPa 0,0 l/m 6,5 km/h (2 Bft) S-SO 159 0 min 0,000 mm 0,0 UV-I 0 W/m 10,8 C 14,8 C 12,9 km/h (3 Bft) 92,45 %
30.06.2017 22:32 14,8 C 23,9 C 77 % 1006,8 hPa 0,0 l/m 6,6 km/h (2 Bft) S 172 0 min 0,000 mm 0,0 UV-I 0 W/m 10,8 C 14,7 C 11,3 km/h (2 Bft) 93,62 %
30.06.2017 22:34 14,8 C 23,9 C 77 % 1006,8 hPa 0,0 l/m 8,7 km/h (2 Bft) S-SW 208 0 min 0,000 mm 0,0 UV-I 0 W/m 10,8 C 13,5 C 19,3 km/h (3 Bft) 87,80 %
30.06.2017 22:36 14,8 C 23,9 C 77 % 1006,8 hPa 0,0 l/m 5,8 km/h (2 Bft) S-SO 163 0 min 0,000 mm 0,0 UV-I 0 W/m 10,8 C 14,8 C 12,9 km/h (3 Bft) 93,62 %
30.06.2017 22:38 14,8 C 23,9 C 77 % 1006,7 hPa 0,0 l/m 8,8 km/h (2 Bft) S 178 0 min 0,000 mm 0,0 UV-I 0 W/m 10,8 C 13,5 C 17,7 km/h (3 Bft) 90,57 %
30.06.2017 22:40 14,8 C 23,9 C 77 % 1006,7 hPa 0,0 l/m 4,5 km/h (1 Bft) S-SO 168 0 min 0,000 mm 0,0 UV-I 0 W/m 10,8 C 14,8 C 9,7 km/h (2 Bft) 100,00 %
30.06.2017 22:42 14,8 C 23,9 C 78 % 1006,7 hPa 0,0 l/m 10,3 km/h (2 Bft) S-SO 161 0 min 0,000 mm 0,0 UV-I 0 W/m 11,0 C 12,8 C 14,5 km/h (3 Bft) 94,34 %
30.06.2017 22:44 14,8 C 23,9 C 78 % 1006,8 hPa 0,0 l/m 7,9 km/h (2 Bft) SW 221 0 min 0,000 mm 0,0 UV-I 0 W/m 11,0 C 13,9 C 11,3 km/h (2 Bft) 98,00 %
30.06.2017 22:46 14,8 C 23,9 C 79 % 1006,8 hPa 0,0 l/m 6,2 km/h (2 Bft) SW 219 0 min 0,000 mm 0,0 UV-I 0 W/m 11,2 C 14,8 C 12,9 km/h (3 Bft) 94,87 %
30.06.2017 22:48 14,7 C 23,9 C 79 % 1006,8 hPa 0,0 l/m 3,7 km/h (1 Bft) S 177 0 min 0,000 mm 0,0 UV-I 0 W/m 11,1 C 14,7 C 6,4 km/h (2 Bft) 98,08 %
30.06.2017 22:50 14,7 C 23,9 C 79 % 1006,9 hPa 0,0 l/m 1,7 km/h (1 Bft) S 189 0 min 0,000 mm 0,0 UV-I 0 W/m 11,1 C 14,7 C 4,8 km/h (1 Bft) 95,24 %
30.06.2017 22:53 14,6 C 23,9 C 79 % 1006,9 hPa 0,0 l/m 0,8 km/h (0 Bft) N 5 0 min 0,000 mm 0,0 UV-I 0 W/m 11,0 C 14,6 C 4,8 km/h (1 Bft) 97,37 %
30.06.2017 22:54 14,5 C 23,9 C 80 % 1006,9 hPa 0,0 l/m 6,1 km/h (2 Bft) N-NO 22 0 min 0,000 mm 0,0 UV-I 0 W/m 11,1 C 14,5 C 8,0 km/h (2 Bft) 93,33 %
30.06.2017 22:56 14,4 C 23,9 C 80 % 1007,1 hPa 0,0 l/m 5,8 km/h (2 Bft) N-NO 28 0 min 0,000 mm 0,0 UV-I 0 W/m 11,0 C 14,4 C 8,0 km/h (2 Bft) 98,11 %
30.06.2017 22:58 14,2 C 23,9 C 81 % 1007,1 hPa 0,0 l/m 1,6 km/h (1 Bft) N-NO 28 0 min 0,000 mm 0,0 UV-I 0 W/m 11,0 C 14,2 C 4,8 km/h (1 Bft) 92,68 %
30.06.2017 23:00 14,0 C 23,9 C 82 % 1007,1 hPa 0,0 l/m 0,2 km/h (0 Bft) N-NO 24 0 min 0,025 mm 0,0 UV-I 0 W/m 11,0 C 14,0 C 1,6 km/h (1 Bft) 100,00 %
30.06.2017 23:02 13,9 C 23,9 C 82 % 1007,0 hPa 0,0 l/m 1,2 km/h (1 Bft) N-NO 24 0 min 0,000 mm 0,0 UV-I 0 W/m 10,9 C 13,9 C 3,2 km/h (1 Bft) 98,00 %
30.06.2017 23:04 13,8 C 23,9 C 82 % 1006,9 hPa 0,0 l/m 0,2 km/h (0 Bft) N-NO 24 0 min 0,000 mm 0,0 UV-I 0 W/m 10,8 C 13,8 C 1,6 km/h (1 Bft) 100,00 %
30.06.2017 23:06 13,8 C 23,9 C 82 % 1006,9 hPa 0,0 l/m 0,0 km/h (0 Bft) N-NO 24 0 min 0,000 mm 0,0 UV-I 0 W/m 10,8 C 13,8 C 0,0 km/h (0 Bft) 98,00 %
30.06.2017 23:08 13,8 C 23,9 C 83 % 1007,0 hPa 0,0 l/m 0,3 km/h (0 Bft) N-NO 24 0 min 0,000 mm 0,0 UV-I 0 W/m 11,0 C 13,8 C 1,6 km/h (1 Bft) 96,00 %
30.06.2017 23:10 13,7 C 23,9 C 83 % 1007,1 hPa 0,0 l/m 0,0 km/h (0 Bft) N-NO 24 0 min 0,000 mm 0,0 UV-I 0 W/m 10,9 C 13,7 C 0,0 km/h (0 Bft) 100,00 %
30.06.2017 23:12 13,7 C 23,9 C 83 % 1007,2 hPa 0,0 l/m 0,4 km/h (0 Bft) N-NO 24 0 min 0,000 mm 0,0 UV-I 0 W/m 10,9 C 13,7 C 3,2 km/h (1 Bft) 100,00 %
30.06.2017 23:14 13,7 C 23,3 C 84 % 1007,2 hPa 0,0 l/m 2,9 km/h (1 Bft) N-NO 24 0 min 0,000 mm 0,0 UV-I 0 W/m 11,0 C 13,7 C 3,2 km/h (1 Bft) 96,00 %
30.06.2017 23:16 13,7 C 23,3 C 84 % 1007,2 hPa 0,0 l/m 3,4 km/h (1 Bft) N-NO 24 0 min 0,000 mm 0,0 UV-I 0 W/m 11,0 C 13,7 C 4,8 km/h (1 Bft) 100,00 %
30.06.2017 23:18 13,7 C 23,3 C 84 % 1007,2 hPa 0,0 l/m 2,7 km/h (1 Bft) N-NO 24 0 min 0,000 mm 0,0 UV-I 0 W/m 11,0 C 13,7 C 4,8 km/h (1 Bft) 98,00 %
30.06.2017 23:20 13,6 C 23,3 C 85 % 1007,2 hPa 0,0 l/m 0,7 km/h (0 Bft) NO 39 0 min 0,000 mm 0,0 UV-I 0 W/m 11,1 C 13,6 C 1,6 km/h (1 Bft) 95,24 %
30.06.2017 23:22 13,6 C 23,3 C 85 % 1007,2 hPa 0,0 l/m 1,1 km/h (1 Bft) O-NO 75 0 min 0,000 mm 0,0 UV-I 0 W/m 11,1 C 13,6 C 3,2 km/h (1 Bft) 100,00 %
30.06.2017 23:24 13,6 C 23,3 C 85 % 1007,2 hPa 0,0 l/m 0,5 km/h (0 Bft) O-NO 76 0 min 0,000 mm 0,0 UV-I 0 W/m 11,1 C 13,6 C 1,6 km/h (1 Bft) 96,23 %
30.06.2017 23:26 13,5 C 23,3 C 85 % 1007,2 hPa 0,0 l/m 1,0 km/h (0 Bft) O-NO 76 0 min 0,000 mm 0,0 UV-I 0 W/m 11,0 C 13,5 C 3,2 km/h (1 Bft) 97,44 %
30.06.2017 23:28 13,4 C 23,3 C 85 % 1007,1 hPa 0,0 l/m 2,0 km/h (1 Bft) S-SO 161 0 min 0,000 mm 0,0 UV-I 0 W/m 10,9 C 13,4 C 6,4 km/h (2 Bft) 98,11 %
30.06.2017 23:30 13,4 C 23,3 C 85 % 1007,2 hPa 0,0 l/m 3,0 km/h (1 Bft) S-SO 168 0 min 0,000 mm 0,0 UV-I 0 W/m 10,9 C 13,4 C 6,4 km/h (2 Bft) 97,56 %
30.06.2017 23:33 13,6 C 23,3 C 85 % 1007,2 hPa 0,0 l/m 3,5 km/h (1 Bft) S-SO 163 0 min 0,000 mm 0,0 UV-I 0 W/m 11,1 C 13,6 C 9,7 km/h (2 Bft) 98,68 %
30.06.2017 23:34 13,6 C 23,3 C 84 % 1007,2 hPa 0,0 l/m 2,8 km/h (1 Bft) S-SO 163 0 min 0,000 mm 0,0 UV-I 0 W/m 10,9 C 13,6 C 6,4 km/h (2 Bft) 100,00 %
30.06.2017 23:36 13,7 C 23,3 C 83 % 1007,1 hPa 0,0 l/m 4,1 km/h (1 Bft) SO 142 0 min 0,000 mm 0,0 UV-I 0 W/m 10,9 C 13,7 C 8,0 km/h (2 Bft) 98,00 %
30.06.2017 23:38 13,7 C 23,3 C 83 % 1007,1 hPa 0,0 l/m 5,4 km/h (1 Bft) SO 137 0 min 0,000 mm 0,0 UV-I 0 W/m 10,9 C 13,7 C 9,7 km/h (2 Bft) 100,00 %
30.06.2017 23:40 13,8 C 23,3 C 82 % 1007,2 hPa 0,0 l/m 4,4 km/h (1 Bft) S-SO 165 0 min 0,000 mm 0,0 UV-I 0 W/m 10,8 C 13,8 C 11,3 km/h (2 Bft) 97,37 %
30.06.2017 23:42 13,8 C 23,3 C 82 % 1007,2 hPa 0,0 l/m 4,1 km/h (1 Bft) S-SO 160 0 min 0,000 mm 0,0 UV-I 0 W/m 10,8 C 13,8 C 9,7 km/h (2 Bft) 98,31 %
30.06.2017 23:44 13,9 C 23,3 C 81 % 1007,2 hPa 0,0 l/m 4,7 km/h (1 Bft) S-SO 168 0 min 0,000 mm 0,0 UV-I 0 W/m 10,7 C 13,9 C 8,0 km/h (2 Bft) 100,00 %
30.06.2017 23:46 13,9 C 23,3 C 81 % 1007,2 hPa 0,0 l/m 3,5 km/h (1 Bft) S-SO 154 0 min 0,000 mm 0,0 UV-I 0 W/m 10,7 C 13,9 C 8,0 km/h (2 Bft) 94,74 %
30.06.2017 23:48 14,0 C 23,3 C 81 % 1007,2 hPa 0,0 l/m 2,8 km/h (1 Bft) S-SO 150 0 min 0,000 mm 0,0 UV-I 0 W/m 10,8 C 14,0 C 6,4 km/h (2 Bft) 97,87 %
30.06.2017 23:50 14,0 C 23,3 C 81 % 1007,2 hPa 0,0 l/m 2,2 km/h (1 Bft) S 180 0 min 0,000 mm 0,0 UV-I 0 W/m 10,8 C 14,0 C 6,4 km/h (2 Bft) 98,00 %
30.06.2017 23:52 14,1 C 23,3 C 81 % 1007,2 hPa 0,0 l/m 1,2 km/h (1 Bft) S 180 0 min 0,000 mm 0,0 UV-I 0 W/m 10,9 C 14,1 C 3,2 km/h (1 Bft) 100,00 %
30.06.2017 23:54 14,1 C 23,3 C 81 % 1007,2 hPa 0,0 l/m 1,2 km/h (1 Bft) S 180 0 min 0,000 mm 0,0 UV-I 0 W/m 10,9 C 14,1 C 3,2 km/h (1 Bft) 97,87 %
30.06.2017 23:56 13,9 C 23,3 C 82 % 1007,3 hPa 0,0 l/m 0,7 km/h (0 Bft) S 180 0 min 0,000 mm 0,0 UV-I 0 W/m 10,9 C 13,9 C 3,2 km/h (1 Bft) 100,00 %
30.06.2017 23:58 13,7 C 23,3 C 82 % 1007,3 hPa 0,0 l/m 3,1 km/h (1 Bft) SO 146 0 min 0,000 mm 0,0 UV-I 0 W/m 10,7 C 13,7 C 4,8 km/h (1 Bft) 100,00 %
_ Min-Zeit 23:28 10:23 14:38 00:02 - 23:06 - - - - - - 14:38 01:24 23:06 10:40
Minimum _ 13,4 C 22,8 C 37 % 1003,8 hPa - 0,0 km/h (0 Bft) - - - - - - 8,5 C 9,0 C 0,0 km/h (0 Bft) 84,00 %
_ Max-Zeit 16:56 00:00 01:44 11:26 00:24 19:34 - - 07:40 13:00 12:20 12:22 19:12 17:00 08:42 00:16
Maximum _ 25,1 C 24,4 C 88 % 1007,8 hPa 0,2 l/m 27,2 km/h
NO (4 Bft)
- - 2 min 0,584 mm 6,8 UV-I 1076 W/m 14,2 C 25,0 C 33,8 km/h
SW (5 Bft)
100,00 %
Durchschnitt _ 18,2 C 24,1 C 66 % 1006,1 hPa #2,0 l/m 10,1 km/h (2 Bft) SW - #8:06 h #5,029 mm 3,4 UV-I 416 W/m 11,0 C 16,5 C 16,3 km/h (3 Bft) 96,81 %